Wetterdaten: Sonntag, 29.07.2018
Datum Zeit Temp. A. Pool Temp. Temp. 5cm Feuchte A. Luftdruck Regen Wind Richtung Richtung Sonnenschein ET UV Solar Taupunkt Windchill Windben Empfang
29.07.2018 00:00 22,8 C 26,7 C 21,1 C 62 % 1011,7 hPa 0,0 l/m 8,3 km/h (2 Bft) SW 221 0 min 0,000 mm 0,0 UV-I 0 W/m 15,1 C 22,2 C 11,3 km/h (2 Bft) 100,00 %
29.07.2018 00:02 22,8 C 26,7 C 21,1 C 62 % 1011,8 hPa 0,0 l/m 8,9 km/h (2 Bft) W-SW 241 0 min 0,000 mm 0,0 UV-I 0 W/m 15,1 C 22,0 C 12,9 km/h (3 Bft) 9,09 %
29.07.2018 00:04 22,9 C 26,7 C 21,1 C 62 % 1011,9 hPa 0,0 l/m 8,9 km/h (2 Bft) W-SW 239 0 min 0,000 mm 0,0 UV-I 0 W/m 15,2 C 22,1 C 14,5 km/h (3 Bft) 97,73 %
29.07.2018 00:06 22,9 C 26,7 C 21,1 C 62 % 1011,9 hPa 0,0 l/m 9,6 km/h (2 Bft) W-SW 239 0 min 0,000 mm 0,0 UV-I 0 W/m 15,2 C 21,9 C 14,5 km/h (3 Bft) 100,00 %
29.07.2018 00:08 22,8 C 26,7 C 21,1 C 62 % 1011,9 hPa 0,0 l/m 7,0 km/h (2 Bft) SW 236 0 min 0,000 mm 0,0 UV-I 0 W/m 15,1 C 22,6 C 12,9 km/h (3 Bft) 100,00 %
29.07.2018 00:10 22,7 C 26,7 C 21,1 C 62 % 1011,9 hPa 0,0 l/m 8,0 km/h (2 Bft) W-SW 244 0 min 0,000 mm 0,0 UV-I 0 W/m 15,0 C 22,2 C 11,3 km/h (2 Bft) 100,00 %
29.07.2018 00:12 22,7 C 26,7 C 21,1 C 63 % 1011,9 hPa 0,0 l/m 6,2 km/h (2 Bft) W-SW 253 0 min 0,000 mm 0,0 UV-I 0 W/m 15,3 C 22,7 C 9,7 km/h (2 Bft) 97,87 %
29.07.2018 00:14 22,7 C 26,7 C 21,1 C 63 % 1012,0 hPa 0,0 l/m 6,1 km/h (2 Bft) SW 236 0 min 0,000 mm 0,0 UV-I 0 W/m 15,3 C 22,7 C 8,0 km/h (2 Bft) 100,00 %
29.07.2018 00:16 22,6 C 26,7 C 21,1 C 63 % 1011,9 hPa 0,0 l/m 7,0 km/h (2 Bft) SW 223 0 min 0,000 mm 0,0 UV-I 0 W/m 15,2 C 22,4 C 9,7 km/h (2 Bft) 100,00 %
29.07.2018 00:18 22,5 C 26,7 C 21,1 C 63 % 1012,0 hPa 0,0 l/m 8,3 km/h (2 Bft) SW 221 0 min 0,000 mm 0,0 UV-I 0 W/m 15,1 C 21,9 C 11,3 km/h (2 Bft) 97,87 %
29.07.2018 00:20 22,4 C 26,7 C 21,1 C 64 % 1011,9 hPa 0,0 l/m 7,3 km/h (2 Bft) SW 227 0 min 0,000 mm 0,0 UV-I 0 W/m 15,2 C 22,1 C 9,7 km/h (2 Bft) 97,37 %
29.07.2018 00:22 22,4 C 26,7 C 21,1 C 64 % 1012,0 hPa 0,0 l/m 6,8 km/h (2 Bft) S-SW 213 0 min 0,000 mm 0,0 UV-I 0 W/m 15,2 C 22,3 C 11,3 km/h (2 Bft) 98,00 %
29.07.2018 00:24 22,3 C 26,7 C 20,6 C 64 % 1012,0 hPa 0,0 l/m 7,4 km/h (2 Bft) W-SW 239 0 min 0,000 mm 0,0 UV-I 0 W/m 15,2 C 22,0 C 11,3 km/h (2 Bft) 96,00 %
29.07.2018 00:26 22,4 C 26,7 C 20,6 C 65 % 1012,0 hPa 0,0 l/m 6,6 km/h (2 Bft) SW 215 0 min 0,000 mm 0,0 UV-I 0 W/m 15,5 C 22,3 C 11,3 km/h (2 Bft) 95,74 %
29.07.2018 00:28 22,4 C 26,7 C 20,6 C 65 % 1012,0 hPa 0,0 l/m 7,9 km/h (2 Bft) SW 236 0 min 0,000 mm 0,0 UV-I 0 W/m 15,5 C 21,9 C 11,3 km/h (2 Bft) 91,49 %
29.07.2018 00:30 22,4 C 26,7 C 20,6 C 65 % 1012,0 hPa 0,0 l/m 6,7 km/h (2 Bft) W-SW 248 0 min 0,000 mm 0,0 UV-I 0 W/m 15,5 C 22,3 C 9,7 km/h (2 Bft) 95,74 %
29.07.2018 00:32 22,3 C 26,7 C 20,6 C 66 % 1012,1 hPa 0,0 l/m 7,2 km/h (2 Bft) SW 233 0 min 0,000 mm 0,0 UV-I 0 W/m 15,6 C 22,0 C 11,3 km/h (2 Bft) 95,74 %
29.07.2018 00:34 22,2 C 26,7 C 20,6 C 66 % 1012,1 hPa 0,0 l/m 8,7 km/h (2 Bft) W-SW 239 0 min 0,000 mm 0,0 UV-I 0 W/m 15,5 C 21,4 C 12,9 km/h (3 Bft) 93,62 %
29.07.2018 00:36 22,1 C 26,7 C 20,6 C 66 % 1012,1 hPa 0,0 l/m 9,7 km/h (2 Bft) SW 232 0 min 0,000 mm 0,0 UV-I 0 W/m 15,4 C 21,0 C 14,5 km/h (3 Bft) 93,62 %
29.07.2018 00:38 22,1 C 26,7 C 20,6 C 67 % 1012,1 hPa 0,0 l/m 10,0 km/h (2 Bft) W-SW 255 0 min 0,000 mm 0,0 UV-I 0 W/m 15,7 C 21,0 C 17,7 km/h (3 Bft) 95,74 %
29.07.2018 00:40 22,1 C 26,7 C 20,6 C 67 % 1012,1 hPa 0,0 l/m 9,4 km/h (2 Bft) SW 228 0 min 0,000 mm 0,0 UV-I 0 W/m 15,7 C 21,1 C 14,5 km/h (3 Bft) 94,00 %
29.07.2018 00:42 22,1 C 26,7 C 21,1 C 67 % 1012,2 hPa 0,0 l/m 12,3 km/h (3 Bft) SW 227 0 min 0,000 mm 0,0 UV-I 0 W/m 15,7 C 20,4 C 17,7 km/h (3 Bft) 94,87 %
29.07.2018 00:44 22,1 C 26,7 C 21,1 C 67 % 1012,2 hPa 0,0 l/m 13,3 km/h (3 Bft) W-SW 238 0 min 0,000 mm 0,0 UV-I 0 W/m 15,7 C 20,1 C 17,7 km/h (3 Bft) 93,62 %
29.07.2018 00:46 22,2 C 26,7 C 21,1 C 67 % 1012,2 hPa 0,0 l/m 13,6 km/h (3 Bft) SW 229 0 min 0,000 mm 0,0 UV-I 0 W/m 15,8 C 20,2 C 20,9 km/h (4 Bft) 96,00 %
29.07.2018 00:48 22,3 C 26,7 C 21,1 C 66 % 1012,2 hPa 0,0 l/m 13,8 km/h (3 Bft) W-SW 248 0 min 0,000 mm 0,0 UV-I 0 W/m 15,6 C 20,3 C 17,7 km/h (3 Bft) 93,62 %
29.07.2018 00:50 22,3 C 26,7 C 21,1 C 66 % 1012,1 hPa 0,0 l/m 14,3 km/h (3 Bft) SW 221 0 min 0,000 mm 0,0 UV-I 0 W/m 15,6 C 20,2 C 20,9 km/h (4 Bft) 97,87 %
29.07.2018 00:52 22,3 C 26,7 C 21,1 C 65 % 1012,2 hPa 0,0 l/m 14,5 km/h (3 Bft) W-SW 239 0 min 0,000 mm 0,0 UV-I 0 W/m 15,4 C 20,1 C 20,9 km/h (4 Bft) 95,74 %
29.07.2018 00:54 22,4 C 26,7 C 21,1 C 65 % 1012,2 hPa 0,0 l/m 15,1 km/h (3 Bft) SW 228 0 min 0,000 mm 0,0 UV-I 0 W/m 15,5 C 20,1 C 20,9 km/h (4 Bft) 98,00 %
29.07.2018 00:56 22,4 C 26,7 C 21,1 C 64 % 1012,2 hPa 0,0 l/m 13,4 km/h (3 Bft) W-SW 239 0 min 0,000 mm 0,0 UV-I 0 W/m 15,2 C 20,5 C 19,3 km/h (3 Bft) 97,14 %
29.07.2018 00:58 22,5 C 26,7 C 21,1 C 64 % 1012,2 hPa 0,0 l/m 12,1 km/h (2 Bft) SW 218 0 min 0,000 mm 0,0 UV-I 0 W/m 15,3 C 20,9 C 19,3 km/h (3 Bft) 96,23 %
29.07.2018 01:00 22,5 C 26,7 C 21,1 C 64 % 1012,2 hPa 0,0 l/m 12,1 km/h (2 Bft) S-SW 206 0 min 0,051 mm 0,0 UV-I 0 W/m 15,3 C 20,9 C 19,3 km/h (3 Bft) 95,74 %
29.07.2018 01:02 22,6 C 26,7 C 21,7 C 64 % 1012,2 hPa 0,0 l/m 10,8 km/h (2 Bft) W-SW 242 0 min 0,000 mm 0,0 UV-I 0 W/m 15,4 C 21,3 C 19,3 km/h (3 Bft) 95,74 %
29.07.2018 01:04 22,6 C 26,7 C 21,7 C 64 % 1012,2 hPa 0,0 l/m 11,9 km/h (2 Bft) W-SW 242 0 min 0,000 mm 0,0 UV-I 0 W/m 15,4 C 21,0 C 17,7 km/h (3 Bft) 94,00 %
29.07.2018 01:06 22,6 C 26,7 C 21,1 C 64 % 1012,2 hPa 0,0 l/m 10,0 km/h (2 Bft) W-SW 252 0 min 0,000 mm 0,0 UV-I 0 W/m 15,4 C 21,5 C 16,1 km/h (3 Bft) 95,74 %
29.07.2018 01:08 22,6 C 26,7 C 21,1 C 64 % 1012,2 hPa 0,0 l/m 10,5 km/h (2 Bft) W-SW 246 0 min 0,000 mm 0,0 UV-I 0 W/m 15,4 C 21,4 C 16,1 km/h (3 Bft) 95,74 %
29.07.2018 01:10 22,6 C 26,7 C 21,1 C 64 % 1012,2 hPa 0,0 l/m 11,4 km/h (2 Bft) W-SW 247 0 min 0,000 mm 0,0 UV-I 0 W/m 15,4 C 21,2 C 16,1 km/h (3 Bft) 94,74 %
29.07.2018 01:12 22,6 C 26,7 C 21,1 C 63 % 1012,2 hPa 0,0 l/m 11,2 km/h (2 Bft) W-SW 240 0 min 0,000 mm 0,0 UV-I 0 W/m 15,2 C 21,2 C 19,3 km/h (3 Bft) 94,00 %
29.07.2018 01:14 22,6 C 26,7 C 21,1 C 64 % 1012,2 hPa 0,0 l/m 8,7 km/h (2 Bft) W-SW 240 0 min 0,000 mm 0,0 UV-I 0 W/m 15,4 C 21,9 C 14,5 km/h (3 Bft) 94,00 %
29.07.2018 01:16 22,5 C 26,7 C 21,1 C 64 % 1012,2 hPa 0,0 l/m 9,5 km/h (2 Bft) W-SW 239 0 min 0,000 mm 0,0 UV-I 0 W/m 15,3 C 21,5 C 12,9 km/h (3 Bft) 89,36 %
29.07.2018 01:18 22,4 C 26,7 C 21,1 C 64 % 1012,3 hPa 0,0 l/m 8,8 km/h (2 Bft) W-SW 248 0 min 0,000 mm 0,0 UV-I 0 W/m 15,2 C 21,6 C 12,9 km/h (3 Bft) 95,83 %
29.07.2018 01:20 22,4 C 26,7 C 21,1 C 64 % 1012,2 hPa 0,0 l/m 10,3 km/h (2 Bft) W-SW 246 0 min 0,000 mm 0,0 UV-I 0 W/m 15,2 C 21,2 C 17,7 km/h (3 Bft) 95,74 %
29.07.2018 01:22 22,4 C 26,7 C 21,1 C 64 % 1012,3 hPa 0,0 l/m 8,8 km/h (2 Bft) W-SW 248 0 min 0,000 mm 0,0 UV-I 0 W/m 15,2 C 21,6 C 16,1 km/h (3 Bft) 94,29 %
29.07.2018 01:24 22,5 C 26,7 C 21,1 C 64 % 1012,3 hPa 0,0 l/m 9,9 km/h (2 Bft) SW 229 0 min 0,000 mm 0,0 UV-I 0 W/m 15,3 C 21,4 C 14,5 km/h (3 Bft) 93,55 %
29.07.2018 01:26 22,5 C 26,7 C 21,1 C 64 % 1012,3 hPa 0,0 l/m 11,0 km/h (2 Bft) SW 227 0 min 0,000 mm 0,0 UV-I 0 W/m 15,3 C 21,1 C 17,7 km/h (3 Bft) 93,62 %
29.07.2018 01:28 22,5 C 26,7 C 21,1 C 63 % 1012,4 hPa 0,0 l/m 9,9 km/h (2 Bft) SW 215 0 min 0,000 mm 0,0 UV-I 0 W/m 15,1 C 21,4 C 16,1 km/h (3 Bft) 97,87 %
29.07.2018 01:30 22,5 C 26,7 C 21,1 C 63 % 1012,3 hPa 0,0 l/m 11,8 km/h (2 Bft) SW 228 0 min 0,000 mm 0,0 UV-I 0 W/m 15,1 C 21,0 C 17,7 km/h (3 Bft) 97,37 %
29.07.2018 01:32 22,5 C 26,7 C 21,1 C 63 % 1012,3 hPa 0,0 l/m 11,3 km/h (2 Bft) W-SW 238 0 min 0,000 mm 0,0 UV-I 0 W/m 15,1 C 21,1 C 17,7 km/h (3 Bft) 97,87 %
29.07.2018 01:34 22,6 C 26,7 C 21,1 C 63 % 1012,3 hPa 0,0 l/m 12,0 km/h (2 Bft) SW 233 0 min 0,000 mm 0,0 UV-I 0 W/m 15,2 C 21,0 C 16,1 km/h (3 Bft) 100,00 %
29.07.2018 01:36 22,6 C 26,7 C 21,1 C 63 % 1012,3 hPa 0,0 l/m 10,4 km/h (2 Bft) SW 236 0 min 0,000 mm 0,0 UV-I 0 W/m 15,2 C 21,4 C 14,5 km/h (3 Bft) 100,00 %
29.07.2018 01:38 22,5 C 26,1 C 21,1 C 63 % 1012,3 hPa 0,0 l/m 12,7 km/h (3 Bft) W-SW 250 0 min 0,000 mm 0,0 UV-I 0 W/m 15,1 C 20,8 C 17,7 km/h (3 Bft) 100,00 %
29.07.2018 01:40 22,5 C 26,7 C 21,1 C 63 % 1012,3 hPa 0,0 l/m 9,8 km/h (2 Bft) W-SW 240 0 min 0,000 mm 0,0 UV-I 0 W/m 15,1 C 21,5 C 14,5 km/h (3 Bft) 95,74 %
29.07.2018 01:42 22,5 C 26,7 C 21,1 C 63 % 1012,3 hPa 0,0 l/m 12,9 km/h (3 Bft) W-SW 239 0 min 0,000 mm 0,0 UV-I 0 W/m 15,1 C 20,7 C 17,7 km/h (3 Bft) 100,00 %
29.07.2018 01:44 22,5 C 26,7 C 21,1 C 63 % 1012,3 hPa 0,0 l/m 10,7 km/h (2 Bft) W-SW 237 0 min 0,000 mm 0,0 UV-I 0 W/m 15,1 C 21,2 C 16,1 km/h (3 Bft) 100,00 %
29.07.2018 01:46 22,4 C 26,7 C 21,1 C 63 % 1012,3 hPa 0,0 l/m 12,0 km/h (2 Bft) SW 224 0 min 0,000 mm 0,0 UV-I 0 W/m 15,0 C 20,8 C 17,7 km/h (3 Bft) 97,87 %
29.07.2018 01:48 22,4 C 26,1 C 21,1 C 63 % 1012,3 hPa 0,0 l/m 11,0 km/h (2 Bft) SW 227 0 min 0,000 mm 0,0 UV-I 0 W/m 15,0 C 21,0 C 16,1 km/h (3 Bft) 100,00 %
29.07.2018 01:50 22,4 C 26,1 C 21,1 C 64 % 1012,3 hPa 0,0 l/m 11,6 km/h (2 Bft) W-SW 247 0 min 0,000 mm 0,0 UV-I 0 W/m 15,2 C 20,9 C 17,7 km/h (3 Bft) 100,00 %
29.07.2018 01:52 22,5 C 26,1 C 21,7 C 63 % 1012,3 hPa 0,0 l/m 12,7 km/h (3 Bft) SW 224 0 min 0,000 mm 0,0 UV-I 0 W/m 15,1 C 20,8 C 19,3 km/h (3 Bft) 95,74 %
29.07.2018 01:54 22,6 C 26,1 C 21,7 C 63 % 1012,3 hPa 0,0 l/m 11,5 km/h (2 Bft) SW 236 0 min 0,000 mm 0,0 UV-I 0 W/m 15,2 C 21,1 C 17,7 km/h (3 Bft) 97,44 %
29.07.2018 01:56 22,6 C 26,1 C 21,7 C 63 % 1012,3 hPa 0,0 l/m 10,5 km/h (2 Bft) W-SW 240 0 min 0,000 mm 0,0 UV-I 0 W/m 15,2 C 21,4 C 17,7 km/h (3 Bft) 98,00 %
29.07.2018 01:58 22,5 C 26,1 C 21,7 C 63 % 1012,3 hPa 0,0 l/m 11,0 km/h (2 Bft) W-SW 240 0 min 0,000 mm 0,0 UV-I 0 W/m 15,1 C 21,1 C 17,7 km/h (3 Bft) 97,87 %
29.07.2018 02:00 22,5 C 26,1 C 21,7 C 63 % 1012,3 hPa 0,0 l/m 9,2 km/h (2 Bft) W-SW 246 0 min 0,076 mm 0,0 UV-I 0 W/m 15,1 C 21,6 C 14,5 km/h (3 Bft) 97,87 %
29.07.2018 02:02 22,5 C 26,1 C 21,7 C 63 % 1012,4 hPa 0,0 l/m 10,7 km/h (2 Bft) SW 223 0 min 0,000 mm 0,0 UV-I 0 W/m 15,1 C 21,2 C 17,7 km/h (3 Bft) 97,87 %
29.07.2018 02:04 22,5 C 26,1 C 21,7 C 63 % 1012,4 hPa 0,0 l/m 13,9 km/h (3 Bft) W-SW 242 0 min 0,000 mm 0,0 UV-I 0 W/m 15,1 C 20,5 C 19,3 km/h (3 Bft) 97,87 %
29.07.2018 02:06 22,6 C 26,1 C 21,7 C 63 % 1012,4 hPa 0,0 l/m 12,2 km/h (2 Bft) W-SW 252 0 min 0,000 mm 0,0 UV-I 0 W/m 15,2 C 21,0 C 20,9 km/h (4 Bft) 97,87 %
29.07.2018 02:08 22,6 C 26,1 C 21,7 C 63 % 1012,4 hPa 0,0 l/m 12,2 km/h (2 Bft) W-SW 237 0 min 0,000 mm 0,0 UV-I 0 W/m 15,2 C 21,0 C 16,1 km/h (3 Bft) 95,74 %
29.07.2018 02:10 22,6 C 26,1 C 21,7 C 63 % 1012,4 hPa 0,0 l/m 10,9 km/h (2 Bft) SW 236 0 min 0,000 mm 0,0 UV-I 0 W/m 15,2 C 21,3 C 16,1 km/h (3 Bft) 98,00 %
29.07.2018 02:12 22,6 C 26,1 C 21,7 C 63 % 1012,4 hPa 0,0 l/m 11,6 km/h (2 Bft) S-SW 202 0 min 0,000 mm 0,0 UV-I 0 W/m 15,2 C 21,1 C 17,7 km/h (3 Bft) 97,87 %
29.07.2018 02:14 22,7 C 26,1 C 21,7 C 63 % 1012,4 hPa 0,0 l/m 12,1 km/h (2 Bft) W-SW 245 0 min 0,000 mm 0,0 UV-I 0 W/m 15,3 C 21,1 C 16,1 km/h (3 Bft) 92,68 %
29.07.2018 02:16 22,7 C 26,1 C 21,7 C 63 % 1012,5 hPa 0,0 l/m 10,4 km/h (2 Bft) W-SW 247 0 min 0,000 mm 0,0 UV-I 0 W/m 15,3 C 21,5 C 14,5 km/h (3 Bft) 94,00 %
29.07.2018 02:18 22,7 C 26,1 C 22,2 C 63 % 1012,4 hPa 0,0 l/m 10,9 km/h (2 Bft) W 261 0 min 0,000 mm 0,0 UV-I 0 W/m 15,3 C 21,4 C 17,7 km/h (3 Bft) 100,00 %
29.07.2018 02:20 22,7 C 26,1 C 22,2 C 63 % 1012,4 hPa 0,0 l/m 11,7 km/h (2 Bft) W-SW 257 0 min 0,000 mm 0,0 UV-I 0 W/m 15,3 C 21,2 C 16,1 km/h (3 Bft) 97,87 %
29.07.2018 02:22 22,7 C 26,1 C 22,2 C 63 % 1012,4 hPa 0,0 l/m 11,6 km/h (2 Bft) W-SW 254 0 min 0,000 mm 0,0 UV-I 0 W/m 15,3 C 21,2 C 19,3 km/h (3 Bft) 97,87 %
29.07.2018 02:24 22,7 C 26,1 C 21,7 C 63 % 1012,5 hPa 0,0 l/m 11,2 km/h (2 Bft) W-SW 241 0 min 0,000 mm 0,0 UV-I 0 W/m 15,3 C 21,3 C 16,1 km/h (3 Bft) 97,87 %
29.07.2018 02:26 22,7 C 26,1 C 21,7 C 63 % 1012,4 hPa 0,0 l/m 11,4 km/h (2 Bft) W-SW 244 0 min 0,000 mm 0,0 UV-I 0 W/m 15,3 C 21,3 C 16,1 km/h (3 Bft) 97,44 %
29.07.2018 02:28 22,7 C 26,1 C 21,7 C 63 % 1012,5 hPa 0,0 l/m 11,3 km/h (2 Bft) W-SW 242 0 min 0,000 mm 0,0 UV-I 0 W/m 15,3 C 21,3 C 17,7 km/h (3 Bft) 100,00 %
29.07.2018 02:30 22,7 C 26,1 C 21,7 C 63 % 1012,4 hPa 0,0 l/m 12,6 km/h (3 Bft) SW 219 0 min 0,000 mm 0,0 UV-I 0 W/m 15,3 C 21,0 C 17,7 km/h (3 Bft) 100,00 %
29.07.2018 02:32 22,7 C 26,1 C 21,7 C 63 % 1012,4 hPa 0,0 l/m 12,3 km/h (3 Bft) SW 234 0 min 0,000 mm 0,0 UV-I 0 W/m 15,3 C 21,1 C 19,3 km/h (3 Bft) 100,00 %
29.07.2018 02:34 22,7 C 26,1 C 21,7 C 63 % 1012,4 hPa 0,0 l/m 12,8 km/h (3 Bft) SW 228 0 min 0,000 mm 0,0 UV-I 0 W/m 15,3 C 21,0 C 19,3 km/h (3 Bft) 100,00 %
29.07.2018 02:36 22,7 C 26,1 C 21,7 C 63 % 1012,5 hPa 0,0 l/m 12,6 km/h (3 Bft) SW 236 0 min 0,000 mm 0,0 UV-I 0 W/m 15,3 C 21,0 C 17,7 km/h (3 Bft) 97,87 %
29.07.2018 02:38 22,7 C 26,1 C 22,2 C 63 % 1012,5 hPa 0,0 l/m 13,3 km/h (3 Bft) SW 227 0 min 0,000 mm 0,0 UV-I 0 W/m 15,3 C 20,9 C 20,9 km/h (4 Bft) 98,00 %
29.07.2018 02:40 22,7 C 26,1 C 22,2 C 63 % 1012,5 hPa 0,0 l/m 13,6 km/h (3 Bft) SW 228 0 min 0,000 mm 0,0 UV-I 0 W/m 15,3 C 20,8 C 20,9 km/h (4 Bft) 97,87 %
29.07.2018 02:42 22,7 C 26,1 C 22,2 C 63 % 1012,6 hPa 0,0 l/m 12,7 km/h (3 Bft) SW 233 0 min 0,000 mm 0,0 UV-I 0 W/m 15,3 C 21,0 C 19,3 km/h (3 Bft) 100,00 %
29.07.2018 02:44 22,7 C 26,1 C 22,2 C 63 % 1012,5 hPa 0,0 l/m 14,2 km/h (3 Bft) SW 225 0 min 0,000 mm 0,0 UV-I 0 W/m 15,3 C 20,7 C 17,7 km/h (3 Bft) 100,00 %
29.07.2018 02:46 22,7 C 26,1 C 22,2 C 63 % 1012,5 hPa 0,0 l/m 13,6 km/h (3 Bft) W-SW 255 0 min 0,000 mm 0,0 UV-I 0 W/m 15,3 C 20,8 C 20,9 km/h (4 Bft) 98,00 %
29.07.2018 02:48 22,7 C 26,1 C 22,2 C 63 % 1012,5 hPa 0,0 l/m 12,6 km/h (3 Bft) W 265 0 min 0,000 mm 0,0 UV-I 0 W/m 15,3 C 21,0 C 17,7 km/h (3 Bft) 97,87 %
29.07.2018 02:50 22,7 C 26,1 C 22,2 C 63 % 1012,6 hPa 0,0 l/m 14,7 km/h (3 Bft) W 262 0 min 0,000 mm 0,0 UV-I 0 W/m 15,3 C 20,6 C 22,5 km/h (4 Bft) 100,00 %
29.07.2018 02:52 22,8 C 26,1 C 22,2 C 62 % 1012,5 hPa 0,0 l/m 13,0 km/h (3 Bft) W-SW 238 0 min 0,000 mm 0,0 UV-I 0 W/m 15,1 C 21,0 C 19,3 km/h (3 Bft) 100,00 %
29.07.2018 02:54 22,7 C 26,1 C 22,2 C 62 % 1012,5 hPa 0,0 l/m 12,2 km/h (2 Bft) W-SW 248 0 min 0,000 mm 0,0 UV-I 0 W/m 15,0 C 21,1 C 19,3 km/h (3 Bft) 97,87 %
29.07.2018 02:56 22,7 C 26,1 C 22,2 C 62 % 1012,5 hPa 0,0 l/m 11,0 km/h (2 Bft) W-SW 238 0 min 0,000 mm 0,0 UV-I 0 W/m 15,0 C 21,4 C 16,1 km/h (3 Bft) 97,96 %
29.07.2018 02:58 22,7 C 26,1 C 22,2 C 63 % 1012,6 hPa 0,0 l/m 10,8 km/h (2 Bft) SW 226 0 min 0,000 mm 0,0 UV-I 0 W/m 15,3 C 21,4 C 14,5 km/h (3 Bft) 98,00 %
29.07.2018 03:00 22,7 C 26,1 C 22,2 C 63 % 1012,6 hPa 0,0 l/m 12,5 km/h (3 Bft) W-SW 242 0 min 0,076 mm 0,0 UV-I 0 W/m 15,3 C 21,0 C 17,7 km/h (3 Bft) 97,87 %
29.07.2018 03:02 22,7 C 26,1 C 22,2 C 63 % 1012,6 hPa 0,0 l/m 12,0 km/h (2 Bft) W-SW 256 0 min 0,000 mm 0,0 UV-I 0 W/m 15,3 C 21,1 C 19,3 km/h (3 Bft) 97,14 %
29.07.2018 03:04 22,6 C 26,1 C 22,2 C 63 % 1012,5 hPa 0,0 l/m 11,6 km/h (2 Bft) SW 228 0 min 0,000 mm 0,0 UV-I 0 W/m 15,2 C 21,1 C 20,9 km/h (4 Bft) 97,87 %
29.07.2018 03:06 22,6 C 26,1 C 21,7 C 63 % 1012,6 hPa 0,0 l/m 11,1 km/h (2 Bft) W-SW 242 0 min 0,000 mm 0,0 UV-I 0 W/m 15,2 C 21,2 C 14,5 km/h (3 Bft) 97,92 %
29.07.2018 03:08 22,6 C 26,1 C 21,7 C 63 % 1012,6 hPa 0,0 l/m 12,5 km/h (3 Bft) SW 225 0 min 0,000 mm 0,0 UV-I 0 W/m 15,2 C 20,9 C 17,7 km/h (3 Bft) 95,74 %
29.07.2018 03:10 22,6 C 26,1 C 21,7 C 63 % 1012,5 hPa 0,0 l/m 11,7 km/h (2 Bft) W-SW 248 0 min 0,000 mm 0,0 UV-I 0 W/m 15,2 C 21,1 C 17,7 km/h (3 Bft) 98,00 %
29.07.2018 03:12 22,6 C 26,1 C 21,7 C 63 % 1012,5 hPa 0,0 l/m 15,4 km/h (3 Bft) SW 224 0 min 0,000 mm 0,0 UV-I 0 W/m 15,2 C 20,3 C 22,5 km/h (4 Bft) 97,87 %
29.07.2018 03:14 22,5 C 26,1 C 21,7 C 63 % 1012,5 hPa 0,0 l/m 11,9 km/h (2 Bft) W-SW 247 0 min 0,000 mm 0,0 UV-I 0 W/m 15,1 C 20,9 C 17,7 km/h (3 Bft) 95,74 %
29.07.2018 03:16 22,4 C 26,1 C 21,7 C 63 % 1012,6 hPa 0,0 l/m 13,5 km/h (3 Bft) W-SW 244 0 min 0,000 mm 0,0 UV-I 0 W/m 15,0 C 20,5 C 20,9 km/h (4 Bft) 95,74 %
29.07.2018 03:18 22,4 C 26,1 C 21,7 C 63 % 1012,5 hPa 0,0 l/m 14,8 km/h (3 Bft) W-SW 237 0 min 0,000 mm 0,0 UV-I 0 W/m 15,0 C 20,2 C 22,5 km/h (4 Bft) 95,74 %
29.07.2018 03:20 22,4 C 26,1 C 21,7 C 63 % 1012,5 hPa 0,0 l/m 13,6 km/h (3 Bft) SW 234 0 min 0,000 mm 0,0 UV-I 0 W/m 15,0 C 20,4 C 19,3 km/h (3 Bft) 97,87 %
29.07.2018 03:22 22,4 C 26,1 C 21,7 C 63 % 1012,4 hPa 0,0 l/m 13,1 km/h (3 Bft) SW 233 0 min 0,000 mm 0,0 UV-I 0 W/m 15,0 C 20,5 C 17,7 km/h (3 Bft) 96,23 %
29.07.2018 03:24 22,4 C 26,1 C 21,7 C 64 % 1012,4 hPa 0,0 l/m 14,7 km/h (3 Bft) W-SW 240 0 min 0,000 mm 0,0 UV-I 0 W/m 15,2 C 20,2 C 24,1 km/h (4 Bft) 97,14 %
29.07.2018 03:26 22,3 C 26,1 C 21,7 C 64 % 1012,5 hPa 0,0 l/m 12,4 km/h (3 Bft) W-SW 246 0 min 0,000 mm 0,0 UV-I 0 W/m 15,2 C 20,6 C 17,7 km/h (3 Bft) 94,00 %
29.07.2018 03:28 22,3 C 26,1 C 21,7 C 64 % 1012,5 hPa 0,0 l/m 15,0 km/h (3 Bft) SW 227 0 min 0,000 mm 0,0 UV-I 0 W/m 15,2 C 20,0 C 22,5 km/h (4 Bft) 93,62 %
29.07.2018 03:30 22,3 C 26,1 C 21,1 C 64 % 1012,5 hPa 0,0 l/m 14,7 km/h (3 Bft) W 261 0 min 0,000 mm 0,0 UV-I 0 W/m 15,2 C 20,1 C 19,3 km/h (3 Bft) 98,11 %
29.07.2018 03:32 22,2 C 26,1 C 21,1 C 64 % 1012,5 hPa 0,0 l/m 15,9 km/h (3 Bft) W-SW 248 0 min 0,000 mm 0,0 UV-I 0 W/m 15,1 C 19,7 C 22,5 km/h (4 Bft) 97,87 %
29.07.2018 03:34 22,2 C 26,1 C 21,1 C 65 % 1012,5 hPa 0,0 l/m 12,1 km/h (2 Bft) W-SW 240 0 min 0,000 mm 0,0 UV-I 0 W/m 15,3 C 20,5 C 19,3 km/h (3 Bft) 97,37 %
29.07.2018 03:36 22,1 C 26,1 C 21,1 C 65 % 1012,5 hPa 0,0 l/m 15,2 km/h (3 Bft) SW 232 0 min 0,000 mm 0,0 UV-I 0 W/m 15,2 C 19,8 C 24,1 km/h (4 Bft) 97,87 %
29.07.2018 03:38 22,1 C 26,1 C 21,1 C 65 % 1012,5 hPa 0,0 l/m 16,2 km/h (3 Bft) W-SW 244 0 min 0,000 mm 0,0 UV-I 0 W/m 15,2 C 19,6 C 22,5 km/h (4 Bft) 97,87 %
29.07.2018 03:40 22,1 C 26,1 C 21,1 C 65 % 1012,5 hPa 0,0 l/m 16,1 km/h (3 Bft) W 260 0 min 0,000 mm 0,0 UV-I 0 W/m 15,2 C 19,6 C 20,9 km/h (4 Bft) 95,74 %
29.07.2018 03:42 22,1 C 26,1 C 21,1 C 66 % 1012,5 hPa 0,0 l/m 13,0 km/h (3 Bft) W-SW 253 0 min 0,000 mm 0,0 UV-I 0 W/m 15,4 C 20,2 C 19,3 km/h (3 Bft) 98,00 %
29.07.2018 03:44 22,0 C 26,1 C 21,1 C 65 % 1012,4 hPa 0,0 l/m 13,8 km/h (3 Bft) W-SW 242 0 min 0,000 mm 0,0 UV-I 0 W/m 15,1 C 19,9 C 20,9 km/h (4 Bft) 95,83 %
29.07.2018 03:46 22,0 C 26,1 C 21,1 C 65 % 1012,5 hPa 0,0 l/m 12,7 km/h (3 Bft) SW 235 0 min 0,000 mm 0,0 UV-I 0 W/m 15,1 C 20,2 C 22,5 km/h (4 Bft) 97,87 %
29.07.2018 03:48 22,0 C 26,1 C 21,1 C 66 % 1012,6 hPa 0,0 l/m 13,5 km/h (3 Bft) W-SW 241 0 min 0,000 mm 0,0 UV-I 0 W/m 15,3 C 20,0 C 22,5 km/h (4 Bft) 98,00 %
29.07.2018 03:50 22,1 C 26,1 C 21,1 C 65 % 1012,5 hPa 0,0 l/m 15,5 km/h (3 Bft) SW 219 0 min 0,000 mm 0,0 UV-I 0 W/m 15,2 C 19,7 C 20,9 km/h (4 Bft) 98,00 %
29.07.2018 03:52 22,1 C 26,1 C 21,1 C 65 % 1012,4 hPa 0,0 l/m 14,1 km/h (3 Bft) SW 229 0 min 0,000 mm 0,0 UV-I 0 W/m 15,2 C 20,0 C 20,9 km/h (4 Bft) 100,00 %
29.07.2018 03:54 22,1 C 26,1 C 21,1 C 65 % 1012,5 hPa 0,0 l/m 15,0 km/h (3 Bft) S-SW 208 0 min 0,000 mm 0,0 UV-I 0 W/m 15,2 C 19,8 C 20,9 km/h (4 Bft) 100,00 %
29.07.2018 03:56 22,1 C 26,1 C 21,1 C 65 % 1012,5 hPa 0,0 l/m 17,7 km/h (3 Bft) W-SW 238 0 min 0,000 mm 0,0 UV-I 0 W/m 15,2 C 19,3 C 25,7 km/h (4 Bft) 95,74 %
29.07.2018 03:58 22,1 C 26,1 C 21,1 C 66 % 1012,5 hPa 0,0 l/m 14,7 km/h (3 Bft) SW 223 0 min 0,000 mm 0,0 UV-I 0 W/m 15,4 C 19,9 C 24,1 km/h (4 Bft) 97,87 %
29.07.2018 04:00 22,1 C 26,1 C 21,1 C 65 % 1012,4 hPa 0,0 l/m 14,4 km/h (3 Bft) W-SW 246 0 min 0,076 mm 0,0 UV-I 0 W/m 15,2 C 19,9 C 22,5 km/h (4 Bft) 95,92 %
29.07.2018 04:02 22,1 C 26,1 C 21,1 C 65 % 1012,4 hPa 0,0 l/m 15,9 km/h (3 Bft) W-SW 248 0 min 0,000 mm 0,0 UV-I 0 W/m 15,2 C 19,6 C 20,9 km/h (4 Bft) 96,88 %
29.07.2018 04:04 22,1 C 26,1 C 21,1 C 65 % 1012,5 hPa 0,0 l/m 16,1 km/h (3 Bft) W-SW 250 0 min 0,000 mm 0,0 UV-I 0 W/m 15,2 C 19,6 C 24,1 km/h (4 Bft) 100,00 %
29.07.2018 04:06 22,1 C 26,1 C 21,1 C 65 % 1012,5 hPa 0,0 l/m 12,3 km/h (3 Bft) W 265 0 min 0,000 mm 0,0 UV-I 0 W/m 15,2 C 20,4 C 17,7 km/h (3 Bft) 100,00 %
29.07.2018 04:08 22,2 C 26,1 C 21,1 C 65 % 1012,5 hPa 0,0 l/m 18,2 km/h (3 Bft) W 265 0 min 0,000 mm 0,0 UV-I 0 W/m 15,3 C 19,3 C 24,1 km/h (4 Bft) 97,96 %
29.07.2018 04:10 22,2 C 26,1 C 21,1 C 65 % 1012,5 hPa 0,0 l/m 14,3 km/h (3 Bft) W 273 0 min 0,000 mm 0,0 UV-I 0 W/m 15,3 C 20,1 C 20,9 km/h (4 Bft) 100,00 %
29.07.2018 04:12 22,2 C 26,1 C 21,1 C 65 % 1012,5 hPa 0,0 l/m 14,8 km/h (3 Bft) W-SW 250 0 min 0,000 mm 0,0 UV-I 0 W/m 15,3 C 20,0 C 19,3 km/h (3 Bft) 100,00 %
29.07.2018 04:14 22,2 C 26,1 C 21,1 C 65 % 1012,4 hPa 0,0 l/m 13,6 km/h (3 Bft) W-SW 247 0 min 0,000 mm 0,0 UV-I 0 W/m 15,3 C 20,2 C 20,9 km/h (4 Bft) 100,00 %
29.07.2018 04:16 22,2 C 26,1 C 21,1 C 65 % 1012,5 hPa 0,0 l/m 16,0 km/h (3 Bft) SW 234 0 min 0,000 mm 0,0 UV-I 0 W/m 15,3 C 19,7 C 20,9 km/h (4 Bft) 100,00 %
29.07.2018 04:18 22,2 C 26,1 C 21,1 C 65 % 1012,5 hPa 0,0 l/m 14,1 km/h (3 Bft) SW 236 0 min 0,000 mm 0,0 UV-I 0 W/m 15,3 C 20,1 C 20,9 km/h (4 Bft) 100,00 %
29.07.2018 04:20 22,2 C 26,1 C 21,1 C 65 % 1012,4 hPa 0,0 l/m 18,6 km/h (3 Bft) W-SW 240 0 min 0,000 mm 0,0 UV-I 0 W/m 15,3 C 19,3 C 29,0 km/h (5 Bft) 100,00 %
29.07.2018 04:22 22,2 C 26,1 C 21,1 C 65 % 1012,4 hPa 0,0 l/m 15,6 km/h (3 Bft) W 268 0 min 0,000 mm 0,0 UV-I 0 W/m 15,3 C 19,8 C 22,5 km/h (4 Bft) 96,00 %
29.07.2018 04:24 22,1 C 26,1 C 21,1 C 65 % 1012,5 hPa 0,0 l/m 13,7 km/h (3 Bft) W-SW 258 0 min 0,000 mm 0,0 UV-I 0 W/m 15,2 C 20,1 C 19,3 km/h (3 Bft) 95,74 %
29.07.2018 04:26 22,1 C 26,1 C 21,1 C 66 % 1012,4 hPa 0,0 l/m 15,3 km/h (3 Bft) W-SW 253 0 min 0,000 mm 0,0 UV-I 0 W/m 15,4 C 19,7 C 24,1 km/h (4 Bft) 93,75 %
29.07.2018 04:28 22,1 C 26,1 C 21,1 C 66 % 1012,5 hPa 0,0 l/m 14,2 km/h (3 Bft) SW 235 0 min 0,000 mm 0,0 UV-I 0 W/m 15,4 C 20,0 C 22,5 km/h (4 Bft) 96,00 %
29.07.2018 04:30 22,0 C 26,1 C 21,1 C 66 % 1012,5 hPa 0,0 l/m 13,4 km/h (3 Bft) SW 227 0 min 0,000 mm 0,0 UV-I 0 W/m 15,3 C 20,0 C 20,9 km/h (4 Bft) 94,74 %
29.07.2018 04:32 22,0 C 26,1 C 21,1 C 66 % 1012,5 hPa 0,0 l/m 15,8 km/h (3 Bft) W-SW 242 0 min 0,000 mm 0,0 UV-I 0 W/m 15,3 C 19,5 C 22,5 km/h (4 Bft) 98,00 %
29.07.2018 04:34 22,0 C 26,1 C 21,1 C 66 % 1012,5 hPa 0,0 l/m 16,0 km/h (3 Bft) W-SW 250 0 min 0,000 mm 0,0 UV-I 0 W/m 15,3 C 19,5 C 24,1 km/h (4 Bft) 98,00 %
29.07.2018 04:36 22,1 C 26,1 C 21,1 C 65 % 1012,5 hPa 0,0 l/m 16,3 km/h (3 Bft) W-SW 246 0 min 0,000 mm 0,0 UV-I 0 W/m 15,2 C 19,5 C 25,7 km/h (4 Bft) 97,96 %
29.07.2018 04:38 22,1 C 26,1 C 21,1 C 66 % 1012,5 hPa 0,0 l/m 14,8 km/h (3 Bft) W 261 0 min 0,000 mm 0,0 UV-I 0 W/m 15,4 C 19,8 C 20,9 km/h (4 Bft) 97,87 %
29.07.2018 04:40 22,1 C 26,1 C 21,1 C 65 % 1012,5 hPa 0,0 l/m 11,6 km/h (2 Bft) W 265 0 min 0,000 mm 0,0 UV-I 0 W/m 15,2 C 20,5 C 19,3 km/h (3 Bft) 97,87 %
29.07.2018 04:42 22,0 C 26,1 C 21,1 C 65 % 1012,5 hPa 0,0 l/m 13,2 km/h (3 Bft) W-SW 253 0 min 0,000 mm 0,0 UV-I 0 W/m 15,1 C 20,1 C 17,7 km/h (3 Bft) 97,87 %
29.07.2018 04:44 22,0 C 26,1 C 21,1 C 65 % 1012,5 hPa 0,0 l/m 13,7 km/h (3 Bft) W-SW 246 0 min 0,000 mm 0,0 UV-I 0 W/m 15,1 C 19,9 C 19,3 km/h (3 Bft) 95,74 %
29.07.2018 04:46 21,9 C 26,1 C 21,1 C 66 % 1012,5 hPa 0,0 l/m 14,8 km/h (3 Bft) W-SW 253 0 min 0,000 mm 0,0 UV-I 0 W/m 15,3 C 19,6 C 24,1 km/h (4 Bft) 95,74 %
29.07.2018 04:48 21,9 C 26,1 C 21,1 C 66 % 1012,6 hPa 0,0 l/m 12,2 km/h (2 Bft) W 264 0 min 0,000 mm 0,0 UV-I 0 W/m 15,3 C 20,2 C 20,9 km/h (4 Bft) 93,62 %
29.07.2018 04:50 21,9 C 26,1 C 21,1 C 66 % 1012,5 hPa 0,0 l/m 10,9 km/h (2 Bft) SW 234 0 min 0,000 mm 0,0 UV-I 0 W/m 15,3 C 20,5 C 17,7 km/h (3 Bft) 97,14 %
29.07.2018 04:52 21,9 C 26,1 C 21,1 C 66 % 1012,5 hPa 0,0 l/m 13,0 km/h (3 Bft) W-SW 248 0 min 0,000 mm 0,0 UV-I 0 W/m 15,3 C 20,0 C 19,3 km/h (3 Bft) 95,74 %
29.07.2018 04:54 21,9 C 26,1 C 21,1 C 66 % 1012,6 hPa 0,0 l/m 14,7 km/h (3 Bft) W 267 0 min 0,000 mm 0,0 UV-I 0 W/m 15,3 C 19,6 C 22,5 km/h (4 Bft) 95,74 %
29.07.2018 04:56 21,9 C 26,1 C 21,1 C 66 % 1012,6 hPa 0,0 l/m 15,0 km/h (3 Bft) W 276 0 min 0,000 mm 0,0 UV-I 0 W/m 15,3 C 19,6 C 22,5 km/h (4 Bft) 95,83 %
29.07.2018 04:58 21,9 C 26,1 C 21,1 C 66 % 1012,6 hPa 0,0 l/m 13,5 km/h (3 Bft) W-SW 252 0 min 0,000 mm 0,0 UV-I 0 W/m 15,3 C 19,9 C 20,9 km/h (4 Bft) 93,88 %
29.07.2018 05:00 21,9 C 26,1 C 21,1 C 66 % 1012,7 hPa 0,0 l/m 14,6 km/h (3 Bft) W 263 0 min 0,077 mm 0,0 UV-I 0 W/m 15,3 C 19,6 C 20,9 km/h (4 Bft) 91,67 %
29.07.2018 05:02 21,9 C 26,1 C 21,1 C 66 % 1012,7 hPa 0,0 l/m 13,5 km/h (3 Bft) W-SW 246 0 min 0,000 mm 0,0 UV-I 0 W/m 15,3 C 19,9 C 20,9 km/h (4 Bft) 93,62 %
29.07.2018 05:04 21,9 C 26,1 C 21,1 C 66 % 1012,7 hPa 0,0 l/m 14,4 km/h (3 Bft) W 268 0 min 0,000 mm 0,0 UV-I 0 W/m 15,3 C 19,7 C 25,7 km/h (4 Bft) 93,62 %
29.07.2018 05:06 21,9 C 26,1 C 21,1 C 66 % 1012,8 hPa 0,0 l/m 14,7 km/h (3 Bft) W 271 0 min 0,000 mm 0,0 UV-I 0 W/m 15,3 C 19,6 C 19,3 km/h (3 Bft) 92,00 %
29.07.2018 05:08 21,9 C 26,1 C 20,6 C 66 % 1012,8 hPa 0,0 l/m 13,2 km/h (3 Bft) W 259 0 min 0,000 mm 0,0 UV-I 0 W/m 15,3 C 19,9 C 17,7 km/h (3 Bft) 94,29 %
29.07.2018 05:10 21,8 C 26,1 C 20,6 C 66 % 1012,9 hPa 0,0 l/m 12,3 km/h (3 Bft) W-SW 257 0 min 0,000 mm 0,0 UV-I 0 W/m 15,2 C 20,0 C 17,7 km/h (3 Bft) 91,94 %
29.07.2018 05:12 21,8 C 26,1 C 20,6 C 66 % 1012,8 hPa 0,0 l/m 13,1 km/h (3 Bft) W-SW 258 0 min 0,000 mm 0,0 UV-I 0 W/m 15,2 C 19,8 C 17,7 km/h (3 Bft) 93,62 %
29.07.2018 05:14 21,8 C 26,1 C 20,6 C 67 % 1012,8 hPa 0,0 l/m 12,2 km/h (2 Bft) W 277 0 min 0,000 mm 0,0 UV-I 0 W/m 15,4 C 20,1 C 19,3 km/h (3 Bft) 91,49 %
29.07.2018 05:16 21,8 C 26,1 C 20,6 C 67 % 1012,8 hPa 0,0 l/m 10,3 km/h (2 Bft) W 268 0 min 0,000 mm 0,0 UV-I 0 W/m 15,4 C 20,5 C 14,5 km/h (3 Bft) 89,47 %
29.07.2018 05:18 21,7 C 26,1 C 20,6 C 67 % 1012,9 hPa 0,0 l/m 13,3 km/h (3 Bft) W-SW 258 0 min 0,000 mm 0,0 UV-I 2 W/m 15,3 C 19,7 C 17,7 km/h (3 Bft) 93,62 %
29.07.2018 05:20 21,7 C 26,1 C 20,6 C 67 % 1012,9 hPa 0,0 l/m 13,5 km/h (3 Bft) W-SW 258 0 min 0,000 mm 0,0 UV-I 5 W/m 15,3 C 19,6 C 17,7 km/h (3 Bft) 91,49 %
29.07.2018 05:22 21,7 C 26,1 C 20,6 C 67 % 1013,0 hPa 0,0 l/m 13,1 km/h (3 Bft) W 267 0 min 0,000 mm 0,0 UV-I 6 W/m 15,3 C 19,7 C 17,7 km/h (3 Bft) 94,00 %
29.07.2018 05:24 21,7 C 26,1 C 20,6 C 67 % 1013,0 hPa 0,0 l/m 14,2 km/h (3 Bft) W 278 0 min 0,000 mm 0,0 UV-I 7 W/m 15,3 C 19,5 C 20,9 km/h (4 Bft) 93,62 %
29.07.2018 05:26 21,7 C 26,1 C 20,6 C 67 % 1013,0 hPa 0,0 l/m 11,8 km/h (2 Bft) W-SW 256 0 min 0,000 mm 0,0 UV-I 7 W/m 15,3 C 20,0 C 16,1 km/h (3 Bft) 97,87 %
29.07.2018 05:28 21,6 C 26,1 C 20,6 C 68 % 1013,0 hPa 0,0 l/m 12,0 km/h (2 Bft) W 263 0 min 0,000 mm 0,0 UV-I 7 W/m 15,4 C 19,9 C 16,1 km/h (3 Bft) 100,00 %
29.07.2018 05:30 21,6 C 26,1 C 20,6 C 67 % 1013,0 hPa 0,0 l/m 11,7 km/h (2 Bft) W 267 0 min 0,000 mm 0,0 UV-I 7 W/m 15,2 C 19,9 C 14,5 km/h (3 Bft) 100,00 %
29.07.2018 05:32 21,6 C 25,6 C 20,6 C 68 % 1013,0 hPa 0,0 l/m 12,8 km/h (3 Bft) W 269 0 min 0,000 mm 0,0 UV-I 7 W/m 15,4 C 19,7 C 17,7 km/h (3 Bft) 93,62 %
29.07.2018 05:34 21,5 C 25,6 C 20,6 C 68 % 1013,0 hPa 0,0 l/m 12,8 km/h (3 Bft) W 276 0 min 0,000 mm 0,0 UV-I 10 W/m 15,3 C 19,6 C 17,7 km/h (3 Bft) 97,87 %
29.07.2018 05:36 21,5 C 25,6 C 20,6 C 68 % 1013,0 hPa 0,0 l/m 11,4 km/h (2 Bft) W-SW 254 0 min 0,000 mm 0,0 UV-I 11 W/m 15,3 C 19,9 C 17,7 km/h (3 Bft) 97,56 %
29.07.2018 05:38 21,4 C 25,6 C 20,6 C 68 % 1013,1 hPa 0,0 l/m 12,5 km/h (3 Bft) W 271 0 min 0,000 mm 0,0 UV-I 12 W/m 15,2 C 19,5 C 17,7 km/h (3 Bft) 100,00 %
29.07.2018 05:40 21,4 C 25,6 C 20,6 C 68 % 1013,1 hPa 0,0 l/m 13,2 km/h (3 Bft) W-SW 244 0 min 0,000 mm 0,0 UV-I 14 W/m 15,2 C 19,3 C 17,7 km/h (3 Bft) 100,00 %
29.07.2018 05:42 21,4 C 25,6 C 20,6 C 68 % 1013,1 hPa 0,0 l/m 13,5 km/h (3 Bft) W-SW 242 0 min 0,000 mm 0,0 UV-I 14 W/m 15,2 C 19,3 C 22,5 km/h (4 Bft) 100,00 %
29.07.2018 05:44 21,4 C 25,6 C 20,6 C 68 % 1013,1 hPa 0,0 l/m 12,6 km/h (3 Bft) W-SW 246 0 min 0,000 mm 0,0 UV-I 14 W/m 15,2 C 19,5 C 17,7 km/h (3 Bft) 100,00 %
29.07.2018 05:46 21,4 C 25,6 C 20,6 C 68 % 1013,2 hPa 0,0 l/m 11,6 km/h (2 Bft) SW 223 0 min 0,000 mm 0,0 UV-I 16 W/m 15,2 C 19,7 C 17,7 km/h (3 Bft) 97,87 %
29.07.2018 05:48 21,4 C 25,6 C 20,6 C 69 % 1013,2 hPa 0,0 l/m 12,6 km/h (3 Bft) W 271 2 min 0,000 mm 0,0 UV-I 21 W/m 15,5 C 19,5 C 17,7 km/h (3 Bft) 100,00 %
29.07.2018 05:50 21,4 C 25,6 C 20,6 C 69 % 1013,2 hPa 0,0 l/m 11,0 km/h (2 Bft) W 263 2 min 0,000 mm 0,0 UV-I 26 W/m 15,5 C 19,9 C 14,5 km/h (3 Bft) 97,87 %
29.07.2018 05:52 21,4 C 25,6 C 20,6 C 69 % 1013,2 hPa 0,0 l/m 12,9 km/h (3 Bft) W-SW 245 2 min 0,000 mm 0,0 UV-I 29 W/m 15,5 C 19,4 C 17,7 km/h (3 Bft) 97,50 %
29.07.2018 05:54 21,4 C 25,6 C 20,6 C 69 % 1013,2 hPa 0,0 l/m 12,7 km/h (3 Bft) W-SW 245 2 min 0,000 mm 0,0 UV-I 32 W/m 15,5 C 19,5 C 19,3 km/h (3 Bft) 100,00 %
29.07.2018 05:56 21,3 C 25,6 C 20,6 C 70 % 1013,3 hPa 0,0 l/m 10,6 km/h (2 Bft) W-SW 257 2 min 0,000 mm 0,0 UV-I 36 W/m 15,6 C 19,9 C 16,1 km/h (3 Bft) 97,87 %
29.07.2018 05:58 21,3 C 25,6 C 20,6 C 69 % 1013,3 hPa 0,0 l/m 12,4 km/h (3 Bft) W 260 2 min 0,000 mm 0,0 UV-I 40 W/m 15,4 C 19,4 C 19,3 km/h (3 Bft) 100,00 %
29.07.2018 06:00 21,3 C 25,6 C 21,1 C 70 % 1013,4 hPa 0,0 l/m 9,7 km/h (2 Bft) W 269 2 min 0,076 mm 0,0 UV-I 43 W/m 15,6 C 20,2 C 17,7 km/h (3 Bft) 100,00 %
29.07.2018 06:02 21,4 C 25,6 C 21,1 C 70 % 1013,4 hPa 0,0 l/m 11,1 km/h (2 Bft) W-NW 294 2 min 0,000 mm 0,0 UV-I 44 W/m 15,7 C 19,9 C 19,3 km/h (3 Bft) 100,00 %
29.07.2018 06:04 21,4 C 25,6 C 21,1 C 70 % 1013,4 hPa 0,0 l/m 9,3 km/h (2 Bft) W-SW 256 2 min 0,000 mm 0,0 UV-I 50 W/m 15,7 C 20,4 C 14,5 km/h (3 Bft) 100,00 %
29.07.2018 06:06 21,4 C 25,6 C 21,1 C 70 % 1013,4 hPa 0,0 l/m 13,7 km/h (3 Bft) W-SW 253 2 min 0,000 mm 0,0 UV-I 50 W/m 15,7 C 19,2 C 20,9 km/h (4 Bft) 100,00 %
29.07.2018 06:08 21,4 C 25,6 C 21,1 C 70 % 1013,4 hPa 0,0 l/m 10,0 km/h (2 Bft) W 267 2 min 0,000 mm 0,0 UV-I 46 W/m 15,7 C 20,2 C 14,5 km/h (3 Bft) 100,00 %
29.07.2018 06:10 21,4 C 25,6 C 21,1 C 69 % 1013,4 hPa 0,0 l/m 11,0 km/h (2 Bft) SW 223 2 min 0,000 mm 0,0 UV-I 42 W/m 15,5 C 19,9 C 14,5 km/h (3 Bft) 100,00 %
29.07.2018 06:12 21,5 C 25,6 C 21,1 C 69 % 1013,4 hPa 0,0 l/m 9,7 km/h (2 Bft) W-SW 244 0 min 0,000 mm 0,0 UV-I 40 W/m 15,6 C 20,4 C 16,1 km/h (3 Bft) 97,87 %
29.07.2018 06:14 21,5 C 25,6 C 21,1 C 70 % 1013,4 hPa 0,0 l/m 7,0 km/h (2 Bft) W 270 0 min 0,000 mm 0,0 UV-I 41 W/m 15,8 C 21,3 C 14,5 km/h (3 Bft) 97,87 %
29.07.2018 06:16 21,4 C 25,6 C 21,1 C 70 % 1013,5 hPa 0,0 l/m 8,8 km/h (2 Bft) W-SW 245 0 min 0,000 mm 0,0 UV-I 43 W/m 15,7 C 20,6 C 14,5 km/h (3 Bft) 100,00 %
29.07.2018 06:18 21,4 C 25,6 C 21,1 C 70 % 1013,6 hPa 0,0 l/m 11,6 km/h (2 Bft) W-SW 246 0 min 0,000 mm 0,0 UV-I 45 W/m 15,7 C 19,7 C 17,7 km/h (3 Bft) 100,00 %
29.07.2018 06:20 21,4 C 25,6 C 21,1 C 70 % 1013,6 hPa 0,0 l/m 11,6 km/h (2 Bft) W-SW 239 0 min 0,000 mm 0,0 UV-I 46 W/m 15,7 C 19,7 C 16,1 km/h (3 Bft) 100,00 %
29.07.2018 06:22 21,4 C 25,6 C 21,1 C 71 % 1013,5 hPa 0,0 l/m 10,1 km/h (2 Bft) W-SW 254 0 min 0,000 mm 0,0 UV-I 46 W/m 15,9 C 20,2 C 12,9 km/h (3 Bft) 97,96 %
29.07.2018 06:24 21,3 C 25,6 C 21,1 C 71 % 1013,6 hPa 0,0 l/m 10,2 km/h (2 Bft) W-SW 246 0 min 0,000 mm 0,0 UV-I 52 W/m 15,8 C 20,0 C 17,7 km/h (3 Bft) 100,00 %
29.07.2018 06:26 21,3 C 25,6 C 21,1 C 71 % 1013,7 hPa 0,0 l/m 11,2 km/h (2 Bft) W-SW 246 0 min 0,000 mm 0,0 UV-I 56 W/m 15,8 C 19,7 C 19,3 km/h (3 Bft) 97,87 %
29.07.2018 06:28 21,3 C 25,6 C 21,1 C 71 % 1013,6 hPa 0,0 l/m 10,4 km/h (2 Bft) W-SW 240 0 min 0,000 mm 0,0 UV-I 65 W/m 15,8 C 20,0 C 16,1 km/h (3 Bft) 95,74 %
29.07.2018 06:30 21,3 C 25,6 C 21,1 C 72 % 1013,7 hPa 0,0 l/m 13,7 km/h (3 Bft) W-SW 252 0 min 0,000 mm 0,0 UV-I 69 W/m 16,0 C 19,1 C 17,7 km/h (3 Bft) 95,74 %
29.07.2018 06:32 21,3 C 25,6 C 21,1 C 72 % 1013,7 hPa 0,0 l/m 11,2 km/h (2 Bft) W 259 0 min 0,000 mm 0,0 UV-I 63 W/m 16,0 C 19,7 C 17,7 km/h (3 Bft) 98,00 %
29.07.2018 06:34 21,3 C 25,6 C 21,1 C 72 % 1013,7 hPa 0,0 l/m 11,5 km/h (2 Bft) W-SW 241 0 min 0,000 mm 0,0 UV-I 61 W/m 16,0 C 19,7 C 17,7 km/h (3 Bft) 95,74 %
29.07.2018 06:36 21,3 C 25,6 C 21,1 C 72 % 1013,7 hPa 0,0 l/m 8,4 km/h (2 Bft) SW 223 0 min 0,000 mm 0,0 UV-I 56 W/m 16,0 C 20,6 C 12,9 km/h (3 Bft) 97,14 %
29.07.2018 06:38 21,3 C 25,6 C 21,1 C 72 % 1013,8 hPa 0,0 l/m 7,2 km/h (2 Bft) W 268 0 min 0,000 mm 0,0 UV-I 56 W/m 16,0 C 21,0 C 11,3 km/h (2 Bft) 98,00 %
29.07.2018 06:40 21,3 C 25,6 C 21,1 C 72 % 1013,7 hPa 0,0 l/m 9,3 km/h (2 Bft) W-SW 255 0 min 0,000 mm 0,0 UV-I 59 W/m 16,0 C 20,3 C 14,5 km/h (3 Bft) 97,87 %
29.07.2018 06:42 21,3 C 25,6 C 21,1 C 72 % 1013,8 hPa 0,0 l/m 7,3 km/h (2 Bft) W-SW 246 0 min 0,000 mm 0,0 UV-I 62 W/m 16,0 C 21,0 C 12,9 km/h (3 Bft) 97,87 %
29.07.2018 06:44 21,3 C 25,6 C 21,1 C 72 % 1013,8 hPa 0,0 l/m 8,7 km/h (2 Bft) W-SW 248 0 min 0,000 mm 0,0 UV-I 65 W/m 16,0 C 20,5 C 12,9 km/h (3 Bft) 98,00 %
29.07.2018 06:46 21,3 C 25,6 C 21,1 C 72 % 1013,8 hPa 0,0 l/m 7,8 km/h (2 Bft) W-SW 249 0 min 0,000 mm 0,0 UV-I 69 W/m 16,0 C 20,8 C 12,9 km/h (3 Bft) 98,00 %
29.07.2018 06:48 21,3 C 25,6 C 21,1 C 72 % 1013,9 hPa 0,0 l/m 8,7 km/h (2 Bft) W 281 0 min 0,000 mm 0,0 UV-I 73 W/m 16,0 C 20,5 C 12,9 km/h (3 Bft) 97,22 %
29.07.2018 06:50 21,3 C 25,6 C 21,7 C 73 % 1013,9 hPa 0,0 l/m 6,9 km/h (2 Bft) SW 234 0 min 0,000 mm 0,0 UV-I 77 W/m 16,3 C 21,1 C 12,9 km/h (3 Bft) 96,00 %
29.07.2018 06:52 21,3 C 25,6 C 21,7 C 73 % 1013,9 hPa 0,0 l/m 6,8 km/h (2 Bft) W-SW 249 0 min 0,000 mm 0,0 UV-I 80 W/m 16,3 C 21,2 C 11,3 km/h (2 Bft) 97,87 %
29.07.2018 06:54 21,3 C 25,6 C 21,7 C 73 % 1013,9 hPa 0,0 l/m 5,8 km/h (2 Bft) W-SW 238 0 min 0,000 mm 0,0 UV-I 86 W/m 16,3 C 21,3 C 8,0 km/h (2 Bft) 96,00 %
29.07.2018 06:56 21,3 C 25,6 C 21,7 C 73 % 1014,0 hPa 0,0 l/m 9,1 km/h (2 Bft) SW 214 0 min 0,000 mm 0,0 UV-I 93 W/m 16,3 C 20,4 C 14,5 km/h (3 Bft) 95,92 %
29.07.2018 06:58 21,3 C 25,6 C 21,7 C 73 % 1014,0 hPa 0,0 l/m 5,2 km/h (1 Bft) W-SW 252 0 min 0,000 mm 0,0 UV-I 99 W/m 16,3 C 21,3 C 8,0 km/h (2 Bft) 96,00 %
29.07.2018 07:00 21,4 C 25,6 C 22,2 C 73 % 1014,0 hPa 0,0 l/m 6,3 km/h (2 Bft) W-SW 258 0 min 0,076 mm 0,0 UV-I 108 W/m 16,4 C 21,4 C 9,7 km/h (2 Bft) 97,87 %
29.07.2018 07:02 21,4 C 25,6 C 22,2 C 74 % 1014,0 hPa 0,0 l/m 5,0 km/h (1 Bft) SW 226 0 min 0,000 mm 0,0 UV-I 111 W/m 16,6 C 21,4 C 8,0 km/h (2 Bft) 93,62 %
29.07.2018 07:04 21,4 C 25,6 C 22,2 C 73 % 1013,9 hPa 0,0 l/m 6,2 km/h (2 Bft) W-SW 258 0 min 0,000 mm 0,0 UV-I 110 W/m 16,4 C 21,4 C 8,0 km/h (2 Bft) 97,37 %
29.07.2018 07:06 21,4 C 25,6 C 22,2 C 73 % 1014,0 hPa 0,0 l/m 6,1 km/h (2 Bft) W 267 0 min 0,000 mm 0,0 UV-I 110 W/m 16,4 C 21,4 C 9,7 km/h (2 Bft) 97,87 %
29.07.2018 07:08 21,5 C 25,6 C 22,2 C 73 % 1014,0 hPa 0,0 l/m 5,8 km/h (2 Bft) W-SW 257 0 min 0,000 mm 0,0 UV-I 115 W/m 16,4 C 21,5 C 11,3 km/h (2 Bft) 96,00 %
29.07.2018 07:10 21,6 C 25,6 C 22,8 C 73 % 1014,0 hPa 0,0 l/m 6,4 km/h (2 Bft) W-SW 245 0 min 0,000 mm 0,0 UV-I 121 W/m 16,5 C 21,6 C 12,9 km/h (3 Bft) 97,87 %
29.07.2018 07:12 21,6 C 25,6 C 22,8 C 73 % 1014,0 hPa 0,0 l/m 6,0 km/h (2 Bft) W-SW 248 0 min 0,000 mm 0,0 UV-I 125 W/m 16,5 C 21,6 C 8,0 km/h (2 Bft) 97,87 %
29.07.2018 07:14 21,7 C 25,6 C 22,8 C 73 % 1014,0 hPa 0,0 l/m 6,5 km/h (2 Bft) W 261 0 min 0,000 mm 0,0 UV-I 124 W/m 16,6 C 21,7 C 11,3 km/h (2 Bft) 97,87 %
29.07.2018 07:16 21,7 C 25,6 C 22,8 C 73 % 1014,0 hPa 0,0 l/m 8,0 km/h (2 Bft) SW 227 0 min 0,000 mm 0,0 UV-I 127 W/m 16,6 C 21,1 C 14,5 km/h (3 Bft) 97,87 %
29.07.2018 07:18 21,7 C 25,6 C 22,8 C 73 % 1014,0 hPa 0,0 l/m 8,9 km/h (2 Bft) W 263 0 min 0,000 mm 0,0 UV-I 127 W/m 16,6 C 20,8 C 12,9 km/h (3 Bft) 97,87 %
29.07.2018 07:20 21,8 C 25,6 C 22,8 C 73 % 1014,1 hPa 0,0 l/m 8,2 km/h (2 Bft) W 260 0 min 0,000 mm 0,0 UV-I 122 W/m 16,7 C 21,2 C 12,9 km/h (3 Bft) 97,87 %
29.07.2018 07:22 21,8 C 25,6 C 22,8 C 73 % 1014,1 hPa 0,0 l/m 10,1 km/h (2 Bft) W-SW 253 0 min 0,000 mm 0,0 UV-I 118 W/m 16,7 C 20,6 C 14,5 km/h (3 Bft) 95,74 %
29.07.2018 07:24 21,8 C 25,6 C 22,8 C 73 % 1014,0 hPa 0,0 l/m 11,5 km/h (2 Bft) W 264 0 min 0,000 mm 0,0 UV-I 109 W/m 16,7 C 20,2 C 17,7 km/h (3 Bft) 100,00 %
29.07.2018 07:26 21,8 C 25,6 C 22,8 C 74 % 1014,1 hPa 0,0 l/m 10,4 km/h (2 Bft) W-SW 246 0 min 0,000 mm 0,0 UV-I 104 W/m 17,0 C 20,5 C 16,1 km/h (3 Bft) 95,74 %
29.07.2018 07:28 21,8 C 25,6 C 22,8 C 73 % 1014,1 hPa 0,0 l/m 8,9 km/h (2 Bft) W-NW 291 0 min 0,000 mm 0,0 UV-I 100 W/m 16,7 C 21,0 C 14,5 km/h (3 Bft) 96,00 %
29.07.2018 07:30 21,8 C 25,6 C 22,8 C 74 % 1014,1 hPa 0,0 l/m 9,3 km/h (2 Bft) SW 222 0 min 0,000 mm 0,0 UV-I 102 W/m 17,0 C 20,8 C 14,5 km/h (3 Bft) 100,00 %
29.07.2018 07:32 21,8 C 25,6 C 22,8 C 74 % 1014,1 hPa 0,0 l/m 8,6 km/h (2 Bft) W-SW 237 0 min 0,000 mm 0,0 UV-I 106 W/m 17,0 C 21,0 C 12,9 km/h (3 Bft) 100,00 %
29.07.2018 07:34 21,8 C 25,6 C 22,8 C 74 % 1014,1 hPa 0,0 l/m 8,8 km/h (2 Bft) W-SW 238 0 min 0,000 mm 0,0 UV-I 110 W/m 17,0 C 21,0 C 12,9 km/h (3 Bft) 100,00 %
29.07.2018 07:36 21,8 C 25,6 C 22,8 C 75 % 1014,1 hPa 0,0 l/m 9,9 km/h (2 Bft) SW 223 0 min 0,000 mm 0,0 UV-I 114 W/m 17,2 C 20,7 C 16,1 km/h (3 Bft) 95,74 %
29.07.2018 07:38 21,8 C 25,6 C 22,8 C 75 % 1014,1 hPa 0,0 l/m 7,2 km/h (2 Bft) W-SW 249 0 min 0,000 mm 0,0 UV-I 116 W/m 17,2 C 21,5 C 12,9 km/h (3 Bft) 100,00 %
29.07.2018 07:40 21,8 C 25,6 C 22,8 C 75 % 1014,1 hPa 0,0 l/m 9,2 km/h (2 Bft) W 259 0 min 0,000 mm 0,0 UV-I 119 W/m 17,2 C 20,9 C 17,7 km/h (3 Bft) 100,00 %
29.07.2018 07:42 21,8 C 25,6 C 22,8 C 75 % 1014,1 hPa 0,0 l/m 9,9 km/h (2 Bft) W-SW 250 0 min 0,000 mm 0,0 UV-I 121 W/m 17,2 C 20,7 C 16,1 km/h (3 Bft) 100,00 %
29.07.2018 07:44 21,8 C 25,6 C 22,8 C 75 % 1014,1 hPa 0,0 l/m 11,5 km/h (2 Bft) SW 218 0 min 0,000 mm 0,0 UV-I 119 W/m 17,2 C 20,2 C 16,1 km/h (3 Bft) 100,00 %
29.07.2018 07:46 21,8 C 25,6 C 22,8 C 75 % 1014,1 hPa 0,0 l/m 11,0 km/h (2 Bft) SW 236 0 min 0,000 mm 0,0 UV-I 114 W/m 17,2 C 20,4 C 19,3 km/h (3 Bft) 100,00 %
29.07.2018 07:48 21,8 C 25,6 C 22,8 C 75 % 1014,1 hPa 0,0 l/m 10,2 km/h (2 Bft) W-SW 254 0 min 0,000 mm 0,0 UV-I 109 W/m 17,2 C 20,6 C 16,1 km/h (3 Bft) 100,00 %
29.07.2018 07:50 21,8 C 25,6 C 22,8 C 75 % 1014,1 hPa 0,0 l/m 7,1 km/h (2 Bft) SW 222 0 min 0,000 mm 0,0 UV-I 106 W/m 17,2 C 21,6 C 9,7 km/h (2 Bft) 97,87 %
29.07.2018 07:52 21,8 C 25,6 C 22,8 C 76 % 1014,1 hPa 0,0 l/m 7,4 km/h (2 Bft) SW 215 0 min 0,000 mm 0,0 UV-I 104 W/m 17,4 C 21,4 C 11,3 km/h (2 Bft) 100,00 %
29.07.2018 07:54 21,8 C 25,6 C 22,8 C 75 % 1014,2 hPa 0,0 l/m 9,7 km/h (2 Bft) SW 229 0 min 0,000 mm 0,0 UV-I 103 W/m 17,2 C 20,7 C 14,5 km/h (3 Bft) 97,87 %
29.07.2018 07:56 21,8 C 25,6 C 22,8 C 75 % 1014,2 hPa 0,0 l/m 7,9 km/h (2 Bft) W-SW 247 0 min 0,000 mm 0,1 UV-I 106 W/m 17,2 C 21,3 C 12,9 km/h (3 Bft) 97,87 %
29.07.2018 07:58 21,8 C 25,6 C 22,8 C 75 % 1014,2 hPa 0,0 l/m 6,5 km/h (2 Bft) S-SW 212 0 min 0,000 mm 0,5 UV-I 110 W/m 17,2 C 21,8 C 12,9 km/h (3 Bft) 97,87 %
29.07.2018 08:00 21,8 C 25,6 C 22,8 C 75 % 1014,2 hPa 0,0 l/m 8,6 km/h (2 Bft) S-SW 209 0 min 0,102 mm 0,5 UV-I 112 W/m 17,2 C 21,0 C 14,5 km/h (3 Bft) 95,74 %
29.07.2018 08:02 21,8 C 25,6 C 22,8 C 75 % 1014,2 hPa 0,0 l/m 10,7 km/h (2 Bft) W-SW 237 0 min 0,000 mm 0,5 UV-I 113 W/m 17,2 C 20,4 C 19,3 km/h (3 Bft) 97,87 %
29.07.2018 08:04 21,8 C 25,6 C 22,8 C 75 % 1014,2 hPa 0,0 l/m 11,6 km/h (2 Bft) W-SW 237 0 min 0,000 mm 0,5 UV-I 113 W/m 17,2 C 20,2 C 17,7 km/h (3 Bft) 97,87 %
29.07.2018 08:06 21,8 C 25,6 C 22,8 C 74 % 1014,2 hPa 0,0 l/m 10,7 km/h (2 Bft) SW 216 0 min 0,000 mm 0,5 UV-I 112 W/m 17,0 C 20,4 C 16,1 km/h (3 Bft) 97,87 %
29.07.2018 08:08 21,8 C 25,6 C 22,8 C 75 % 1014,2 hPa 0,0 l/m 10,0 km/h (2 Bft) SW 234 0 min 0,000 mm 0,5 UV-I 116 W/m 17,2 C 20,6 C 16,1 km/h (3 Bft) 97,87 %
29.07.2018 08:10 21,8 C 25,6 C 22,8 C 74 % 1014,2 hPa 0,0 l/m 7,5 km/h (2 Bft) W-SW 255 0 min 0,000 mm 0,5 UV-I 120 W/m 17,0 C 21,4 C 12,9 km/h (3 Bft) 97,92 %
29.07.2018 08:12 21,8 C 25,6 C 22,8 C 75 % 1014,2 hPa 0,0 l/m 7,7 km/h (2 Bft) SW 223 0 min 0,000 mm 0,6 UV-I 123 W/m 17,2 C 21,3 C 11,3 km/h (2 Bft) 97,87 %
29.07.2018 08:14 21,8 C 25,6 C 23,3 C 74 % 1014,2 hPa 0,0 l/m 10,6 km/h (2 Bft) W-SW 252 0 min 0,000 mm 0,6 UV-I 130 W/m 17,0 C 20,5 C 16,1 km/h (3 Bft) 97,87 %
29.07.2018 08:16 21,8 C 25,6 C 23,3 C 74 % 1014,2 hPa 0,0 l/m 10,0 km/h (2 Bft) W-SW 237 0 min 0,000 mm 0,6 UV-I 142 W/m 17,0 C 20,6 C 16,1 km/h (3 Bft) 95,74 %
29.07.2018 08:18 21,8 C 25,6 C 23,3 C 74 % 1014,3 hPa 0,0 l/m 11,2 km/h (2 Bft) SW 222 0 min 0,000 mm 0,6 UV-I 151 W/m 17,0 C 20,3 C 17,7 km/h (3 Bft) 97,87 %
29.07.2018 08:20 21,9 C 25,6 C 23,3 C 74 % 1014,2 hPa 0,0 l/m 11,2 km/h (2 Bft) S-SW 207 0 min 0,000 mm 0,7 UV-I 159 W/m 17,0 C 20,4 C 17,7 km/h (3 Bft) 93,62 %
29.07.2018 08:22 21,9 C 25,6 C 23,3 C 74 % 1014,2 hPa 0,0 l/m 7,2 km/h (2 Bft) W-SW 241 0 min 0,000 mm 0,7 UV-I 166 W/m 17,0 C 21,6 C 12,9 km/h (3 Bft) 95,74 %
29.07.2018 08:24 22,0 C 25,6 C 23,9 C 75 % 1014,2 hPa 0,0 l/m 6,7 km/h (2 Bft) W-SW 246 0 min 0,000 mm 0,7 UV-I 172 W/m 17,4 C 21,9 C 14,5 km/h (3 Bft) 100,00 %
29.07.2018 08:26 22,1 C 25,6 C 23,9 C 74 % 1014,3 hPa 0,0 l/m 9,8 km/h (2 Bft) SW 227 0 min 0,000 mm 0,8 UV-I 184 W/m 17,2 C 21,0 C 14,5 km/h (3 Bft) 96,00 %
29.07.2018 08:28 22,1 C 25,6 C 23,9 C 73 % 1014,3 hPa 0,0 l/m 9,3 km/h (2 Bft) SW 234 0 min 0,000 mm 0,8 UV-I 180 W/m 17,0 C 21,2 C 14,5 km/h (3 Bft) 97,87 %
29.07.2018 08:30 22,1 C 25,6 C 23,9 C 73 % 1014,3 hPa 0,0 l/m 10,2 km/h (2 Bft) SW 233 0 min 0,000 mm 0,8 UV-I 172 W/m 17,0 C 20,9 C 16,1 km/h (3 Bft) 95,74 %
29.07.2018 08:32 22,1 C 25,6 C 23,9 C 73 % 1014,3 hPa 0,0 l/m 11,1 km/h (2 Bft) SW 234 0 min 0,000 mm 0,8 UV-I 164 W/m 17,0 C 20,7 C 17,7 km/h (3 Bft) 97,87 %
29.07.2018 08:34 22,2 C 25,6 C 23,9 C 73 % 1014,3 hPa 0,0 l/m 9,2 km/h (2 Bft) W-SW 243 0 min 0,000 mm 0,8 UV-I 159 W/m 17,1 C 21,3 C 16,1 km/h (3 Bft) 97,87 %
29.07.2018 08:36 22,2 C 25,6 C 23,9 C 73 % 1014,4 hPa 0,0 l/m 8,9 km/h (2 Bft) SW 225 0 min 0,000 mm 0,8 UV-I 161 W/m 17,1 C 21,4 C 16,1 km/h (3 Bft) 97,87 %
29.07.2018 08:38 22,2 C 25,6 C 23,9 C 73 % 1014,3 hPa 0,0 l/m 5,6 km/h (1 Bft) W-SW 257 0 min 0,000 mm 0,8 UV-I 161 W/m 17,1 C 22,2 C 9,7 km/h (2 Bft) 98,00 %
29.07.2018 08:40 22,3 C 25,6 C 23,9 C 74 % 1014,4 hPa 0,0 l/m 6,9 km/h (2 Bft) SW 234 0 min 0,000 mm 0,8 UV-I 160 W/m 17,4 C 22,1 C 11,3 km/h (2 Bft) 95,74 %
29.07.2018 08:42 22,3 C 25,6 C 23,9 C 73 % 1014,4 hPa 0,0 l/m 7,2 km/h (2 Bft) W-SW 250 0 min 0,000 mm 0,8 UV-I 167 W/m 17,2 C 22,0 C 11,3 km/h (2 Bft) 97,87 %
29.07.2018 08:44 22,3 C 25,6 C 23,9 C 72 % 1014,4 hPa 0,0 l/m 8,5 km/h (2 Bft) SW 232 0 min 0,000 mm 0,9 UV-I 176 W/m 17,0 C 21,6 C 11,3 km/h (2 Bft) 95,74 %
29.07.2018 08:46 22,3 C 25,6 C 24,4 C 72 % 1014,4 hPa 0,0 l/m 8,3 km/h (2 Bft) SW 219 0 min 0,000 mm 0,9 UV-I 183 W/m 17,0 C 21,7 C 14,5 km/h (3 Bft) 95,74 %
29.07.2018 08:48 22,3 C 25,6 C 24,4 C 73 % 1014,5 hPa 0,0 l/m 5,9 km/h (2 Bft) SW 214 0 min 0,000 mm 1,0 UV-I 190 W/m 17,2 C 22,3 C 9,7 km/h (2 Bft) 97,22 %
29.07.2018 08:50 22,4 C 25,6 C 24,4 C 72 % 1014,5 hPa 0,0 l/m 10,5 km/h (2 Bft) SW 236 0 min 0,000 mm 1,0 UV-I 199 W/m 17,1 C 21,2 C 16,1 km/h (3 Bft) 93,55 %
29.07.2018 08:52 22,4 C 25,6 C 24,4 C 72 % 1014,5 hPa 0,0 l/m 6,5 km/h (2 Bft) SW 217 0 min 0,000 mm 1,0 UV-I 196 W/m 17,1 C 22,4 C 9,7 km/h (2 Bft) 97,56 %
29.07.2018 08:54 22,5 C 25,6 C 25,0 C 71 % 1014,5 hPa 0,0 l/m 6,8 km/h (2 Bft) W-SW 238 0 min 0,000 mm 1,0 UV-I 186 W/m 17,0 C 22,4 C 12,9 km/h (3 Bft) 91,49 %
29.07.2018 08:56 22,6 C 25,6 C 25,0 C 72 % 1014,5 hPa 0,0 l/m 8,3 km/h (2 Bft) W-SW 253 0 min 0,000 mm 1,0 UV-I 181 W/m 17,3 C 22,0 C 14,5 km/h (3 Bft) 93,62 %
29.07.2018 08:58 22,6 C 25,6 C 24,4 C 70 % 1014,6 hPa 0,0 l/m 10,5 km/h (2 Bft) W-SW 249 0 min 0,000 mm 1,0 UV-I 182 W/m 16,8 C 21,4 C 16,1 km/h (3 Bft) 95,74 %
29.07.2018 09:00 22,6 C 25,6 C 24,4 C 70 % 1014,5 hPa 0,0 l/m 7,6 km/h (2 Bft) W-SW 252 0 min 0,127 mm 1,0 UV-I 184 W/m 16,8 C 22,2 C 12,9 km/h (3 Bft) 93,62 %
29.07.2018 09:02 22,6 C 25,6 C 24,4 C 70 % 1014,5 hPa 0,0 l/m 9,7 km/h (2 Bft) SW 236 0 min 0,000 mm 1,0 UV-I 188 W/m 16,8 C 21,6 C 17,7 km/h (3 Bft) 95,74 %
29.07.2018 09:04 22,7 C 25,6 C 24,4 C 70 % 1014,5 hPa 0,0 l/m 9,3 km/h (2 Bft) S-SW 211 0 min 0,000 mm 1,1 UV-I 201 W/m 16,9 C 21,8 C 14,5 km/h (3 Bft) 95,74 %
29.07.2018 09:06 22,7 C 25,6 C 25,0 C 70 % 1014,5 hPa 0,0 l/m 9,1 km/h (2 Bft) SW 235 0 min 0,000 mm 1,1 UV-I 214 W/m 16,9 C 21,9 C 14,5 km/h (3 Bft) 95,12 %
29.07.2018 09:08 22,8 C 25,6 C 25,0 C 71 % 1014,5 hPa 0,0 l/m 6,8 km/h (2 Bft) S-SW 213 0 min 0,000 mm 1,1 UV-I 222 W/m 17,3 C 22,7 C 11,3 km/h (2 Bft) 95,74 %
29.07.2018 09:10 22,8 C 25,6 C 25,0 C 70 % 1014,6 hPa 0,0 l/m 10,1 km/h (2 Bft) SW 226 0 min 0,000 mm 1,2 UV-I 224 W/m 17,0 C 21,7 C 12,9 km/h (3 Bft) 93,62 %
29.07.2018 09:12 22,8 C 25,6 C 25,6 C 70 % 1014,5 hPa 0,0 l/m 8,7 km/h (2 Bft) S-SW 194 0 min 0,000 mm 1,2 UV-I 223 W/m 17,0 C 22,1 C 17,7 km/h (3 Bft) 94,00 %
29.07.2018 09:14 22,9 C 25,6 C 25,6 C 70 % 1014,5 hPa 0,0 l/m 10,1 km/h (2 Bft) W-SW 248 0 min 0,000 mm 1,2 UV-I 226 W/m 17,1 C 21,8 C 14,5 km/h (3 Bft) 95,74 %
29.07.2018 09:16 22,9 C 25,6 C 25,6 C 69 % 1014,6 hPa 0,0 l/m 9,6 km/h (2 Bft) S-SW 212 0 min 0,000 mm 1,2 UV-I 230 W/m 16,9 C 21,9 C 12,9 km/h (3 Bft) 91,49 %
29.07.2018 09:18 22,9 C 25,6 C 25,6 C 69 % 1014,6 hPa 0,0 l/m 11,9 km/h (2 Bft) SW 221 0 min 0,000 mm 1,2 UV-I 233 W/m 16,9 C 21,4 C 19,3 km/h (3 Bft) 96,23 %
29.07.2018 09:20 22,9 C 25,6 C 25,6 C 69 % 1014,6 hPa 0,0 l/m 10,1 km/h (2 Bft) W 259 0 min 0,000 mm 1,2 UV-I 234 W/m 16,9 C 21,8 C 16,1 km/h (3 Bft) 91,49 %
29.07.2018 09:22 22,9 C 25,6 C 25,6 C 70 % 1014,6 hPa 0,0 l/m 9,6 km/h (2 Bft) W 273 0 min 0,000 mm 1,2 UV-I 233 W/m 17,1 C 21,9 C 16,1 km/h (3 Bft) 97,87 %
29.07.2018 09:24 23,0 C 25,6 C 25,6 C 69 % 1014,5 hPa 0,0 l/m 9,9 km/h (2 Bft) W-SW 254 0 min 0,000 mm 1,2 UV-I 232 W/m 17,0 C 22,0 C 14,5 km/h (3 Bft) 95,74 %
29.07.2018 09:26 22,9 C 25,6 C 25,6 C 69 % 1014,6 hPa 0,0 l/m 9,8 km/h (2 Bft) SW 220 0 min 0,000 mm 1,3 UV-I 233 W/m 16,9 C 21,9 C 16,1 km/h (3 Bft) 93,75 %
29.07.2018 09:28 23,0 C 25,6 C 25,6 C 70 % 1014,5 hPa 0,0 l/m 5,9 km/h (2 Bft) W-SW 243 0 min 0,000 mm 1,3 UV-I 235 W/m 17,2 C 23,0 C 9,7 km/h (2 Bft) 97,87 %
29.07.2018 09:30 23,1 C 25,6 C 25,6 C 71 % 1014,5 hPa 0,0 l/m 5,4 km/h (1 Bft) SW 233 0 min 0,000 mm 1,3 UV-I 236 W/m 17,5 C 23,1 C 9,7 km/h (2 Bft) 94,74 %
29.07.2018 09:32 23,2 C 25,6 C 25,6 C 69 % 1014,6 hPa 0,0 l/m 5,6 km/h (1 Bft) SW 232 0 min 0,000 mm 1,3 UV-I 240 W/m 17,2 C 23,2 C 8,0 km/h (2 Bft) 96,00 %
29.07.2018 09:34 23,2 C 25,6 C 25,6 C 69 % 1014,6 hPa 0,0 l/m 6,9 km/h (2 Bft) W-SW 257 0 min 0,000 mm 1,3 UV-I 248 W/m 17,2 C 23,0 C 12,9 km/h (3 Bft) 97,87 %
29.07.2018 09:36 23,2 C 25,6 C 25,6 C 69 % 1014,6 hPa 0,0 l/m 7,1 km/h (2 Bft) S-SW 207 0 min 0,000 mm 1,4 UV-I 258 W/m 17,2 C 23,0 C 12,9 km/h (3 Bft) 97,87 %
29.07.2018 09:38 23,2 C 25,6 C 25,6 C 68 % 1014,6 hPa 0,0 l/m 6,3 km/h (2 Bft) W-SW 253 0 min 0,000 mm 1,4 UV-I 264 W/m 17,0 C 23,2 C 12,9 km/h (3 Bft) 95,74 %
29.07.2018 09:40 23,2 C 25,6 C 26,1 C 69 % 1014,6 hPa 0,0 l/m 6,8 km/h (2 Bft) SW 223 0 min 0,000 mm 1,5 UV-I 271 W/m 17,2 C 23,1 C 11,3 km/h (2 Bft) 100,00 %
29.07.2018 09:42 23,2 C 25,6 C 26,1 C 68 % 1014,6 hPa 0,0 l/m 8,7 km/h (2 Bft) SW 216 0 min 0,000 mm 1,5 UV-I 277 W/m 17,0 C 22,5 C 12,9 km/h (3 Bft) 95,74 %
29.07.2018 09:44 23,3 C 25,6 C 26,7 C 68 % 1014,7 hPa 0,0 l/m 8,2 km/h (2 Bft) W 267 0 min 0,000 mm 1,5 UV-I 277 W/m 17,1 C 22,8 C 12,9 km/h (3 Bft) 95,74 %
29.07.2018 09:46 23,4 C 25,6 C 26,7 C 68 % 1014,7 hPa 0,0 l/m 7,8 km/h (2 Bft) W 269 0 min 0,000 mm 1,5 UV-I 275 W/m 17,1 C 23,0 C 11,3 km/h (2 Bft) 93,62 %
29.07.2018 09:48 23,4 C 25,6 C 26,7 C 70 % 1014,6 hPa 0,0 l/m 6,2 km/h (2 Bft) W 259 0 min 0,000 mm 1,6 UV-I 277 W/m 17,6 C 23,4 C 11,3 km/h (2 Bft) 95,74 %
29.07.2018 09:50 23,4 C 25,6 C 26,7 C 67 % 1014,7 hPa 0,0 l/m 8,6 km/h (2 Bft) W-SW 254 0 min 0,000 mm 1,6 UV-I 290 W/m 16,9 C 22,8 C 14,5 km/h (3 Bft) 95,74 %
29.07.2018 09:52 23,4 C 25,6 C 26,7 C 67 % 1014,7 hPa 0,0 l/m 7,1 km/h (2 Bft) W-SW 247 0 min 0,000 mm 1,7 UV-I 305 W/m 16,9 C 23,2 C 11,3 km/h (2 Bft) 97,87 %
29.07.2018 09:54 23,4 C 25,6 C 27,2 C 67 % 1014,7 hPa 0,0 l/m 6,7 km/h (2 Bft) SW 220 0 min 0,000 mm 1,8 UV-I 321 W/m 16,9 C 23,3 C 11,3 km/h (2 Bft) 100,00 %
29.07.2018 09:56 23,5 C 25,6 C 27,8 C 67 % 1014,7 hPa 0,0 l/m 7,8 km/h (2 Bft) SW 225 0 min 0,000 mm 1,9 UV-I 338 W/m 17,0 C 23,1 C 11,3 km/h (2 Bft) 97,87 %
29.07.2018 09:58 23,6 C 25,6 C 27,8 C 66 % 1014,6 hPa 0,0 l/m 4,6 km/h (1 Bft) W 269 0 min 0,000 mm 2,0 UV-I 351 W/m 16,9 C 23,6 C 8,0 km/h (2 Bft) 100,00 %
29.07.2018 10:00 23,7 C 25,6 C 28,3 C 66 % 1014,6 hPa 0,0 l/m 6,0 km/h (2 Bft) W 276 0 min 0,203 mm 2,1 UV-I 361 W/m 17,0 C 23,7 C 12,9 km/h (3 Bft) 97,92 %
29.07.2018 10:02 23,7 C 25,6 C 28,3 C 67 % 1014,6 hPa 0,0 l/m 6,1 km/h (2 Bft) SW 228 2 min 0,000 mm 2,2 UV-I 384 W/m 17,2 C 23,7 C 9,7 km/h (2 Bft) 100,00 %
29.07.2018 10:04 23,9 C 25,6 C 30,6 C 67 % 1014,6 hPa 0,0 l/m 9,3 km/h (2 Bft) SW 227 2 min 0,000 mm 2,8 UV-I 548 W/m 17,4 C 23,1 C 14,5 km/h (3 Bft) 100,00 %
29.07.2018 10:06 24,1 C 25,6 C 31,1 C 65 % 1014,7 hPa 0,0 l/m 8,9 km/h (2 Bft) W-NW 283 2 min 0,000 mm 2,7 UV-I 807 W/m 17,1 C 23,4 C 12,9 km/h (3 Bft) 100,00 %
29.07.2018 10:08 24,2 C 25,6 C 31,1 C 65 % 1014,6 hPa 0,0 l/m 5,7 km/h (1 Bft) SW 236 2 min 0,000 mm 2,4 UV-I 417 W/m 17,2 C 24,2 C 11,3 km/h (2 Bft) 100,00 %
29.07.2018 10:10 24,2 C 25,6 C 30,6 C 65 % 1014,6 hPa 0,0 l/m 5,2 km/h (1 Bft) S 184 2 min 0,000 mm 2,4 UV-I 420 W/m 17,2 C 24,2 C 11,3 km/h (2 Bft) 100,00 %
29.07.2018 10:12 24,2 C 25,6 C 30,6 C 65 % 1014,6 hPa 0,0 l/m 7,6 km/h (2 Bft) S-SW 205 2 min 0,000 mm 2,5 UV-I 452 W/m 17,2 C 23,9 C 9,7 km/h (2 Bft) 100,00 %
29.07.2018 10:14 24,1 C 25,6 C 30,6 C 64 % 1014,6 hPa 0,0 l/m 6,4 km/h (2 Bft) SW 233 2 min 0,000 mm 2,7 UV-I 494 W/m 16,9 C 24,1 C 9,7 km/h (2 Bft) 100,00 %
29.07.2018 10:16 24,1 C 25,6 C 30,6 C 65 % 1014,6 hPa 0,0 l/m 6,1 km/h (2 Bft) SW 232 2 min 0,000 mm 2,6 UV-I 427 W/m 17,1 C 24,1 C 9,7 km/h (2 Bft) 100,00 %
29.07.2018 10:18 24,1 C 25,6 C 30,6 C 67 % 1014,6 hPa 0,0 l/m 4,9 km/h (1 Bft) W-SW 238 2 min 0,000 mm 2,6 UV-I 412 W/m 17,6 C 24,1 C 9,7 km/h (2 Bft) 100,00 %
29.07.2018 10:20 24,2 C 25,6 C 31,1 C 66 % 1014,5 hPa 0,0 l/m 7,6 km/h (2 Bft) W-SW 241 2 min 0,000 mm 2,8 UV-I 444 W/m 17,4 C 23,9 C 11,3 km/h (2 Bft) 95,74 %
29.07.2018 10:22 24,4 C 25,6 C 31,7 C 64 % 1014,5 hPa 0,0 l/m 7,6 km/h (2 Bft) W-SW 244 2 min 0,000 mm 3,1 UV-I 582 W/m 17,1 C 24,1 C 14,5 km/h (3 Bft) 94,29 %
29.07.2018 10:24 24,4 C 25,6 C 31,7 C 64 % 1014,5 hPa 0,0 l/m 8,3 km/h (2 Bft) W 266 2 min 0,000 mm 3,2 UV-I 597 W/m 17,1 C 23,9 C 12,9 km/h (3 Bft) 100,00 %
29.07.2018 10:26 24,3 C 25,6 C 31,7 C 64 % 1014,4 hPa 0,0 l/m 4,8 km/h (1 Bft) S-SW 209 2 min 0,000 mm 3,1 UV-I 624 W/m 17,0 C 24,3 C 9,7 km/h (2 Bft) 100,00 %
29.07.2018 10:28 24,3 C 25,6 C 32,2 C 66 % 1014,4 hPa 0,0 l/m 4,1 km/h (1 Bft) SW 234 2 min 0,000 mm 3,1 UV-I 597 W/m 17,5 C 24,3 C 6,4 km/h (2 Bft) 100,00 %
29.07.2018 10:30 24,5 C 25,6 C 32,8 C 64 % 1014,4 hPa 0,0 l/m 8,0 km/h (2 Bft) S 184 2 min 0,000 mm 3,2 UV-I 588 W/m 17,2 C 24,1 C 12,9 km/h (3 Bft) 100,00 %
29.07.2018 10:32 24,4 C 25,6 C 32,8 C 64 % 1014,3 hPa 0,0 l/m 7,4 km/h (2 Bft) S-SW 193 2 min 0,000 mm 3,1 UV-I 547 W/m 17,1 C 24,1 C 12,9 km/h (3 Bft) 100,00 %
29.07.2018 10:34 24,4 C 25,6 C 32,8 C 65 % 1014,4 hPa 0,0 l/m 7,4 km/h (2 Bft) S-SW 207 2 min 0,000 mm 3,1 UV-I 520 W/m 17,4 C 24,1 C 9,7 km/h (2 Bft) 100,00 %
29.07.2018 10:36 24,4 C 25,6 C 31,7 C 64 % 1014,4 hPa 0,0 l/m 10,1 km/h (2 Bft) SW 236 2 min 0,000 mm 3,0 UV-I 495 W/m 17,1 C 23,5 C 14,5 km/h (3 Bft) 100,00 %
29.07.2018 10:38 24,4 C 25,6 C 30,6 C 63 % 1014,4 hPa 0,0 l/m 8,1 km/h (2 Bft) SW 226 2 min 0,000 mm 2,8 UV-I 433 W/m 16,9 C 23,9 C 12,9 km/h (3 Bft) 100,00 %
29.07.2018 10:40 24,4 C 25,6 C 30,6 C 65 % 1014,4 hPa 0,0 l/m 5,5 km/h (1 Bft) SW 227 2 min 0,000 mm 2,9 UV-I 445 W/m 17,4 C 24,4 C 9,7 km/h (2 Bft) 95,74 %
29.07.2018 10:42 24,4 C 25,6 C 31,1 C 65 % 1014,3 hPa 0,0 l/m 5,5 km/h (1 Bft) W-SW 241 2 min 0,000 mm 3,2 UV-I 511 W/m 17,4 C 24,4 C 8,0 km/h (2 Bft) 97,92 %
29.07.2018 10:44 24,5 C 25,6 C 31,7 C 64 % 1014,3 hPa 0,0 l/m 5,6 km/h (1 Bft) SW 217 2 min 0,000 mm 3,3 UV-I 564 W/m 17,2 C 24,5 C 8,0 km/h (2 Bft) 100,00 %
29.07.2018 10:46 24,6 C 25,6 C 32,2 C 64 % 1014,3 hPa 0,0 l/m 6,4 km/h (2 Bft) SW 234 2 min 0,000 mm 3,4 UV-I 518 W/m 17,3 C 24,6 C 12,9 km/h (3 Bft) 95,74 %
29.07.2018 10:48 24,7 C 25,6 C 31,1 C 64 % 1014,4 hPa 0,0 l/m 6,0 km/h (2 Bft) W 265 2 min 0,000 mm 3,3 UV-I 414 W/m 17,4 C 24,7 C 9,7 km/h (2 Bft) 91,49 %
29.07.2018 10:50 24,7 C 25,6 C 31,1 C 64 % 1014,4 hPa 0,0 l/m 6,5 km/h (2 Bft) W 281 0 min 0,000 mm 3,4 UV-I 397 W/m 17,4 C 24,7 C 9,7 km/h (2 Bft) 95,74 %
29.07.2018 10:52 24,6 C 25,6 C 31,1 C 64 % 1014,3 hPa 0,0 l/m 6,5 km/h (2 Bft) W-NW 283 2 min 0,000 mm 3,3 UV-I 504 W/m 17,3 C 24,6 C 9,7 km/h (2 Bft) 96,00 %
29.07.2018 10:54 24,6 C 25,6 C 30,6 C 64 % 1014,3 hPa 0,0 l/m 4,9 km/h (1 Bft) W-SW 246 0 min 0,000 mm 3,0 UV-I 376 W/m 17,3 C 24,6 C 11,3 km/h (2 Bft) 95,74 %
29.07.2018 10:56 24,5 C 25,6 C 30,0 C 63 % 1014,3 hPa 0,0 l/m 6,3 km/h (2 Bft) S-SW 200 0 min 0,000 mm 3,1 UV-I 360 W/m 17,0 C 24,5 C 11,3 km/h (2 Bft) 96,00 %
29.07.2018 10:59 24,4 C 25,6 C 29,4 C 65 % 1014,3 hPa 0,0 l/m 5,5 km/h (1 Bft) S 178 0 min 0,000 mm 3,1 UV-I 378 W/m 17,4 C 24,4 C 9,7 km/h (2 Bft) 95,89 %
29.07.2018 11:00 24,4 C 25,6 C 29,4 C 64 % 1014,3 hPa 0,0 l/m 2,7 km/h (1 Bft) S 178 0 min 0,000 mm 3,0 UV-I 361 W/m 17,1 C 24,4 C 4,8 km/h (1 Bft) 100,00 %
29.07.2018 11:02 24,4 C 25,6 C 30,0 C 65 % 1014,3 hPa 0,0 l/m 0,7 km/h (0 Bft) S 178 0 min 0,330 mm 3,0 UV-I 359 W/m 17,4 C 24,4 C 1,6 km/h (1 Bft) 97,87 %
29.07.2018 11:04 24,6 C 25,6 C 30,0 C 65 % 1014,3 hPa 0,0 l/m 3,9 km/h (1 Bft) W-SW 238 0 min 0,000 mm 3,0 UV-I 374 W/m 17,6 C 24,6 C 6,4 km/h (2 Bft) 95,74 %
29.07.2018 11:06 24,6 C 25,6 C 30,0 C 65 % 1014,2 hPa 0,0 l/m 4,6 km/h (1 Bft) W 280 0 min 0,000 mm 3,1 UV-I 397 W/m 17,6 C 24,6 C 9,7 km/h (2 Bft) 95,74 %
29.07.2018 11:08 24,7 C 25,6 C 30,0 C 65 % 1014,2 hPa 0,0 l/m 5,8 km/h (2 Bft) SW 217 2 min 0,000 mm 3,2 UV-I 443 W/m 17,7 C 24,7 C 9,7 km/h (2 Bft) 95,74 %
29.07.2018 11:10 24,8 C 25,6 C 31,1 C 64 % 1014,2 hPa 0,0 l/m 5,4 km/h (1 Bft) S 182 2 min 0,000 mm 3,5 UV-I 486 W/m 17,5 C 24,8 C 9,7 km/h (2 Bft) 95,74 %
29.07.2018 11:12 25,1 C 25,6 C 32,2 C 65 % 1014,2 hPa 0,0 l/m 4,3 km/h (1 Bft) W-SW 254 2 min 0,000 mm 3,8 UV-I 526 W/m 18,0 C 25,1 C 6,4 km/h (2 Bft) 93,62 %
29.07.2018 11:14 25,2 C 25,6 C 32,2 C 64 % 1014,1 hPa 0,0 l/m 5,0 km/h (1 Bft) W-SW 254 2 min 0,000 mm 3,7 UV-I 531 W/m 17,9 C 25,2 C 9,7 km/h (2 Bft) 97,92 %
29.07.2018 11:16 25,3 C 25,6 C 32,8 C 63 % 1014,1 hPa 0,0 l/m 6,9 km/h (2 Bft) W 259 2 min 0,000 mm 3,8 UV-I 537 W/m 17,7 C 25,2 C 12,9 km/h (3 Bft) 95,74 %
29.07.2018 11:18 25,3 C 25,6 C 32,8 C 63 % 1014,1 hPa 0,0 l/m 5,1 km/h (1 Bft) SW 219 2 min 0,000 mm 3,8 UV-I 520 W/m 17,7 C 25,3 C 9,7 km/h (2 Bft) 95,74 %
29.07.2018 11:20 25,3 C 25,6 C 32,8 C 62 % 1014,1 hPa 0,0 l/m 8,1 km/h (2 Bft) SW 216 2 min 0,000 mm 3,8 UV-I 520 W/m 17,5 C 24,9 C 11,3 km/h (2 Bft) 97,87 %
29.07.2018 11:22 25,3 C 25,6 C 33,3 C 63 % 1014,0 hPa 0,0 l/m 5,2 km/h (1 Bft) SW 220 2 min 0,000 mm 3,9 UV-I 540 W/m 17,7 C 25,3 C 9,7 km/h (2 Bft) 93,62 %
29.07.2018 11:24 25,3 C 25,6 C 33,3 C 62 % 1014,1 hPa 0,0 l/m 6,1 km/h (2 Bft) W-SW 245 2 min 0,000 mm 4,4 UV-I 592 W/m 17,5 C 25,3 C 8,0 km/h (2 Bft) 95,74 %
29.07.2018 11:26 25,4 C 25,6 C 33,9 C 62 % 1014,1 hPa 0,0 l/m 6,0 km/h (2 Bft) SW 227 2 min 0,000 mm 4,5 UV-I 666 W/m 17,6 C 25,4 C 9,7 km/h (2 Bft) 95,74 %
29.07.2018 11:28 25,5 C 25,6 C 35,6 C 62 % 1014,1 hPa 0,0 l/m 5,5 km/h (1 Bft) S-SW 212 2 min 0,000 mm 4,5 UV-I 601 W/m 17,7 C 25,5 C 8,0 km/h (2 Bft) 97,87 %
29.07.2018 11:30 25,6 C 25,6 C 36,7 C 61 % 1014,0 hPa 0,0 l/m 3,1 km/h (1 Bft) W 275 2 min 0,000 mm 4,6 UV-I 647 W/m 17,5 C 25,6 C 4,8 km/h (1 Bft) 97,87 %
29.07.2018 11:32 25,7 C 25,6 C 36,7 C 59 % 1014,0 hPa 0,0 l/m 4,5 km/h (1 Bft) W-SW 252 2 min 0,000 mm 5,0 UV-I 770 W/m 17,1 C 25,7 C 6,4 km/h (2 Bft) 100,00 %
29.07.2018 11:34 25,7 C 25,6 C 36,7 C 60 % 1014,0 hPa 0,0 l/m 3,6 km/h (1 Bft) W-SW 252 2 min 0,000 mm 5,0 UV-I 833 W/m 17,3 C 25,7 C 6,4 km/h (2 Bft) 100,00 %
29.07.2018 11:36 25,6 C 25,6 C 37,2 C 60 % 1014,0 hPa 0,0 l/m 1,4 km/h (1 Bft) W-SW 252 2 min 0,000 mm 4,9 UV-I 751 W/m 17,2 C 25,6 C 3,2 km/h (1 Bft) 100,00 %
29.07.2018 11:38 25,9 C 25,6 C 38,9 C 60 % 1014,0 hPa 0,0 l/m 2,0 km/h (1 Bft) O 94 2 min 0,000 mm 5,5 UV-I 707 W/m 17,5 C 25,9 C 4,8 km/h (1 Bft) 100,00 %
29.07.2018 11:40 26,3 C 26,1 C 40,0 C 61 % 1014,0 hPa 0,0 l/m 2,6 km/h (1 Bft) S-SW 202 2 min 0,000 mm 5,2 UV-I 707 W/m 18,2 C 26,3 C 6,4 km/h (2 Bft) 97,87 %
29.07.2018 11:42 26,2 C 26,1 C 38,9 C 59 % 1014,0 hPa 0,0 l/m 4,4 km/h (1 Bft) S 186 2 min 0,000 mm 4,8 UV-I 684 W/m 17,5 C 26,2 C 8,0 km/h (2 Bft) 97,87 %
29.07.2018 11:44 25,9 C 26,1 C 37,8 C 60 % 1014,0 hPa 0,0 l/m 3,1 km/h (1 Bft) SO 140 2 min 0,000 mm 4,7 UV-I 720 W/m 17,5 C 25,9 C 6,4 km/h (2 Bft) 96,30 %
29.07.2018 11:46 26,1 C 26,1 C 37,2 C 59 % 1013,9 hPa 0,0 l/m 6,0 km/h (2 Bft) S 173 2 min 0,000 mm 4,8 UV-I 721 W/m 17,4 C 26,1 C 9,7 km/h (2 Bft) 100,00 %
29.07.2018 11:48 26,1 C 26,1 C 37,2 C 60 % 1014,0 hPa 0,0 l/m 4,6 km/h (1 Bft) S-SO 156 2 min 0,000 mm 4,8 UV-I 650 W/m 17,7 C 26,1 C 8,0 km/h (2 Bft) 100,00 %
29.07.2018 11:50 26,1 C 26,1 C 36,7 C 58 % 1013,9 hPa 0,0 l/m 6,0 km/h (2 Bft) SO 144 2 min 0,000 mm 4,6 UV-I 608 W/m 17,2 C 26,1 C 8,0 km/h (2 Bft) 100,00 %
29.07.2018 11:52 26,1 C 26,1 C 36,1 C 60 % 1013,9 hPa 0,0 l/m 5,3 km/h (1 Bft) SO 130 2 min 0,000 mm 4,9 UV-I 690 W/m 17,7 C 26,1 C 6,4 km/h (2 Bft) 97,87 %
29.07.2018 11:54 26,1 C 26,1 C 36,7 C 59 % 1013,9 hPa 0,0 l/m 6,7 km/h (2 Bft) SO 143 2 min 0,000 mm 4,8 UV-I 701 W/m 17,4 C 26,0 C 11,3 km/h (2 Bft) 100,00 %
29.07.2018 11:56 25,9 C 26,1 C 36,1 C 58 % 1013,8 hPa 0,0 l/m 6,2 km/h (2 Bft) O-SO 104 2 min 0,000 mm 5,1 UV-I 582 W/m 17,0 C 25,9 C 8,0 km/h (2 Bft) 100,00 %
29.07.2018 11:58 26,1 C 26,1 C 36,7 C 60 % 1013,8 hPa 0,0 l/m 6,1 km/h (2 Bft) O-NO 62 2 min 0,000 mm 5,5 UV-I 650 W/m 17,7 C 26,1 C 8,0 km/h (2 Bft) 100,00 %
29.07.2018 12:00 26,3 C 26,1 C 37,2 C 60 % 1013,8 hPa 0,0 l/m 3,6 km/h (1 Bft) N-NW 344 2 min 0,432 mm 5,0 UV-I 647 W/m 17,9 C 26,3 C 8,0 km/h (2 Bft) 100,00 %
29.07.2018 12:02 26,7 C 26,1 C 38,9 C 58 % 1013,8 hPa 0,0 l/m 3,8 km/h (1 Bft) S-SW 212 2 min 0,000 mm 5,5 UV-I 757 W/m 17,7 C 26,7 C 6,4 km/h (2 Bft) 100,00 %
29.07.2018 12:04 27,0 C 26,1 C 39,4 C 57 % 1013,7 hPa 0,0 l/m 5,7 km/h (1 Bft) SW 232 2 min 0,000 mm 5,6 UV-I 874 W/m 17,7 C 27,0 C 8,0 km/h (2 Bft) 100,00 %
29.07.2018 12:06 26,9 C 26,1 C 38,3 C 58 % 1013,7 hPa 0,0 l/m 6,6 km/h (2 Bft) W 265 2 min 0,000 mm 5,0 UV-I 727 W/m 17,9 C 26,9 C 9,7 km/h (2 Bft) 100,00 %
29.07.2018 12:08 26,6 C 26,1 C 37,8 C 56 % 1013,7 hPa 0,0 l/m 2,8 km/h (1 Bft) W 264 2 min 0,000 mm 5,4 UV-I 587 W/m 17,1 C 26,6 C 4,8 km/h (1 Bft) 100,00 %
29.07.2018 12:10 26,3 C 26,1 C 37,8 C 57 % 1013,7 hPa 0,0 l/m 0,5 km/h (0 Bft) S-SO 168 2 min 0,000 mm 5,3 UV-I 628 W/m 17,1 C 26,3 C 3,2 km/h (1 Bft) 100,00 %
29.07.2018 12:12 26,3 C 26,1 C 39,4 C 57 % 1013,7 hPa 0,0 l/m 3,4 km/h (1 Bft) O-SO 103 2 min 0,000 mm 5,8 UV-I 912 W/m 17,1 C 26,3 C 6,4 km/h (2 Bft) 100,00 %
29.07.2018 12:14 26,3 C 26,1 C 40,0 C 58 % 1013,6 hPa 0,0 l/m 3,3 km/h (1 Bft) O-SO 110 2 min 0,000 mm 5,7 UV-I 857 W/m 17,4 C 26,3 C 6,4 km/h (2 Bft) 97,87 %
29.07.2018 12:16 26,3 C 26,1 C 40,0 C 60 % 1013,6 hPa 0,0 l/m 2,6 km/h (1 Bft) S 183 2 min 0,000 mm 5,7 UV-I 859 W/m 17,9 C 26,3 C 6,4 km/h (2 Bft) 100,00 %
29.07.2018 12:18 26,2 C 26,1 C 40,6 C 58 % 1013,5 hPa 0,0 l/m 4,1 km/h (1 Bft) S 185 2 min 0,000 mm 5,7 UV-I 840 W/m 17,3 C 26,2 C 6,4 km/h (2 Bft) 100,00 %
29.07.2018 12:20 26,3 C 26,1 C 40,6 C 58 % 1013,5 hPa 0,0 l/m 3,2 km/h (1 Bft) S-SW 196 2 min 0,000 mm 5,9 UV-I 868 W/m 17,4 C 26,3 C 4,8 km/h (1 Bft) 97,87 %
29.07.2018 12:22 26,4 C 26,1 C 41,1 C 57 % 1013,5 hPa 0,0 l/m 2,9 km/h (1 Bft) O-SO 117 2 min 0,000 mm 6,0 UV-I 890 W/m 17,2 C 26,4 C 6,4 km/h (2 Bft) 94,74 %
29.07.2018 12:24 26,7 C 26,1 C 41,1 C 57 % 1013,5 hPa 0,0 l/m 2,4 km/h (1 Bft) O-SO 117 2 min 0,000 mm 5,9 UV-I 882 W/m 17,5 C 26,7 C 4,8 km/h (1 Bft) 93,62 %
29.07.2018 12:26 26,8 C 26,1 C 40,6 C 58 % 1013,5 hPa 0,0 l/m 4,7 km/h (1 Bft) O-NO 61 2 min 0,000 mm 5,9 UV-I 869 W/m 17,8 C 26,8 C 8,0 km/h (2 Bft) 97,87 %
29.07.2018 12:28 27,0 C 26,1 C 40,0 C 58 % 1013,5 hPa 0,0 l/m 4,9 km/h (1 Bft) O-NO 78 2 min 0,000 mm 5,8 UV-I 889 W/m 18,0 C 27,0 C 11,3 km/h (2 Bft) 97,92 %
29.07.2018 12:30 27,3 C 26,1 C 40,0 C 56 % 1013,4 hPa 0,0 l/m 5,8 km/h (2 Bft) O-NO 71 2 min 0,000 mm 6,2 UV-I 922 W/m 17,7 C 27,3 C 8,0 km/h (2 Bft) 97,87 %
29.07.2018 12:32 27,4 C 26,1 C 39,4 C 58 % 1013,4 hPa 0,0 l/m 7,1 km/h (2 Bft) NO 52 2 min 0,000 mm 6,3 UV-I 942 W/m 18,4 C 27,3 C 9,7 km/h (2 Bft) 97,87 %
29.07.2018 12:34 27,5 C 26,1 C 39,4 C 55 % 1013,3 hPa 0,0 l/m 4,3 km/h (1 Bft) NO 38 2 min 0,000 mm 6,1 UV-I 886 W/m 17,6 C 27,5 C 9,7 km/h (2 Bft) 95,74 %
29.07.2018 12:36 27,7 C 26,1 C 39,4 C 57 % 1013,3 hPa 0,0 l/m 9,2 km/h (2 Bft) O 87 2 min 0,000 mm 5,8 UV-I 738 W/m 18,4 C 27,3 C 16,1 km/h (3 Bft) 97,87 %
29.07.2018 12:38 27,7 C 26,1 C 38,3 C 55 % 1013,3 hPa 0,0 l/m 7,0 km/h (2 Bft) O-NO 73 2 min 0,000 mm 5,5 UV-I 710 W/m 17,8 C 27,6 C 12,9 km/h (3 Bft) 93,62 %
29.07.2018 12:40 27,7 C 26,1 C 38,3 C 58 % 1013,3 hPa 0,0 l/m 7,1 km/h (2 Bft) O 82 2 min 0,000 mm 5,6 UV-I 752 W/m 18,7 C 27,6 C 9,7 km/h (2 Bft) 93,62 %
29.07.2018 12:42 27,7 C 26,1 C 37,2 C 56 % 1013,3 hPa 0,0 l/m 10,6 km/h (2 Bft) O 91 2 min 0,000 mm 5,8 UV-I 770 W/m 18,1 C 27,1 C 14,5 km/h (3 Bft) 95,74 %
29.07.2018 12:44 27,7 C 26,1 C 37,8 C 55 % 1013,3 hPa 0,0 l/m 11,0 km/h (2 Bft) NO 56 2 min 0,000 mm 5,7 UV-I 763 W/m 17,8 C 27,0 C 17,7 km/h (3 Bft) 93,62 %
29.07.2018 12:46 27,7 C 26,1 C 38,3 C 56 % 1013,3 hPa 0,0 l/m 9,1 km/h (2 Bft) O-NO 74 2 min 0,000 mm 5,8 UV-I 764 W/m 18,1 C 27,3 C 12,9 km/h (3 Bft) 93,62 %
29.07.2018 12:48 27,7 C 26,1 C 38,9 C 55 % 1013,3 hPa 0,0 l/m 4,0 km/h (1 Bft) O-NO 76 2 min 0,000 mm 6,3 UV-I 863 W/m 17,8 C 27,7 C 9,7 km/h (2 Bft) 94,00 %
29.07.2018 12:50 27,8 C 26,1 C 40,0 C 57 % 1013,2 hPa 0,0 l/m 6,4 km/h (2 Bft) O-NO 65 2 min 0,000 mm 6,2 UV-I 882 W/m 18,5 C 27,8 C 12,9 km/h (3 Bft) 91,49 %
29.07.2018 12:52 27,8 C 26,1 C 40,0 C 55 % 1013,2 hPa 0,0 l/m 5,8 km/h (2 Bft) O-SO 117 2 min 0,000 mm 5,9 UV-I 775 W/m 17,9 C 27,8 C 12,9 km/h (3 Bft) 89,36 %
29.07.2018 12:54 27,7 C 26,1 C 40,0 C 55 % 1013,2 hPa 0,0 l/m 9,1 km/h (2 Bft) O-SO 116 2 min 0,000 mm 5,7 UV-I 733 W/m 17,8 C 27,3 C 12,9 km/h (3 Bft) 91,49 %
29.07.2018 12:56 27,7 C 26,1 C 40,0 C 55 % 1013,2 hPa 0,0 l/m 2,9 km/h (1 Bft) O-SO 121 2 min 0,000 mm 5,4 UV-I 751 W/m 17,8 C 27,7 C 9,7 km/h (2 Bft) 91,49 %
29.07.2018 12:58 27,7 C 26,1 C 40,0 C 55 % 1013,2 hPa 0,0 l/m 2,1 km/h (1 Bft) SO 133 2 min 0,000 mm 5,4 UV-I 735 W/m 17,8 C 27,7 C 4,8 km/h (1 Bft) 91,49 %
29.07.2018 13:00 27,8 C 26,1 C 38,9 C 55 % 1013,2 hPa 0,0 l/m 6,1 km/h (2 Bft) NO 49 2 min 0,000 mm 5,0 UV-I 635 W/m 17,9 C 27,8 C 9,7 km/h (2 Bft) 88,89 %
29.07.2018 13:02 27,9 C 26,1 C 38,9 C 57 % 1013,2 hPa 0,0 l/m 5,3 km/h (1 Bft) N-NO 30 2 min 0,559 mm 5,3 UV-I 559 W/m 18,6 C 27,9 C 8,0 km/h (2 Bft) 92,00 %
29.07.2018 13:04 28,1 C 26,1 C 38,9 C 55 % 1013,2 hPa 0,0 l/m 7,1 km/h (2 Bft) NO 47 2 min 0,000 mm 5,7 UV-I 559 W/m 18,2 C 28,0 C 14,5 km/h (3 Bft) 89,36 %
29.07.2018 13:06 28,2 C 26,1 C 37,8 C 56 % 1013,1 hPa 0,0 l/m 8,8 km/h (2 Bft) N-NO 15 2 min 0,000 mm 5,3 UV-I 559 W/m 18,6 C 27,9 C 14,5 km/h (3 Bft) 91,49 %
29.07.2018 13:09 27,9 C 26,1 C 34,4 C 54 % 1013,1 hPa 0,0 l/m 8,1 km/h (2 Bft) NO 46 3 min 0,000 mm 4,6 UV-I 475 W/m 17,7 C 27,6 C 16,1 km/h (3 Bft) 94,52 %
29.07.2018 13:10 27,7 C 26,1 C 33,9 C 55 % 1013,1 hPa 0,0 l/m 5,2 km/h (1 Bft) O-NO 57 0 min 0,000 mm 5,2 UV-I 346 W/m 17,8 C 27,7 C 6,4 km/h (2 Bft) 91,67 %
29.07.2018 13:12 27,5 C 26,1 C 33,9 C 56 % 1013,1 hPa 0,0 l/m 5,3 km/h (1 Bft) NO 44 0 min 0,000 mm 4,4 UV-I 356 W/m 17,9 C 27,5 C 9,7 km/h (2 Bft) 97,87 %
29.07.2018 13:14 27,3 C 26,1 C 32,8 C 56 % 1013,1 hPa 0,0 l/m 5,9 km/h (2 Bft) O-NO 63 0 min 0,000 mm 4,0 UV-I 386 W/m 17,7 C 27,3 C 9,7 km/h (2 Bft) 97,87 %
29.07.2018 13:16 27,3 C 26,1 C 32,2 C 58 % 1013,1 hPa 0,0 l/m 10,3 km/h (2 Bft) NO 38 0 min 0,000 mm 4,0 UV-I 396 W/m 18,3 C 26,7 C 16,1 km/h (3 Bft) 97,87 %
29.07.2018 13:18 27,3 C 26,1 C 32,2 C 56 % 1013,1 hPa 0,0 l/m 8,4 km/h (2 Bft) NO 49 0 min 0,000 mm 4,1 UV-I 426 W/m 17,7 C 26,9 C 14,5 km/h (3 Bft) 97,87 %
29.07.2018 13:20 27,3 C 26,1 C 32,2 C 56 % 1013,0 hPa 0,0 l/m 9,6 km/h (2 Bft) N 349 0 min 0,000 mm 4,7 UV-I 474 W/m 17,7 C 26,8 C 14,5 km/h (3 Bft) 98,00 %
29.07.2018 13:22 27,3 C 26,1 C 32,8 C 56 % 1013,0 hPa 0,0 l/m 6,1 km/h (2 Bft) N 5 0 min 0,000 mm 4,5 UV-I 468 W/m 17,7 C 27,3 C 11,3 km/h (2 Bft) 95,74 %
29.07.2018 13:24 27,3 C 26,1 C 33,3 C 55 % 1013,0 hPa 0,0 l/m 3,6 km/h (1 Bft) N-NW 348 0 min 0,000 mm 4,7 UV-I 468 W/m 17,4 C 27,3 C 6,4 km/h (2 Bft) 100,00 %
29.07.2018 13:26 27,3 C 26,1 C 33,9 C 56 % 1012,9 hPa 0,0 l/m 2,2 km/h (1 Bft) N 351 0 min 0,000 mm 4,5 UV-I 463 W/m 17,7 C 27,3 C 4,8 km/h (1 Bft) 100,00 %
29.07.2018 13:28 27,2 C 26,1 C 35,0 C 55 % 1013,0 hPa 0,0 l/m 1,4 km/h (1 Bft) O 96 0 min 0,000 mm 4,9 UV-I 448 W/m 17,4 C 27,2 C 11,3 km/h (2 Bft) 100,00 %
29.07.2018 13:30 27,3 C 26,1 C 36,1 C 59 % 1012,9 hPa 0,0 l/m 12,4 km/h (3 Bft) N 11 2 min 0,000 mm 5,5 UV-I 641 W/m 18,6 C 26,4 C 17,7 km/h (3 Bft) 100,00 %
29.07.2018 13:32 27,8 C 26,1 C 36,7 C 58 % 1012,9 hPa 0,0 l/m 9,8 km/h (2 Bft) N 9 2 min 0,000 mm 5,4 UV-I 854 W/m 18,8 C 27,3 C 14,5 km/h (3 Bft) 100,00 %
29.07.2018 13:34 27,9 C 26,1 C 35,0 C 55 % 1012,9 hPa 0,0 l/m 8,8 km/h (2 Bft) O-NO 57 2 min 0,000 mm 4,5 UV-I 554 W/m 18,0 C 27,5 C 11,3 km/h (2 Bft) 97,87 %
29.07.2018 13:36 28,0 C 26,1 C 36,1 C 56 % 1012,9 hPa 0,0 l/m 7,9 km/h (2 Bft) NO 45 2 min 0,000 mm 5,4 UV-I 690 W/m 18,4 C 27,8 C 9,7 km/h (2 Bft) 100,00 %
29.07.2018 13:39 27,8 C 26,1 C 36,7 C 55 % 1012,8 hPa 0,0 l/m 3,6 km/h (1 Bft) W-NW 285 3 min 0,000 mm 5,3 UV-I 703 W/m 17,9 C 27,8 C 8,0 km/h (2 Bft) 100,00 %
29.07.2018 13:40 27,7 C 26,1 C 37,2 C 55 % 1012,8 hPa 0,0 l/m 4,2 km/h (1 Bft) W-NW 284 1 min 0,000 mm 5,5 UV-I 650 W/m 17,8 C 27,7 C 4,8 km/h (1 Bft) 100,00 %
29.07.2018 13:42 27,7 C 26,1 C 36,7 C 57 % 1012,8 hPa 0,0 l/m 3,8 km/h (1 Bft) O-NO 78 2 min 0,000 mm 5,1 UV-I 650 W/m 18,4 C 27,7 C 11,3 km/h (2 Bft) 100,00 %
29.07.2018 13:44 27,9 C 26,1 C 37,2 C 58 % 1012,9 hPa 0,0 l/m 9,1 km/h (2 Bft) N 10 2 min 0,000 mm 5,2 UV-I 720 W/m 18,9 C 27,5 C 16,1 km/h (3 Bft) 97,87 %
29.07.2018 13:46 28,1 C 26,1 C 36,7 C 55 % 1012,8 hPa 0,0 l/m 9,2 km/h (2 Bft) N 9 2 min 0,000 mm 4,8 UV-I 606 W/m 18,2 C 27,7 C 12,9 km/h (3 Bft) 100,00 %
29.07.2018 13:48 28,1 C 26,1 C 36,1 C 55 % 1012,8 hPa 0,0 l/m 7,2 km/h (2 Bft) NO 42 0 min 0,000 mm 5,0 UV-I 301 W/m 18,2 C 28,0 C 12,9 km/h (3 Bft) 100,00 %
29.07.2018 13:50 28,2 C 26,1 C 36,1 C 55 % 1012,8 hPa 0,0 l/m 7,5 km/h (2 Bft) N-NO 24 2 min 0,000 mm 5,3 UV-I 542 W/m 18,3 C 28,0 C 12,9 km/h (3 Bft) 100,00 %
29.07.2018 13:52 28,1 C 26,1 C 36,1 C 54 % 1012,8 hPa 0,0 l/m 7,7 km/h (2 Bft) N-NO 13 2 min 0,000 mm 5,3 UV-I 721 W/m 17,9 C 27,9 C 14,5 km/h (3 Bft) 100,00 %
29.07.2018 13:54 28,1 C 26,1 C 36,1 C 54 % 1012,7 hPa 0,0 l/m 8,6 km/h (2 Bft) NO 51 2 min 0,000 mm 4,8 UV-I 620 W/m 17,9 C 27,8 C 14,5 km/h (3 Bft) 100,00 %
29.07.2018 13:56 28,2 C 26,1 C 36,7 C 54 % 1012,8 hPa 0,0 l/m 6,5 km/h (2 Bft) NO 51 2 min 0,000 mm 4,8 UV-I 620 W/m 18,0 C 28,2 C 9,7 km/h (2 Bft) 97,87 %
29.07.2018 13:58 28,2 C 26,1 C 36,7 C 54 % 1012,7 hPa 0,0 l/m 7,2 km/h (2 Bft) NO 55 2 min 0,000 mm 5,3 UV-I 735 W/m 18,0 C 28,1 C 11,3 km/h (2 Bft) 100,00 %
29.07.2018 14:00 28,2 C 26,1 C 37,2 C 52 % 1012,8 hPa 0,0 l/m 6,1 km/h (2 Bft) O 92 2 min 0,431 mm 5,1 UV-I 708 W/m 17,4 C 28,2 C 11,3 km/h (2 Bft) 97,87 %
29.07.2018 14:02 28,1 C 26,1 C 37,2 C 52 % 1012,8 hPa 0,0 l/m 6,3 km/h (2 Bft) O-NO 67 2 min 0,000 mm 5,1 UV-I 698 W/m 17,3 C 28,1 C 12,9 km/h (3 Bft) 97,87 %
29.07.2018 14:04 28,1 C 26,1 C 37,2 C 55 % 1012,7 hPa 0,0 l/m 9,7 km/h (2 Bft) NO 44 2 min 0,000 mm 4,9 UV-I 651 W/m 18,2 C 27,6 C 14,5 km/h (3 Bft) 95,74 %
29.07.2018 14:06 28,2 C 26,1 C 36,1 C 54 % 1012,7 hPa 0,0 l/m 8,9 km/h (2 Bft) N-NO 21 2 min 0,000 mm 4,7 UV-I 616 W/m 18,0 C 27,8 C 16,1 km/h (3 Bft) 100,00 %
29.07.2018 14:08 28,2 C 26,7 C 36,1 C 57 % 1012,7 hPa 0,0 l/m 11,9 km/h (2 Bft) NO 34 2 min 0,000 mm 4,0 UV-I 617 W/m 18,9 C 27,5 C 14,5 km/h (3 Bft) 100,00 %
29.07.2018 14:10 28,2 C 26,7 C 37,2 C 53 % 1012,7 hPa 0,0 l/m 3,9 km/h (1 Bft) NO 34 2 min 0,000 mm 4,5 UV-I 816 W/m 17,7 C 28,2 C 12,9 km/h (3 Bft) 100,00 %
29.07.2018 14:12 28,3 C 26,7 C 37,8 C 56 % 1012,7 hPa 0,0 l/m 7,8 km/h (2 Bft) N-NO 31 2 min 0,000 mm 5,5 UV-I 820 W/m 18,7 C 28,1 C 14,5 km/h (3 Bft) 100,00 %
29.07.2018 14:14 28,5 C 26,7 C 37,2 C 57 % 1012,7 hPa 0,0 l/m 6,9 km/h (2 Bft) O 83 2 min 0,000 mm 5,4 UV-I 783 W/m 19,1 C 28,4 C 12,9 km/h (3 Bft) 100,00 %
29.07.2018 14:16 28,6 C 26,7 C 37,8 C 54 % 1012,6 hPa 0,0 l/m 11,0 km/h (2 Bft) N 9 2 min 0,000 mm 5,4 UV-I 785 W/m 18,4 C 28,0 C 16,1 km/h (3 Bft) 97,87 %
29.07.2018 14:18 28,5 C 26,7 C 36,7 C 53 % 1012,6 hPa 0,0 l/m 8,2 km/h (2 Bft) N-NO 30 2 min 0,000 mm 5,4 UV-I 763 W/m 18,0 C 28,2 C 14,5 km/h (3 Bft) 100,00 %
29.07.2018 14:20 28,2 C 26,7 C 36,7 C 54 % 1012,6 hPa 0,0 l/m 5,5 km/h (1 Bft) N-NO 26 2 min 0,000 mm 5,5 UV-I 799 W/m 18,0 C 28,2 C 11,3 km/h (2 Bft) 97,87 %
29.07.2018 14:22 28,2 C 26,7 C 37,2 C 53 % 1012,6 hPa 0,0 l/m 4,9 km/h (1 Bft) N-NW 338 2 min 0,000 mm 5,6 UV-I 830 W/m 17,7 C 28,2 C 8,0 km/h (2 Bft) 100,00 %
29.07.2018 14:24 28,2 C 26,7 C 37,8 C 53 % 1012,5 hPa 0,0 l/m 5,3 km/h (1 Bft) NO 54 2 min 0,000 mm 5,5 UV-I 807 W/m 17,7 C 28,2 C 9,7 km/h (2 Bft) 100,00 %
29.07.2018 14:26 28,3 C 26,7 C 37,2 C 54 % 1012,5 hPa 0,0 l/m 11,1 km/h (2 Bft) N 355 2 min 0,000 mm 4,9 UV-I 715 W/m 18,1 C 27,7 C 17,7 km/h (3 Bft) 100,00 %
29.07.2018 14:28 28,4 C 26,7 C 37,8 C 53 % 1012,5 hPa 0,0 l/m 8,4 km/h (2 Bft) O-NO 65 2 min 0,000 mm 4,9 UV-I 615 W/m 17,9 C 28,1 C 14,5 km/h (3 Bft) 97,87 %
29.07.2018 14:30 28,6 C 26,7 C 37,8 C 52 % 1012,5 hPa 0,0 l/m 8,6 km/h (2 Bft) N-NO 19 2 min 0,000 mm 5,3 UV-I 788 W/m 17,8 C 28,3 C 14,5 km/h (3 Bft) 97,87 %
29.07.2018 14:32 28,4 C 26,7 C 36,7 C 50 % 1012,5 hPa 0,0 l/m 6,7 km/h (2 Bft) NO 44 2 min 0,000 mm 5,1 UV-I 725 W/m 17,0 C 28,4 C 12,9 km/h (3 Bft) 95,74 %
29.07.2018 14:34 28,4 C 26,7 C 36,7 C 50 % 1012,5 hPa 0,0 l/m 5,9 km/h (2 Bft) N 11 2 min 0,000 mm 5,1 UV-I 759 W/m 17,0 C 28,4 C 14,5 km/h (3 Bft) 97,87 %
29.07.2018 14:36 28,4 C 26,7 C 37,2 C 52 % 1012,4 hPa 0,0 l/m 4,3 km/h (1 Bft) O-NO 71 2 min 0,000 mm 4,8 UV-I 696 W/m 17,6 C 28,4 C 8,0 km/h (2 Bft) 98,00 %
29.07.2018 14:38 28,5 C 26,7 C 37,8 C 51 % 1012,4 hPa 0,0 l/m 6,4 km/h (2 Bft) O-SO 111 2 min 0,000 mm 4,7 UV-I 700 W/m 17,4 C 28,5 C 12,9 km/h (3 Bft) 97,87 %
29.07.2018 14:40 28,4 C 26,7 C 37,8 C 53 % 1012,4 hPa 0,0 l/m 7,1 km/h (2 Bft) O-NO 65 2 min 0,000 mm 4,9 UV-I 730 W/m 17,9 C 28,3 C 14,5 km/h (3 Bft) 95,74 %
29.07.2018 14:42 28,5 C 26,7 C 37,8 C 51 % 1012,4 hPa 0,0 l/m 5,9 km/h (2 Bft) NO 50 2 min 0,000 mm 4,4 UV-I 603 W/m 17,4 C 28,5 C 11,3 km/h (2 Bft) 95,74 %
29.07.2018 14:44 28,6 C 26,7 C 37,8 C 54 % 1012,3 hPa 0,0 l/m 6,4 km/h (2 Bft) NO 40 2 min 0,000 mm 4,2 UV-I 567 W/m 18,4 C 28,6 C 14,5 km/h (3 Bft) 91,49 %
29.07.2018 14:46 28,4 C 26,7 C 37,2 C 52 % 1012,3 hPa 0,0 l/m 5,2 km/h (1 Bft) NO 40 2 min 0,000 mm 4,5 UV-I 637 W/m 17,6 C 28,4 C 8,0 km/h (2 Bft) 95,74 %
29.07.2018 14:48 28,4 C 26,7 C 37,2 C 52 % 1012,3 hPa 0,0 l/m 5,4 km/h (1 Bft) O 94 2 min 0,000 mm 4,2 UV-I 602 W/m 17,6 C 28,4 C 9,7 km/h (2 Bft) 93,62 %
29.07.2018 14:50 28,5 C 26,7 C 36,7 C 56 % 1012,3 hPa 0,0 l/m 5,5 km/h (1 Bft) O-NO 60 2 min 0,000 mm 3,9 UV-I 512 W/m 18,8 C 28,5 C 9,7 km/h (2 Bft) 93,62 %
29.07.2018 14:52 28,5 C 26,7 C 36,7 C 53 % 1012,2 hPa 0,0 l/m 11,5 km/h (2 Bft) O 94 2 min 0,000 mm 4,2 UV-I 519 W/m 18,0 C 27,9 C 17,7 km/h (3 Bft) 96,00 %
29.07.2018 14:54 28,5 C 26,7 C 37,2 C 55 % 1012,2 hPa 0,0 l/m 5,4 km/h (1 Bft) NO 54 2 min 0,000 mm 4,9 UV-I 740 W/m 18,6 C 28,5 C 11,3 km/h (2 Bft) 93,62 %
29.07.2018 14:56 28,7 C 26,7 C 38,3 C 54 % 1012,2 hPa 0,0 l/m 5,9 km/h (2 Bft) NO 38 2 min 0,000 mm 5,1 UV-I 804 W/m 18,5 C 28,7 C 9,7 km/h (2 Bft) 100,00 %
29.07.2018 14:58 28,9 C 26,7 C 39,4 C 52 % 1012,2 hPa 0,0 l/m 9,0 km/h (2 Bft) O-NO 74 2 min 0,000 mm 5,1 UV-I 817 W/m 18,0 C 28,6 C 14,5 km/h (3 Bft) 96,00 %
29.07.2018 15:00 29,1 C 26,7 C 39,4 C 52 % 1012,1 hPa 0,0 l/m 9,1 km/h (2 Bft) O-NO 63 2 min 0,534 mm 5,1 UV-I 802 W/m 18,2 C 28,8 C 16,1 km/h (3 Bft) 97,87 %
29.07.2018 15:02 29,1 C 26,7 C 39,4 C 52 % 1012,1 hPa 0,0 l/m 4,6 km/h (1 Bft) O-NO 74 2 min 0,000 mm 4,9 UV-I 782 W/m 18,2 C 29,1 C 8,0 km/h (2 Bft) 97,87 %
29.07.2018 15:04 28,9 C 26,7 C 37,8 C 52 % 1012,1 hPa 0,0 l/m 12,4 km/h (3 Bft) N-NO 30 2 min 0,000 mm 4,8 UV-I 767 W/m 18,0 C 28,2 C 19,3 km/h (3 Bft) 94,00 %
29.07.2018 15:06 29,1 C 26,7 C 38,3 C 51 % 1012,1 hPa 0,0 l/m 7,6 km/h (2 Bft) NO 41 2 min 0,000 mm 4,7 UV-I 752 W/m 17,9 C 29,0 C 16,1 km/h (3 Bft) 97,87 %
29.07.2018 15:08 29,1 C 26,7 C 39,4 C 52 % 1012,1 hPa 0,0 l/m 4,4 km/h (1 Bft) NO 54 2 min 0,000 mm 4,7 UV-I 720 W/m 18,2 C 29,1 C 11,3 km/h (2 Bft) 95,74 %
29.07.2018 15:10 29,3 C 26,7 C 40,0 C 51 % 1012,1 hPa 0,0 l/m 6,5 km/h (2 Bft) O 96 2 min 0,000 mm 4,7 UV-I 744 W/m 18,1 C 29,3 C 12,9 km/h (3 Bft) 97,87 %
29.07.2018 15:12 29,3 C 26,7 C 40,0 C 51 % 1012,0 hPa 0,0 l/m 6,6 km/h (2 Bft) O-NO 74 2 min 0,000 mm 4,5 UV-I 725 W/m 18,1 C 29,3 C 12,9 km/h (3 Bft) 97,87 %
29.07.2018 15:14 29,2 C 26,7 C 39,4 C 50 % 1012,0 hPa 0,0 l/m 7,8 km/h (2 Bft) O 96 2 min 0,000 mm 4,5 UV-I 717 W/m 17,7 C 29,0 C 12,9 km/h (3 Bft) 95,74 %
29.07.2018 15:16 29,1 C 26,7 C 40,0 C 51 % 1012,0 hPa 0,0 l/m 5,2 km/h (1 Bft) O 101 2 min 0,000 mm 4,5 UV-I 715 W/m 17,9 C 29,1 C 12,9 km/h (3 Bft) 100,00 %
29.07.2018 15:18 29,0 C 26,7 C 39,4 C 49 % 1012,0 hPa 0,0 l/m 4,6 km/h (1 Bft) N-NO 28 2 min 0,000 mm 4,4 UV-I 706 W/m 17,2 C 29,0 C 16,1 km/h (3 Bft) 100,00 %
29.07.2018 15:20 29,0 C 26,7 C 37,8 C 49 % 1012,0 hPa 0,0 l/m 11,1 km/h (2 Bft) NO 55 2 min 0,000 mm 4,3 UV-I 684 W/m 17,2 C 28,5 C 19,3 km/h (3 Bft) 100,00 %
29.07.2018 15:22 28,9 C 26,7 C 37,8 C 50 % 1011,9 hPa 0,0 l/m 6,8 km/h (2 Bft) O-NO 57 2 min 0,000 mm 4,3 UV-I 689 W/m 17,4 C 28,8 C 12,9 km/h (3 Bft) 95,74 %
29.07.2018 15:24 29,1 C 26,7 C 37,8 C 51 % 1011,9 hPa 0,0 l/m 13,0 km/h (3 Bft) NO 36 2 min 0,000 mm 4,3 UV-I 684 W/m 17,9 C 28,4 C 19,3 km/h (3 Bft) 100,00 %
29.07.2018 15:26 29,3 C 26,7 C 37,2 C 49 % 1011,9 hPa 0,0 l/m 9,3 km/h (2 Bft) N-NO 30 2 min 0,000 mm 4,2 UV-I 687 W/m 17,5 C 29,0 C 12,9 km/h (3 Bft) 100,00 %
29.07.2018 15:28 29,5 C 26,7 C 38,3 C 50 % 1011,9 hPa 0,0 l/m 9,5 km/h (2 Bft) O-SO 105 2 min 0,000 mm 4,2 UV-I 675 W/m 18,0 C 29,2 C 12,9 km/h (3 Bft) 100,00 %
29.07.2018 15:30 29,4 C 26,7 C 38,3 C 48 % 1011,9 hPa 0,0 l/m 7,3 km/h (2 Bft) O 90 2 min 0,000 mm 4,0 UV-I 616 W/m 17,2 C 29,3 C 12,9 km/h (3 Bft) 92,00 %
29.07.2018 15:32 29,2 C 26,7 C 38,3 C 50 % 1011,8 hPa 0,0 l/m 6,3 km/h (2 Bft) NO 36 2 min 0,000 mm 4,0 UV-I 644 W/m 17,7 C 29,2 C 12,9 km/h (3 Bft) 95,74 %
29.07.2018 15:34 29,3 C 26,7 C 39,4 C 49 % 1011,8 hPa 0,0 l/m 6,7 km/h (2 Bft) NO 35 2 min 0,000 mm 4,0 UV-I 681 W/m 17,5 C 29,3 C 12,9 km/h (3 Bft) 97,92 %
29.07.2018 15:36 29,4 C 26,7 C 40,0 C 53 % 1011,9 hPa 0,0 l/m 5,6 km/h (1 Bft) O 95 2 min 0,000 mm 4,1 UV-I 688 W/m 18,8 C 29,4 C 12,9 km/h (3 Bft) 97,87 %
29.07.2018 15:38 29,6 C 26,7 C 39,4 C 48 % 1011,8 hPa 0,0 l/m 10,8 km/h (2 Bft) O 95 2 min 0,000 mm 4,0 UV-I 688 W/m 17,4 C 29,2 C 17,7 km/h (3 Bft) 95,74 %
29.07.2018 15:40 29,5 C 26,7 C 39,4 C 49 % 1011,8 hPa 0,0 l/m 13,7 km/h (3 Bft) O 91 2 min 0,000 mm 4,0 UV-I 689 W/m 17,6 C 28,8 C 19,3 km/h (3 Bft) 97,87 %
29.07.2018 15:42 29,4 C 26,7 C 38,9 C 48 % 1011,8 hPa 0,0 l/m 10,6 km/h (2 Bft) O 84 2 min 0,000 mm 3,9 UV-I 670 W/m 17,2 C 29,0 C 16,1 km/h (3 Bft) 95,74 %
29.07.2018 15:44 29,2 C 26,7 C 38,3 C 46 % 1011,8 hPa 0,0 l/m 9,2 km/h (2 Bft) NO 56 2 min 0,000 mm 3,7 UV-I 589 W/m 16,4 C 28,9 C 17,7 km/h (3 Bft) 95,74 %
29.07.2018 15:46 29,2 C 26,7 C 38,3 C 46 % 1011,8 hPa 0,0 l/m 13,5 km/h (3 Bft) O 89 2 min 0,000 mm 3,9 UV-I 671 W/m 16,4 C 28,5 C 19,3 km/h (3 Bft) 97,87 %
29.07.2018 15:48 29,1 C 26,7 C 38,3 C 48 % 1011,8 hPa 0,0 l/m 10,8 km/h (2 Bft) O-NO 71 2 min 0,000 mm 3,9 UV-I 669 W/m 16,9 C 28,6 C 16,1 km/h (3 Bft) 96,00 %
29.07.2018 15:50 29,1 C 26,7 C 38,9 C 48 % 1011,8 hPa 0,0 l/m 4,5 km/h (1 Bft) O-NO 63 2 min 0,000 mm 3,7 UV-I 657 W/m 16,9 C 29,1 C 6,4 km/h (2 Bft) 95,74 %
29.07.2018 15:52 29,2 C 26,7 C 39,4 C 47 % 1011,8 hPa 0,0 l/m 4,3 km/h (1 Bft) O-SO 123 2 min 0,000 mm 3,7 UV-I 652 W/m 16,7 C 29,2 C 12,9 km/h (3 Bft) 95,74 %
29.07.2018 15:54 29,2 C 26,7 C 39,4 C 48 % 1011,8 hPa 0,0 l/m 9,2 km/h (2 Bft) O-NO 74 2 min 0,000 mm 3,7 UV-I 651 W/m 17,0 C 28,9 C 16,1 km/h (3 Bft) 97,56 %
29.07.2018 15:56 29,1 C 26,7 C 39,4 C 49 % 1011,8 hPa 0,0 l/m 5,9 km/h (2 Bft) O 101 2 min 0,000 mm 3,6 UV-I 636 W/m 17,3 C 29,1 C 14,5 km/h (3 Bft) 97,87 %
29.07.2018 15:58 29,2 C 26,7 C 39,4 C 49 % 1011,7 hPa 0,0 l/m 5,7 km/h (1 Bft) O-NO 69 2 min 0,000 mm 3,6 UV-I 631 W/m 17,4 C 29,2 C 12,9 km/h (3 Bft) 93,62 %
29.07.2018 16:00 29,3 C 26,7 C 40,0 C 48 % 1011,7 hPa 0,0 l/m 7,5 km/h (2 Bft) O-SO 119 2 min 0,508 mm 3,5 UV-I 629 W/m 17,1 C 29,2 C 16,1 km/h (3 Bft) 95,74 %
29.07.2018 16:02 29,4 C 26,7 C 38,9 C 46 % 1011,7 hPa 0,0 l/m 12,2 km/h (2 Bft) O-SO 105 2 min 0,000 mm 3,5 UV-I 632 W/m 16,5 C 28,8 C 16,1 km/h (3 Bft) 97,87 %
29.07.2018 16:04 29,2 C 26,7 C 38,3 C 47 % 1011,7 hPa 0,0 l/m 13,3 km/h (3 Bft) O-NO 59 2 min 0,000 mm 3,5 UV-I 633 W/m 16,7 C 28,5 C 17,7 km/h (3 Bft) 97,87 %
29.07.2018 16:06 29,2 C 26,7 C 38,3 C 47 % 1011,7 hPa 0,0 l/m 11,1 km/h (2 Bft) O 96 2 min 0,000 mm 3,4 UV-I 624 W/m 16,7 C 28,7 C 16,1 km/h (3 Bft) 95,74 %
29.07.2018 16:08 29,2 C 26,7 C 38,3 C 46 % 1011,7 hPa 0,0 l/m 11,2 km/h (2 Bft) O 100 2 min 0,000 mm 3,3 UV-I 608 W/m 16,4 C 28,7 C 14,5 km/h (3 Bft) 93,62 %
29.07.2018 16:10 29,3 C 26,7 C 38,9 C 47 % 1011,7 hPa 0,0 l/m 6,7 km/h (2 Bft) O-SO 118 2 min 0,000 mm 3,3 UV-I 607 W/m 16,8 C 29,3 C 12,9 km/h (3 Bft) 97,87 %
29.07.2018 16:12 29,3 C 26,7 C 38,9 C 47 % 1011,7 hPa 0,0 l/m 9,8 km/h (2 Bft) SO 126 2 min 0,000 mm 2,7 UV-I 595 W/m 16,8 C 28,9 C 14,5 km/h (3 Bft) 97,87 %
29.07.2018 16:14 29,4 C 26,7 C 39,4 C 46 % 1011,6 hPa 0,0 l/m 5,6 km/h (1 Bft) NO 42 2 min 0,000 mm 2,9 UV-I 597 W/m 16,5 C 29,4 C 16,1 km/h (3 Bft) 90,00 %
29.07.2018 16:16 29,5 C 27,2 C 39,4 C 45 % 1011,6 hPa 0,0 l/m 11,5 km/h (2 Bft) O-NO 68 2 min 0,000 mm 3,2 UV-I 588 W/m 16,3 C 29,0 C 16,1 km/h (3 Bft) 97,44 %
29.07.2018 16:18 29,5 C 27,2 C 38,9 C 47 % 1011,6 hPa 0,0 l/m 11,2 km/h (2 Bft) NO 46 2 min 0,000 mm 3,1 UV-I 572 W/m 17,0 C 29,0 C 16,1 km/h (3 Bft) 96,23 %
29.07.2018 16:20 29,4 C 27,2 C 38,3 C 45 % 1011,6 hPa 0,0 l/m 10,8 km/h (2 Bft) O-NO 75 2 min 0,000 mm 3,1 UV-I 585 W/m 16,2 C 29,0 C 16,1 km/h (3 Bft) 95,74 %
29.07.2018 16:22 29,3 C 27,2 C 38,3 C 44 % 1011,6 hPa 0,0 l/m 10,8 km/h (2 Bft) O-NO 70 2 min 0,000 mm 3,1 UV-I 585 W/m 15,8 C 28,8 C 14,5 km/h (3 Bft) 95,74 %
29.07.2018 16:24 29,3 C 27,2 C 38,9 C 46 % 1011,7 hPa 0,0 l/m 8,6 km/h (2 Bft) O-NO 76 2 min 0,000 mm 3,0 UV-I 583 W/m 16,5 C 29,1 C 14,5 km/h (3 Bft) 94,00 %
29.07.2018 16:26 29,2 C 27,2 C 38,3 C 46 % 1011,6 hPa 0,0 l/m 7,1 km/h (2 Bft) O-NO 62 2 min 0,000 mm 2,9 UV-I 558 W/m 16,4 C 29,1 C 14,5 km/h (3 Bft) 95,74 %
29.07.2018 16:28 29,3 C 27,2 C 38,9 C 47 % 1011,6 hPa 0,0 l/m 7,7 km/h (2 Bft) NO 51 2 min 0,000 mm 2,9 UV-I 566 W/m 16,8 C 29,1 C 11,3 km/h (2 Bft) 97,87 %
29.07.2018 16:30 29,3 C 27,2 C 38,9 C 48 % 1011,6 hPa 0,0 l/m 6,8 km/h (2 Bft) O 84 2 min 0,000 mm 2,9 UV-I 585 W/m 17,1 C 29,3 C 16,1 km/h (3 Bft) 95,74 %
29.07.2018 16:32 29,4 C 27,2 C 38,9 C 47 % 1011,6 hPa 0,0 l/m 10,6 km/h (2 Bft) O 79 2 min 0,000 mm 2,9 UV-I 578 W/m 16,9 C 29,0 C 17,7 km/h (3 Bft) 97,87 %
29.07.2018 16:34 29,3 C 27,2 C 38,9 C 47 % 1011,6 hPa 0,0 l/m 8,1 km/h (2 Bft) N-NO 32 2 min 0,000 mm 2,8 UV-I 575 W/m 16,8 C 29,1 C 12,9 km/h (3 Bft) 97,87 %
29.07.2018 16:36 29,3 C 27,2 C 38,9 C 48 % 1011,6 hPa 0,0 l/m 6,6 km/h (2 Bft) O-NO 66 2 min 0,000 mm 2,6 UV-I 562 W/m 17,1 C 29,3 C 9,7 km/h (2 Bft) 97,87 %
29.07.2018 16:38 29,5 C 27,2 C 37,8 C 49 % 1011,6 hPa 0,0 l/m 10,4 km/h (2 Bft) NO 42 2 min 0,000 mm 2,5 UV-I 523 W/m 17,6 C 29,1 C 16,1 km/h (3 Bft) 100,00 %
29.07.2018 16:40 29,4 C 27,2 C 36,7 C 47 % 1011,6 hPa 0,0 l/m 9,6 km/h (2 Bft) NO 37 2 min 0,000 mm 2,6 UV-I 531 W/m 16,9 C 29,1 C 14,5 km/h (3 Bft) 95,74 %
29.07.2018 16:42 29,4 C 27,2 C 36,7 C 46 % 1011,6 hPa 0,0 l/m 12,3 km/h (3 Bft) O-NO 67 2 min 0,000 mm 2,6 UV-I 531 W/m 16,5 C 28,8 C 19,3 km/h (3 Bft) 93,62 %
29.07.2018 16:44 29,4 C 27,2 C 37,2 C 48 % 1011,5 hPa 0,0 l/m 12,2 km/h (2 Bft) SO 130 2 min 0,000 mm 2,5 UV-I 545 W/m 17,2 C 28,8 C 16,1 km/h (3 Bft) 98,00 %
29.07.2018 16:46 29,5 C 27,2 C 37,8 C 47 % 1011,5 hPa 0,0 l/m 7,1 km/h (2 Bft) NO 42 2 min 0,000 mm 2,5 UV-I 541 W/m 17,0 C 29,4 C 11,3 km/h (2 Bft) 93,62 %
29.07.2018 16:48 29,7 C 27,2 C 38,3 C 45 % 1011,5 hPa 0,0 l/m 11,5 km/h (2 Bft) NO 44 2 min 0,000 mm 2,4 UV-I 520 W/m 16,5 C 29,2 C 16,1 km/h (3 Bft) 91,49 %
29.07.2018 16:50 29,7 C 27,2 C 36,7 C 45 % 1011,5 hPa 0,0 l/m 8,4 km/h (2 Bft) N-NO 32 2 min 0,000 mm 2,3 UV-I 499 W/m 16,5 C 29,5 C 12,9 km/h (3 Bft) 96,00 %
29.07.2018 16:52 29,6 C 27,2 C 36,1 C 45 % 1011,4 hPa 0,0 l/m 7,7 km/h (2 Bft) NO 55 2 min 0,000 mm 2,3 UV-I 499 W/m 16,4 C 29,5 C 16,1 km/h (3 Bft) 97,87 %
29.07.2018 16:54 29,6 C 27,2 C 36,1 C 45 % 1011,5 hPa 0,0 l/m 9,6 km/h (2 Bft) O-NO 78 2 min 0,000 mm 2,3 UV-I 498 W/m 16,4 C 29,3 C 16,1 km/h (3 Bft) 97,92 %
29.07.2018 16:56 29,7 C 27,2 C 37,2 C 45 % 1011,5 hPa 0,0 l/m 7,3 km/h (2 Bft) O-SO 113 2 min 0,000 mm 2,3 UV-I 525 W/m 16,5 C 29,6 C 12,9 km/h (3 Bft) 95,74 %
29.07.2018 16:58 29,6 C 27,2 C 37,8 C 45 % 1011,4 hPa 0,0 l/m 8,7 km/h (2 Bft) SO 133 2 min 0,000 mm 2,2 UV-I 525 W/m 16,4 C 29,4 C 16,1 km/h (3 Bft) 94,29 %
29.07.2018 17:00 29,4 C 27,2 C 37,8 C 44 % 1011,4 hPa 0,0 l/m 10,0 km/h (2 Bft) O 88 2 min 0,000 mm 2,1 UV-I 478 W/m 15,8 C 29,0 C 17,7 km/h (3 Bft) 92,00 %
29.07.2018 17:02 29,3 C 27,2 C 37,2 C 46 % 1011,4 hPa 0,0 l/m 6,6 km/h (2 Bft) NO 54 2 min 0,457 mm 1,8 UV-I 408 W/m 16,5 C 29,3 C 11,3 km/h (2 Bft) 97,87 %
29.07.2018 17:04 29,4 C 27,2 C 36,7 C 45 % 1011,4 hPa 0,0 l/m 6,0 km/h (2 Bft) NO 43 2 min 0,000 mm 1,9 UV-I 427 W/m 16,2 C 29,4 C 9,7 km/h (2 Bft) 98,00 %
29.07.2018 17:06 29,4 C 27,2 C 35,6 C 44 % 1011,3 hPa 0,0 l/m 11,7 km/h (2 Bft) O-SO 113 2 min 0,000 mm 1,9 UV-I 415 W/m 15,8 C 28,9 C 20,9 km/h (4 Bft) 97,87 %
29.07.2018 17:08 29,4 C 27,2 C 35,6 C 44 % 1011,3 hPa 0,0 l/m 12,0 km/h (2 Bft) O 88 2 min 0,000 mm 1,9 UV-I 443 W/m 15,8 C 28,9 C 19,3 km/h (3 Bft) 98,00 %
29.07.2018 17:10 29,3 C 27,2 C 36,1 C 45 % 1011,4 hPa 0,0 l/m 6,6 km/h (2 Bft) O 101 2 min 0,000 mm 2,0 UV-I 468 W/m 16,1 C 29,3 C 11,3 km/h (2 Bft) 98,00 %
29.07.2018 17:12 29,4 C 27,2 C 36,7 C 44 % 1011,3 hPa 0,0 l/m 7,7 km/h (2 Bft) O-NO 76 2 min 0,000 mm 1,9 UV-I 454 W/m 15,8 C 29,3 C 12,9 km/h (3 Bft) 97,87 %
29.07.2018 17:14 29,4 C 27,2 C 36,7 C 44 % 1011,3 hPa 0,0 l/m 7,0 km/h (2 Bft) O-NO 71 2 min 0,000 mm 1,9 UV-I 442 W/m 15,8 C 29,3 C 11,3 km/h (2 Bft) 97,87 %
29.07.2018 17:16 29,4 C 27,2 C 36,7 C 43 % 1011,3 hPa 0,0 l/m 9,4 km/h (2 Bft) O-NO 67 2 min 0,000 mm 1,8 UV-I 432 W/m 15,5 C 29,1 C 14,5 km/h (3 Bft) 97,14 %
29.07.2018 17:18 29,4 C 27,2 C 37,2 C 42 % 1011,3 hPa 0,0 l/m 11,1 km/h (2 Bft) O-NO 73 2 min 0,000 mm 1,8 UV-I 462 W/m 15,1 C 28,9 C 16,1 km/h (3 Bft) 98,11 %
29.07.2018 17:20 29,4 C 27,2 C 37,2 C 44 % 1011,3 hPa 0,0 l/m 6,1 km/h (2 Bft) O 98 2 min 0,000 mm 1,6 UV-I 447 W/m 15,8 C 29,4 C 9,7 km/h (2 Bft) 100,00 %
29.07.2018 17:22 29,5 C 27,2 C 37,2 C 44 % 1011,3 hPa 0,0 l/m 6,3 km/h (2 Bft) O 80 2 min 0,000 mm 1,7 UV-I 425 W/m 15,9 C 29,5 C 9,7 km/h (2 Bft) 100,00 %
29.07.2018 17:24 29,6 C 27,2 C 37,2 C 42 % 1011,3 hPa 0,0 l/m 8,4 km/h (2 Bft) O 81 2 min 0,000 mm 1,6 UV-I 392 W/m 15,3 C 29,4 C 12,9 km/h (3 Bft) 100,00 %
29.07.2018 17:26 29,4 C 27,2 C 36,7 C 42 % 1011,2 hPa 0,0 l/m 6,8 km/h (2 Bft) O-NO 60 2 min 0,000 mm 1,6 UV-I 396 W/m 15,1 C 29,4 C 12,9 km/h (3 Bft) 100,00 %
29.07.2018 17:28 29,4 C 27,2 C 35,6 C 45 % 1011,2 hPa 0,0 l/m 7,4 km/h (2 Bft) O-NO 71 2 min 0,000 mm 1,5 UV-I 391 W/m 16,2 C 29,3 C 9,7 km/h (2 Bft) 97,96 %
29.07.2018 17:30 29,4 C 27,2 C 36,1 C 44 % 1011,2 hPa 0,0 l/m 6,1 km/h (2 Bft) NO 53 2 min 0,000 mm 1,6 UV-I 433 W/m 15,8 C 29,4 C 8,0 km/h (2 Bft) 100,00 %
29.07.2018 17:32 29,7 C 27,2 C 36,7 C 45 % 1011,1 hPa 0,0 l/m 5,9 km/h (2 Bft) O-NO 59 2 min 0,000 mm 1,5 UV-I 373 W/m 16,5 C 29,7 C 9,7 km/h (2 Bft) 97,87 %
29.07.2018 17:34 29,6 C 27,2 C 35,6 C 44 % 1011,2 hPa 0,0 l/m 9,8 km/h (2 Bft) NO 55 2 min 0,000 mm 1,3 UV-I 325 W/m 16,0 C 29,3 C 14,5 km/h (3 Bft) 100,00 %
29.07.2018 17:36 29,5 C 27,2 C 35,6 C 44 % 1011,2 hPa 0,0 l/m 7,3 km/h (2 Bft) O-NO 64 2 min 0,000 mm 1,3 UV-I 342 W/m 15,9 C 29,4 C 12,9 km/h (3 Bft) 100,00 %
29.07.2018 17:38 29,4 C 27,2 C 35,0 C 42 % 1011,2 hPa 0,0 l/m 4,6 km/h (1 Bft) NO 43 2 min 0,000 mm 1,3 UV-I 345 W/m 15,1 C 29,4 C 6,4 km/h (2 Bft) 100,00 %
29.07.2018 17:40 29,3 C 27,2 C 35,0 C 44 % 1011,2 hPa 0,0 l/m 10,0 km/h (2 Bft) O-NO 76 2 min 0,000 mm 1,3 UV-I 346 W/m 15,8 C 28,9 C 16,1 km/h (3 Bft) 100,00 %
29.07.2018 17:42 29,3 C 27,2 C 34,4 C 44 % 1011,2 hPa 0,0 l/m 10,1 km/h (2 Bft) O-NO 67 2 min 0,000 mm 1,3 UV-I 334 W/m 15,8 C 28,9 C 12,9 km/h (3 Bft) 100,00 %
29.07.2018 17:44 29,2 C 27,2 C 33,3 C 44 % 1011,2 hPa 0,0 l/m 6,8 km/h (2 Bft) N-NO 31 2 min 0,000 mm 1,2 UV-I 269 W/m 15,7 C 29,2 C 12,9 km/h (3 Bft) 100,00 %
29.07.2018 17:46 29,2 C 27,2 C 33,3 C 46 % 1011,1 hPa 0,0 l/m 7,4 km/h (2 Bft) N-NO 28 2 min 0,000 mm 1,2 UV-I 281 W/m 16,4 C 29,1 C 9,7 km/h (2 Bft) 98,00 %
29.07.2018 17:48 29,2 C 27,2 C 33,3 C 46 % 1011,1 hPa 0,0 l/m 8,4 km/h (2 Bft) O-NO 71 2 min 0,000 mm 1,2 UV-I 314 W/m 16,4 C 29,0 C 14,5 km/h (3 Bft) 97,87 %
29.07.2018 17:50 29,2 C 27,2 C 33,3 C 45 % 1011,1 hPa 0,0 l/m 7,2 km/h (2 Bft) NO 42 2 min 0,000 mm 1,2 UV-I 346 W/m 16,0 C 29,1 C 9,7 km/h (2 Bft) 100,00 %
29.07.2018 17:52 29,3 C 27,2 C 33,3 C 45 % 1011,2 hPa 0,0 l/m 8,3 km/h (2 Bft) NO 49 2 min 0,000 mm 1,2 UV-I 339 W/m 16,1 C 29,1 C 12,9 km/h (3 Bft) 95,74 %
29.07.2018 17:54 29,3 C 27,2 C 33,3 C 43 % 1011,1 hPa 0,0 l/m 6,4 km/h (2 Bft) NO 46 2 min 0,000 mm 1,1 UV-I 310 W/m 15,4 C 29,3 C 9,7 km/h (2 Bft) 95,74 %
29.07.2018 17:56 29,2 C 27,2 C 33,3 C 44 % 1011,1 hPa 0,0 l/m 6,9 km/h (2 Bft) NO 55 2 min 0,000 mm 1,1 UV-I 326 W/m 15,7 C 29,1 C 9,7 km/h (2 Bft) 97,87 %
29.07.2018 17:58 29,2 C 27,2 C 33,9 C 44 % 1011,1 hPa 0,0 l/m 5,6 km/h (1 Bft) O-NO 63 2 min 0,000 mm 1,0 UV-I 306 W/m 15,7 C 29,2 C 9,7 km/h (2 Bft) 97,87 %
29.07.2018 18:00 29,2 C 27,2 C 33,9 C 45 % 1011,1 hPa 0,0 l/m 5,6 km/h (1 Bft) NO 48 2 min 0,000 mm 1,0 UV-I 286 W/m 16,0 C 29,2 C 12,9 km/h (3 Bft) 95,83 %
29.07.2018 18:02 29,2 C 27,2 C 33,3 C 44 % 1011,1 hPa 0,0 l/m 3,4 km/h (1 Bft) NO 48 2 min 0,330 mm 1,0 UV-I 282 W/m 15,7 C 29,2 C 4,8 km/h (1 Bft) 98,44 %
29.07.2018 18:04 29,2 C 27,2 C 33,3 C 45 % 1011,1 hPa 0,0 l/m 4,4 km/h (1 Bft) NO 56 2 min 0,000 mm 0,9 UV-I 252 W/m 16,0 C 29,2 C 6,4 km/h (2 Bft) 97,87 %
29.07.2018 18:06 29,1 C 27,2 C 32,8 C 44 % 1011,1 hPa 0,0 l/m 3,6 km/h (1 Bft) O-NO 72 0 min 0,000 mm 0,9 UV-I 212 W/m 15,6 C 29,1 C 6,4 km/h (2 Bft) 96,00 %
29.07.2018 18:08 29,1 C 27,2 C 32,2 C 44 % 1011,1 hPa 0,0 l/m 3,4 km/h (1 Bft) O-NO 61 0 min 0,000 mm 0,9 UV-I 206 W/m 15,6 C 29,1 C 6,4 km/h (2 Bft) 97,92 %
29.07.2018 18:10 29,0 C 27,2 C 32,2 C 45 % 1011,1 hPa 0,0 l/m 5,2 km/h (1 Bft) O 94 2 min 0,000 mm 0,8 UV-I 225 W/m 15,8 C 29,0 C 8,0 km/h (2 Bft) 95,74 %
29.07.2018 18:12 28,9 C 27,2 C 31,7 C 46 % 1011,1 hPa 0,0 l/m 5,8 km/h (2 Bft) O 89 0 min 0,000 mm 0,8 UV-I 212 W/m 16,1 C 28,9 C 8,0 km/h (2 Bft) 97,87 %
29.07.2018 18:14 28,8 C 27,2 C 31,7 C 45 % 1011,1 hPa 0,0 l/m 6,7 km/h (2 Bft) O-NO 76 0 min 0,000 mm 0,8 UV-I 206 W/m 15,7 C 28,8 C 11,3 km/h (2 Bft) 97,87 %
29.07.2018 18:16 28,8 C 27,2 C 31,7 C 47 % 1011,1 hPa 0,0 l/m 4,2 km/h (1 Bft) O-SO 109 0 min 0,000 mm 0,8 UV-I 196 W/m 16,3 C 28,8 C 6,4 km/h (2 Bft) 97,87 %
29.07.2018 18:18 28,7 C 27,2 C 31,7 C 45 % 1011,1 hPa 0,0 l/m 2,9 km/h (1 Bft) O-SO 109 0 min 0,000 mm 0,8 UV-I 196 W/m 15,6 C 28,7 C 6,4 km/h (2 Bft) 97,87 %
29.07.2018 18:20 28,7 C 27,2 C 31,7 C 45 % 1011,1 hPa 0,0 l/m 4,6 km/h (1 Bft) O-NO 76 0 min 0,000 mm 0,7 UV-I 199 W/m 15,6 C 28,7 C 6,4 km/h (2 Bft) 97,87 %
29.07.2018 18:22 28,7 C 27,2 C 31,7 C 46 % 1011,1 hPa 0,0 l/m 4,1 km/h (1 Bft) O 92 2 min 0,000 mm 0,7 UV-I 216 W/m 15,9 C 28,7 C 6,4 km/h (2 Bft) 100,00 %
29.07.2018 18:24 28,7 C 27,2 C 32,2 C 48 % 1011,2 hPa 0,0 l/m 4,0 km/h (1 Bft) NO 55 2 min 0,000 mm 0,7 UV-I 218 W/m 16,6 C 28,7 C 6,4 km/h (2 Bft) 97,87 %
29.07.2018 18:26 28,7 C 27,2 C 32,2 C 48 % 1011,2 hPa 0,0 l/m 4,1 km/h (1 Bft) O 101 2 min 0,000 mm 0,7 UV-I 229 W/m 16,6 C 28,7 C 9,7 km/h (2 Bft) 97,87 %
29.07.2018 18:28 28,7 C 27,2 C 32,8 C 47 % 1011,2 hPa 0,0 l/m 3,2 km/h (1 Bft) O 88 2 min 0,000 mm 0,7 UV-I 225 W/m 16,3 C 28,7 C 6,4 km/h (2 Bft) 100,00 %
29.07.2018 18:30 28,8 C 27,2 C 33,3 C 47 % 1011,2 hPa 0,0 l/m 3,7 km/h (1 Bft) O 80 2 min 0,000 mm 0,7 UV-I 235 W/m 16,3 C 28,8 C 4,8 km/h (1 Bft) 98,00 %
29.07.2018 18:32 28,9 C 27,2 C 33,9 C 47 % 1011,2 hPa 0,0 l/m 5,5 km/h (1 Bft) O-NO 76 2 min 0,000 mm 0,7 UV-I 263 W/m 16,4 C 28,9 C 6,4 km/h (2 Bft) 97,87 %
29.07.2018 18:34 28,9 C 27,2 C 33,9 C 46 % 1011,2 hPa 0,0 l/m 5,0 km/h (1 Bft) O-NO 64 2 min 0,000 mm 0,7 UV-I 262 W/m 16,1 C 28,9 C 6,4 km/h (2 Bft) 97,87 %
29.07.2018 18:36 29,0 C 27,2 C 34,4 C 45 % 1011,1 hPa 0,0 l/m 4,7 km/h (1 Bft) O-NO 59 2 min 0,000 mm 0,6 UV-I 240 W/m 15,8 C 29,0 C 6,4 km/h (2 Bft) 95,74 %
29.07.2018 18:38 29,0 C 27,2 C 33,9 C 44 % 1011,1 hPa 0,0 l/m 4,4 km/h (1 Bft) O-NO 62 2 min 0,000 mm 0,6 UV-I 216 W/m 15,5 C 29,0 C 6,4 km/h (2 Bft) 97,87 %
29.07.2018 18:40 29,0 C 27,2 C 32,8 C 42 % 1011,2 hPa 0,0 l/m 4,5 km/h (1 Bft) O-SO 107 2 min 0,000 mm 0,6 UV-I 178 W/m 14,8 C 29,0 C 6,4 km/h (2 Bft) 97,87 %
29.07.2018 18:42 28,9 C 27,2 C 32,2 C 42 % 1011,2 hPa 0,0 l/m 4,8 km/h (1 Bft) O 80 0 min 0,000 mm 0,5 UV-I 142 W/m 14,7 C 28,9 C 6,4 km/h (2 Bft) 95,74 %
29.07.2018 18:44 28,8 C 27,2 C 31,7 C 43 % 1011,2 hPa 0,0 l/m 3,4 km/h (1 Bft) O 89 0 min 0,000 mm 0,5 UV-I 145 W/m 15,0 C 28,8 C 4,8 km/h (1 Bft) 91,67 %
29.07.2018 18:46 28,7 C 27,2 C 31,7 C 44 % 1011,2 hPa 0,0 l/m 3,1 km/h (1 Bft) O 89 2 min 0,000 mm 0,5 UV-I 166 W/m 15,2 C 28,7 C 4,8 km/h (1 Bft) 95,74 %
29.07.2018 18:48 28,7 C 27,2 C 32,2 C 46 % 1011,2 hPa 0,0 l/m 1,5 km/h (1 Bft) O 89 2 min 0,000 mm 0,5 UV-I 181 W/m 15,9 C 28,7 C 4,8 km/h (1 Bft) 95,74 %
29.07.2018 18:50 28,7 C 27,2 C 32,8 C 47 % 1011,1 hPa 0,0 l/m 2,6 km/h (1 Bft) O 89 2 min 0,000 mm 0,5 UV-I 180 W/m 16,3 C 28,7 C 4,8 km/h (1 Bft) 95,74 %
29.07.2018 18:52 28,8 C 27,2 C 32,8 C 47 % 1011,2 hPa 0,0 l/m 3,3 km/h (1 Bft) O 95 2 min 0,000 mm 0,5 UV-I 190 W/m 16,3 C 28,8 C 4,8 km/h (1 Bft) 95,74 %
29.07.2018 18:54 28,8 C 27,2 C 33,3 C 47 % 1011,1 hPa 0,0 l/m 3,2 km/h (1 Bft) O 100 2 min 0,000 mm 0,1 UV-I 194 W/m 16,3 C 28,8 C 4,8 km/h (1 Bft) 96,00 %
29.07.2018 18:56 28,8 C 27,2 C 33,9 C 48 % 1011,1 hPa 0,0 l/m 3,3 km/h (1 Bft) O 101 2 min 0,000 mm 0,0 UV-I 190 W/m 16,7 C 28,8 C 4,8 km/h (1 Bft) 94,74 %
29.07.2018 18:58 28,8 C 27,2 C 33,9 C 46 % 1011,2 hPa 0,0 l/m 5,1 km/h (1 Bft) O 96 2 min 0,000 mm 0,0 UV-I 192 W/m 16,0 C 28,8 C 8,0 km/h (2 Bft) 93,62 %
29.07.2018 19:00 28,8 C 27,2 C 33,9 C 45 % 1011,2 hPa 0,0 l/m 5,2 km/h (1 Bft) O 96 2 min 0,000 mm 0,0 UV-I 196 W/m 15,7 C 28,8 C 9,7 km/h (2 Bft) 93,62 %
29.07.2018 19:02 28,8 C 27,2 C 33,9 C 45 % 1011,2 hPa 0,0 l/m 5,3 km/h (1 Bft) O 98 2 min 0,178 mm 0,0 UV-I 201 W/m 15,7 C 28,8 C 9,7 km/h (2 Bft) 92,00 %
29.07.2018 19:04 28,8 C 27,2 C 34,4 C 44 % 1011,3 hPa 0,0 l/m 4,6 km/h (1 Bft) O 95 2 min 0,000 mm 0,0 UV-I 199 W/m 15,3 C 28,8 C 9,7 km/h (2 Bft) 93,62 %
29.07.2018 19:06 28,8 C 27,2 C 34,4 C 43 % 1011,2 hPa 0,0 l/m 3,3 km/h (1 Bft) O-NO 63 2 min 0,000 mm 0,0 UV-I 192 W/m 15,0 C 28,8 C 4,8 km/h (1 Bft) 95,74 %
29.07.2018 19:08 28,8 C 27,2 C 34,4 C 44 % 1011,2 hPa 0,0 l/m 4,5 km/h (1 Bft) O-SO 103 2 min 0,000 mm 0,0 UV-I 196 W/m 15,3 C 28,8 C 9,7 km/h (2 Bft) 95,74 %
29.07.2018 19:10 28,8 C 27,2 C 33,9 C 45 % 1011,3 hPa 0,0 l/m 5,8 km/h (2 Bft) O 101 2 min 0,000 mm 0,0 UV-I 140 W/m 15,7 C 28,8 C 9,7 km/h (2 Bft) 95,74 %
29.07.2018 19:12 28,7 C 27,2 C 32,8 C 44 % 1011,2 hPa 0,0 l/m 5,4 km/h (1 Bft) O 90 0 min 0,000 mm 0,0 UV-I 107 W/m 15,2 C 28,7 C 9,7 km/h (2 Bft) 97,87 %
29.07.2018 19:14 28,6 C 27,2 C 31,7 C 45 % 1011,2 hPa 0,0 l/m 3,7 km/h (1 Bft) O 83 0 min 0,000 mm 0,0 UV-I 105 W/m 15,5 C 28,6 C 4,8 km/h (1 Bft) 96,00 %
29.07.2018 19:16 28,4 C 27,2 C 31,1 C 46 % 1011,2 hPa 0,0 l/m 3,4 km/h (1 Bft) O-NO 71 0 min 0,000 mm 0,0 UV-I 111 W/m 15,6 C 28,4 C 6,4 km/h (2 Bft) 95,74 %
29.07.2018 19:18 28,3 C 27,2 C 31,1 C 47 % 1011,2 hPa 0,0 l/m 3,4 km/h (1 Bft) O-NO 77 2 min 0,000 mm 0,0 UV-I 126 W/m 15,9 C 28,3 C 4,8 km/h (1 Bft) 97,87 %
29.07.2018 19:20 28,3 C 27,2 C 31,1 C 46 % 1011,3 hPa 0,0 l/m 3,7 km/h (1 Bft) O-NO 66 2 min 0,000 mm 0,0 UV-I 140 W/m 15,6 C 28,3 C 4,8 km/h (1 Bft) 97,87 %
29.07.2018 19:22 28,4 C 27,2 C 30,6 C 46 % 1011,2 hPa 0,0 l/m 4,5 km/h (1 Bft) O 86 2 min 0,000 mm 0,0 UV-I 127 W/m 15,6 C 28,4 C 6,4 km/h (2 Bft) 95,74 %
29.07.2018 19:24 28,4 C 27,2 C 30,6 C 47 % 1011,2 hPa 0,0 l/m 3,5 km/h (1 Bft) O 88 2 min 0,000 mm 0,0 UV-I 127 W/m 16,0 C 28,4 C 4,8 km/h (1 Bft) 97,87 %
29.07.2018 19:26 28,4 C 27,2 C 31,1 C 47 % 1011,2 hPa 0,0 l/m 3,9 km/h (1 Bft) O 82 2 min 0,000 mm 0,0 UV-I 143 W/m 16,0 C 28,4 C 4,8 km/h (1 Bft) 97,92 %
29.07.2018 19:28 28,3 C 27,2 C 30,6 C 48 % 1011,3 hPa 0,0 l/m 4,8 km/h (1 Bft) O-NO 74 2 min 0,000 mm 0,0 UV-I 118 W/m 16,2 C 28,3 C 8,0 km/h (2 Bft) 97,87 %
29.07.2018 19:30 28,1 C 27,2 C 30,6 C 50 % 1011,3 hPa 0,0 l/m 3,9 km/h (1 Bft) O 100 2 min 0,000 mm 0,0 UV-I 145 W/m 16,7 C 28,1 C 4,8 km/h (1 Bft) 95,74 %
29.07.2018 19:32 28,0 C 27,2 C 27,2 C 50 % 1011,3 hPa 0,0 l/m 4,7 km/h (1 Bft) O-NO 77 2 min 0,000 mm 0,0 UV-I 157 W/m 16,6 C 28,0 C 6,4 km/h (2 Bft) 94,74 %
29.07.2018 19:34 28,1 C 27,2 C 26,1 C 48 % 1011,3 hPa 0,0 l/m 4,1 km/h (1 Bft) O 80 2 min 0,000 mm 0,0 UV-I 166 W/m 16,0 C 28,1 C 6,4 km/h (2 Bft) 95,74 %
29.07.2018 19:36 28,1 C 27,2 C 26,1 C 48 % 1011,3 hPa 0,0 l/m 4,1 km/h (1 Bft) O 80 2 min 0,000 mm 0,0 UV-I 151 W/m 16,0 C 28,1 C 4,8 km/h (1 Bft) 93,62 %
29.07.2018 19:38 28,1 C 27,2 C 26,1 C 49 % 1011,3 hPa 0,0 l/m 3,6 km/h (1 Bft) O 80 2 min 0,000 mm 0,0 UV-I 148 W/m 16,4 C 28,1 C 4,8 km/h (1 Bft) 95,74 %
29.07.2018 19:40 28,1 C 27,2 C 26,1 C 48 % 1011,3 hPa 0,0 l/m 3,5 km/h (1 Bft) O 81 2 min 0,000 mm 0,0 UV-I 124 W/m 16,0 C 28,1 C 4,8 km/h (1 Bft) 95,74 %
29.07.2018 19:42 28,1 C 27,2 C 25,6 C 48 % 1011,2 hPa 0,0 l/m 3,9 km/h (1 Bft) O 81 2 min 0,000 mm 0,0 UV-I 114 W/m 16,0 C 28,1 C 4,8 km/h (1 Bft) 96,00 %
29.07.2018 19:44 28,0 C 27,2 C 24,4 C 50 % 1011,3 hPa 0,0 l/m 4,0 km/h (1 Bft) O 82 2 min 0,000 mm 0,0 UV-I 87 W/m 16,6 C 28,0 C 6,4 km/h (2 Bft) 93,62 %
29.07.2018 19:46 27,8 C 27,2 C 23,9 C 48 % 1011,3 hPa 0,0 l/m 5,1 km/h (1 Bft) O-NO 76 2 min 0,000 mm 0,0 UV-I 84 W/m 15,8 C 27,8 C 6,4 km/h (2 Bft) 93,62 %
29.07.2018 19:48 27,8 C 27,2 C 23,3 C 47 % 1011,3 hPa 0,0 l/m 3,8 km/h (1 Bft) O 79 2 min 0,000 mm 0,0 UV-I 80 W/m 15,4 C 27,8 C 6,4 km/h (2 Bft) 97,87 %
29.07.2018 19:50 27,8 C 27,2 C 23,3 C 49 % 1011,3 hPa 0,0 l/m 4,2 km/h (1 Bft) O 79 2 min 0,000 mm 0,0 UV-I 77 W/m 16,1 C 27,8 C 4,8 km/h (1 Bft) 97,87 %
29.07.2018 19:52 27,7 C 27,2 C 22,8 C 49 % 1011,3 hPa 0,0 l/m 3,6 km/h (1 Bft) O 81 2 min 0,000 mm 0,0 UV-I 75 W/m 16,0 C 27,7 C 4,8 km/h (1 Bft) 95,74 %
29.07.2018 19:54 27,5 C 27,2 C 22,8 C 51 % 1011,3 hPa 0,0 l/m 2,9 km/h (1 Bft) O 82 2 min 0,000 mm 0,0 UV-I 73 W/m 16,4 C 27,5 C 4,8 km/h (1 Bft) 97,87 %
29.07.2018 19:56 27,3 C 27,2 C 22,8 C 51 % 1011,3 hPa 0,0 l/m 2,9 km/h (1 Bft) O 83 2 min 0,000 mm 0,0 UV-I 70 W/m 16,3 C 27,3 C 4,8 km/h (1 Bft) 93,62 %
29.07.2018 19:59 27,3 C 27,2 C 22,8 C 50 % 1011,3 hPa 0,0 l/m 2,1 km/h (1 Bft) O 83 3 min 0,000 mm 0,0 UV-I 67 W/m 15,9 C 27,3 C 4,8 km/h (1 Bft) 98,59 %
29.07.2018 20:00 27,3 C 27,2 C 22,8 C 50 % 1011,3 hPa 0,0 l/m 2,4 km/h (1 Bft) O 83 1 min 0,000 mm 0,0 UV-I 64 W/m 15,9 C 27,3 C 3,2 km/h (1 Bft) 100,00 %
29.07.2018 20:02 27,3 C 27,2 C 22,8 C 50 % 1011,3 hPa 0,0 l/m 2,8 km/h (1 Bft) O 83 2 min 0,127 mm 0,0 UV-I 62 W/m 15,9 C 27,3 C 4,8 km/h (1 Bft) 100,00 %
29.07.2018 20:04 27,3 C 27,2 C 22,8 C 49 % 1011,3 hPa 0,0 l/m 3,0 km/h (1 Bft) O 83 2 min 0,000 mm 0,0 UV-I 59 W/m 15,6 C 27,3 C 4,8 km/h (1 Bft) 100,00 %
29.07.2018 20:06 27,3 C 27,2 C 22,8 C 49 % 1011,4 hPa 0,0 l/m 3,0 km/h (1 Bft) O 83 2 min 0,000 mm 0,0 UV-I 54 W/m 15,6 C 27,3 C 4,8 km/h (1 Bft) 95,74 %
29.07.2018 20:08 27,3 C 27,2 C 22,2 C 49 % 1011,3 hPa 0,0 l/m 2,4 km/h (1 Bft) O 83 2 min 0,000 mm 0,0 UV-I 52 W/m 15,6 C 27,3 C 3,2 km/h (1 Bft) 97,87 %
29.07.2018 20:10 27,3 C 27,2 C 22,2 C 49 % 1011,4 hPa 0,0 l/m 2,3 km/h (1 Bft) O 83 2 min 0,000 mm 0,0 UV-I 48 W/m 15,6 C 27,3 C 4,8 km/h (1 Bft) 98,00 %
29.07.2018 20:12 27,3 C 27,2 C 22,2 C 49 % 1011,4 hPa 0,0 l/m 2,0 km/h (1 Bft) O 83 2 min 0,000 mm 0,0 UV-I 46 W/m 15,6 C 27,3 C 3,2 km/h (1 Bft) 97,87 %
29.07.2018 20:14 27,3 C 27,2 C 22,2 C 49 % 1011,4 hPa 0,0 l/m 1,2 km/h (1 Bft) O 83 2 min 0,000 mm 0,0 UV-I 45 W/m 15,6 C 27,3 C 3,2 km/h (1 Bft) 97,87 %
29.07.2018 20:16 27,3 C 27,2 C 22,2 C 49 % 1011,5 hPa 0,0 l/m 1,2 km/h (1 Bft) O 83 2 min 0,000 mm 0,0 UV-I 48 W/m 15,6 C 27,3 C 3,2 km/h (1 Bft) 100,00 %
29.07.2018 20:19 27,2 C 27,2 C 22,2 C 48 % 1011,5 hPa 0,0 l/m 1,8 km/h (1 Bft) O 83 3 min 0,000 mm 0,0 UV-I 48 W/m 15,2 C 27,2 C 3,2 km/h (1 Bft) 100,00 %
29.07.2018 20:20 27,2 C 27,2 C 22,2 C 49 % 1011,5 hPa 0,0 l/m 2,2 km/h (1 Bft) O 83 1 min 0,000 mm 0,0 UV-I 45 W/m 15,5 C 27,2 C 3,2 km/h (1 Bft) 95,83 %
29.07.2018 20:22 27,2 C 27,2 C 22,2 C 50 % 1011,5 hPa 0,0 l/m 1,7 km/h (1 Bft) O 83 2 min 0,000 mm 0,0 UV-I 40 W/m 15,9 C 27,2 C 3,2 km/h (1 Bft) 100,00 %
29.07.2018 20:24 27,1 C 27,2 C 22,2 C 50 % 1011,5 hPa 0,0 l/m 1,4 km/h (1 Bft) O 83 2 min 0,000 mm 0,0 UV-I 31 W/m 15,8 C 27,1 C 3,2 km/h (1 Bft) 100,00 %
29.07.2018 20:26 26,8 C 27,2 C 22,2 C 55 % 1011,5 hPa 0,0 l/m 1,2 km/h (1 Bft) O 83 2 min 0,000 mm 0,0 UV-I 24 W/m 17,0 C 26,8 C 1,6 km/h (1 Bft) 97,87 %
29.07.2018 20:28 26,5 C 27,2 C 22,2 C 55 % 1011,5 hPa 0,0 l/m 0,4 km/h (0 Bft) O 83 2 min 0,000 mm 0,0 UV-I 21 W/m 16,7 C 26,5 C 1,6 km/h (1 Bft) 96,00 %
29.07.2018 20:30 26,3 C 27,2 C 22,2 C 55 % 1011,5 hPa 0,0 l/m 0,7 km/h (0 Bft) O 83 2 min 0,000 mm 0,0 UV-I 18 W/m 16,5 C 26,3 C 1,6 km/h (1 Bft) 97,87 %
29.07.2018 20:32 26,1 C 27,2 C 22,2 C 57 % 1011,6 hPa 0,0 l/m 0,0 km/h (0 Bft) O 83 2 min 0,000 mm 0,0 UV-I 16 W/m 16,9 C 26,1 C 0,0 km/h (0 Bft) 95,74 %
29.07.2018 20:34 26,0 C 27,2 C 21,7 C 58 % 1011,6 hPa 0,0 l/m 0,0 km/h (0 Bft) O 83 0 min 0,000 mm 0,0 UV-I 14 W/m 17,1 C 26,0 C 0,0 km/h (0 Bft) 97,87 %
29.07.2018 20:36 25,9 C 27,2 C 21,7 C 57 % 1011,6 hPa 0,0 l/m 0,0 km/h (0 Bft) O 83 0 min 0,000 mm 0,0 UV-I 12 W/m 16,7 C 25,9 C 0,0 km/h (0 Bft) 97,87 %
29.07.2018 20:38 25,8 C 27,2 C 21,7 C 58 % 1011,6 hPa 0,0 l/m 0,2 km/h (0 Bft) O 83 0 min 0,000 mm 0,0 UV-I 11 W/m 16,9 C 25,8 C 1,6 km/h (1 Bft) 97,92 %
29.07.2018 20:40 25,6 C 27,2 C 21,7 C 60 % 1011,7 hPa 0,0 l/m 0,3 km/h (0 Bft) O 83 0 min 0,000 mm 0,0 UV-I 9 W/m 17,2 C 25,6 C 1,6 km/h (1 Bft) 98,00 %
29.07.2018 20:42 25,3 C 27,2 C 21,7 C 60 % 1011,7 hPa 0,0 l/m 0,3 km/h (0 Bft) O 83 0 min 0,000 mm 0,0 UV-I 8 W/m 17,0 C 25,3 C 1,6 km/h (1 Bft) 95,74 %
29.07.2018 20:44 25,2 C 27,2 C 21,7 C 60 % 1011,7 hPa 0,0 l/m 0,0 km/h (0 Bft) O 83 0 min 0,000 mm 0,0 UV-I 7 W/m 16,9 C 25,2 C 0,0 km/h (0 Bft) 95,74 %
29.07.2018 20:46 25,2 C 27,2 C 21,7 C 59 % 1011,7 hPa 0,0 l/m 0,0 km/h (0 Bft) O 83 0 min 0,000 mm 0,0 UV-I 7 W/m 16,6 C 25,2 C 0,0 km/h (0 Bft) 97,37 %
29.07.2018 20:49 25,1 C 26,7 C 21,1 C 58 % 1011,7 hPa 0,0 l/m 1,7 km/h (1 Bft) O 83 0 min 0,000 mm 0,0 UV-I 5 W/m 16,2 C 25,1 C 3,2 km/h (1 Bft) 95,71 %
29.07.2018 20:50 25,1 C 26,7 C 21,1 C 58 % 1011,7 hPa 0,0 l/m 2,5 km/h (1 Bft) O 83 0 min 0,000 mm 0,0 UV-I 5 W/m 16,2 C 25,1 C 3,2 km/h (1 Bft) 95,83 %
29.07.2018 20:52 25,2 C 26,7 C 21,1 C 58 % 1011,7 hPa 0,0 l/m 2,6 km/h (1 Bft) O 83 0 min 0,000 mm 0,0 UV-I 5 W/m 16,3 C 25,2 C 3,2 km/h (1 Bft) 95,74 %
29.07.2018 20:54 25,2 C 26,7 C 21,1 C 57 % 1011,8 hPa 0,0 l/m 2,1 km/h (1 Bft) O 83 0 min 0,000 mm 0,0 UV-I 7 W/m 16,1 C 25,2 C 3,2 km/h (1 Bft) 98,00 %
29.07.2018 20:56 25,1 C 26,7 C 21,7 C 59 % 1011,8 hPa 0,0 l/m 2,3 km/h (1 Bft) O 83 0 min 0,000 mm 0,0 UV-I 6 W/m 16,5 C 25,1 C 3,2 km/h (1 Bft) 96,00 %
29.07.2018 20:58 24,8 C 26,7 C 21,7 C 60 % 1011,8 hPa 0,0 l/m 1,6 km/h (1 Bft) O 83 0 min 0,000 mm 0,0 UV-I 5 W/m 16,5 C 24,8 C 3,2 km/h (1 Bft) 97,87 %
29.07.2018 21:00 24,6 C 26,7 C 21,7 C 61 % 1011,8 hPa 0,0 l/m 1,6 km/h (1 Bft) O 83 0 min 0,000 mm 0,0 UV-I 5 W/m 16,6 C 24,6 C 3,2 km/h (1 Bft) 97,37 %
29.07.2018 21:02 24,4 C 26,7 C 21,7 C 61 % 1011,8 hPa 0,0 l/m 1,5 km/h (1 Bft) O 83 0 min 0,025 mm 0,0 UV-I 0 W/m 16,4 C 24,4 C 1,6 km/h (1 Bft) 100,00 %
29.07.2018 21:04 24,3 C 26,7 C 21,7 C 61 % 1011,8 hPa 0,0 l/m 1,3 km/h (1 Bft) O 83 0 min 0,000 mm 0,0 UV-I 0 W/m 16,3 C 24,3 C 3,2 km/h (1 Bft) 95,74 %
29.07.2018 21:06 24,4 C 26,7 C 21,1 C 61 % 1011,9 hPa 0,0 l/m 1,3 km/h (1 Bft) O 83 0 min 0,000 mm 0,0 UV-I 0 W/m 16,4 C 24,4 C 1,6 km/h (1 Bft) 95,74 %
29.07.2018 21:08 24,6 C 26,7 C 21,7 C 60 % 1011,9 hPa 0,0 l/m 0,5 km/h (0 Bft) O 83 0 min 0,000 mm 0,0 UV-I 0 W/m 16,3 C 24,6 C 1,6 km/h (1 Bft) 98,11 %
29.07.2018 21:10 24,7 C 26,7 C 21,1 C 60 % 1011,9 hPa 0,0 l/m 0,0 km/h (0 Bft) O 83 0 min 0,000 mm 0,0 UV-I 0 W/m 16,4 C 24,7 C 0,0 km/h (0 Bft) 93,62 %
29.07.2018 21:12 24,8 C 26,7 C 21,1 C 59 % 1011,9 hPa 0,0 l/m 0,1 km/h (0 Bft) O 83 0 min 0,000 mm 0,0 UV-I 0 W/m 16,2 C 24,8 C 1,6 km/h (1 Bft) 97,87 %
29.07.2018 21:14 24,8 C 26,7 C 21,1 C 59 % 1012,0 hPa 0,0 l/m 0,0 km/h (0 Bft) O 83 0 min 0,000 mm 0,0 UV-I 0 W/m 16,2 C 24,8 C 0,0 km/h (0 Bft) 97,44 %
29.07.2018 21:16 24,9 C 26,7 C 21,1 C 59 % 1011,9 hPa 0,0 l/m 0,0 km/h (0 Bft) O 83 0 min 0,000 mm 0,0 UV-I 0 W/m 16,3 C 24,9 C 0,0 km/h (0 Bft) 97,87 %
29.07.2018 21:18 24,9 C 26,7 C 21,1 C 60 % 1012,0 hPa 0,0 l/m 0,0 km/h (0 Bft) O 83 0 min 0,000 mm 0,0 UV-I 0 W/m 16,6 C 24,9 C 0,0 km/h (0 Bft) 95,74 %
29.07.2018 21:20 25,0 C 26,7 C 21,1 C 60 % 1012,0 hPa 0,0 l/m 0,0 km/h (0 Bft) O 83 0 min 0,000 mm 0,0 UV-I 0 W/m 16,7 C 25,0 C 0,0 km/h (0 Bft) 95,74 %
29.07.2018 21:22 25,0 C 26,7 C 21,1 C 61 % 1012,0 hPa 0,0 l/m 0,0 km/h (0 Bft) O 83 0 min 0,000 mm 0,0 UV-I 0 W/m 16,9 C 25,0 C 0,0 km/h (0 Bft) 96,00 %
29.07.2018 21:24 24,7 C 26,7 C 21,1 C 62 % 1012,0 hPa 0,0 l/m 0,0 km/h (0 Bft) O 83 0 min 0,000 mm 0,0 UV-I 0 W/m 16,9 C 24,7 C 0,0 km/h (0 Bft) 97,87 %
29.07.2018 21:26 24,4 C 26,7 C 21,7 C 63 % 1012,1 hPa 0,0 l/m 0,0 km/h (0 Bft) O 83 0 min 0,000 mm 0,0 UV-I 0 W/m 16,9 C 24,4 C 0,0 km/h (0 Bft) 97,87 %
29.07.2018 21:28 24,3 C 26,7 C 21,7 C 63 % 1012,1 hPa 0,0 l/m 0,0 km/h (0 Bft) O 83 0 min 0,000 mm 0,0 UV-I 0 W/m 16,8 C 24,3 C 0,0 km/h (0 Bft) 97,87 %
29.07.2018 21:30 24,4 C 26,7 C 21,7 C 63 % 1012,1 hPa 0,0 l/m 0,0 km/h (0 Bft) O 83 0 min 0,000 mm 0,0 UV-I 0 W/m 16,9 C 24,4 C 0,0 km/h (0 Bft) 97,87 %
29.07.2018 21:32 24,4 C 26,7 C 21,7 C 62 % 1012,1 hPa 0,0 l/m 0,0 km/h (0 Bft) O 83 0 min 0,000 mm 0,0 UV-I 0 W/m 16,6 C 24,4 C 0,0 km/h (0 Bft) 97,87 %
29.07.2018 21:34 24,5 C 26,7 C 21,7 C 62 % 1012,1 hPa 0,0 l/m 0,0 km/h (0 Bft) O 83 0 min 0,000 mm 0,0 UV-I 0 W/m 16,7 C 24,5 C 0,0 km/h (0 Bft) 100,00 %
29.07.2018 21:36 24,5 C 26,7 C 21,7 C 61 % 1012,1 hPa 0,0 l/m 0,0 km/h (0 Bft) O 83 0 min 0,000 mm 0,0 UV-I 0 W/m 16,5 C 24,5 C 0,0 km/h (0 Bft) 100,00 %
29.07.2018 21:39 24,4 C 26,7 C 21,7 C 61 % 1012,2 hPa 0,0 l/m 0,0 km/h (0 Bft) O 83 0 min 0,000 mm 0,0 UV-I 0 W/m 16,4 C 24,4 C 0,0 km/h (0 Bft) 100,00 %
29.07.2018 21:40 24,3 C 26,7 C 21,7 C 61 % 1012,2 hPa 0,0 l/m 0,0 km/h (0 Bft) O 83 0 min 0,000 mm 0,0 UV-I 0 W/m 16,3 C 24,3 C 0,0 km/h (0 Bft) 100,00 %
29.07.2018 21:42 24,3 C 26,7 C 21,7 C 61 % 1012,2 hPa 0,0 l/m 0,0 km/h (0 Bft) O 83 0 min 0,000 mm 0,0 UV-I 0 W/m 16,3 C 24,3 C 0,0 km/h (0 Bft) 100,00 %
29.07.2018 21:44 24,3 C 26,7 C 21,7 C 61 % 1012,2 hPa 0,0 l/m 0,0 km/h (0 Bft) O 83 0 min 0,000 mm 0,0 UV-I 0 W/m 16,3 C 24,3 C 0,0 km/h (0 Bft) 100,00 %
29.07.2018 21:46 24,3 C 26,7 C 21,7 C 63 % 1012,2 hPa 0,0 l/m 0,0 km/h (0 Bft) O 83 0 min 0,000 mm 0,0 UV-I 0 W/m 16,8 C 24,3 C 0,0 km/h (0 Bft) 97,87 %
29.07.2018 21:48 24,2 C 26,7 C 21,7 C 63 % 1012,2 hPa 0,0 l/m 0,0 km/h (0 Bft) O 83 0 min 0,000 mm 0,0 UV-I 0 W/m 16,7 C 24,2 C 0,0 km/h (0 Bft) 100,00 %
29.07.2018 21:50 24,1 C 26,7 C 21,7 C 63 % 1012,2 hPa 0,0 l/m 0,0 km/h (0 Bft) O 83 0 min 0,000 mm 0,0 UV-I 0 W/m 16,6 C 24,1 C 0,0 km/h (0 Bft) 100,00 %
29.07.2018 21:52 23,8 C 26,7 C 21,7 C 64 % 1012,2 hPa 0,0 l/m 1,0 km/h (0 Bft) O 83 0 min 0,000 mm 0,0 UV-I 0 W/m 16,6 C 23,8 C 3,2 km/h (1 Bft) 100,00 %
29.07.2018 21:54 23,7 C 26,7 C 21,7 C 64 % 1012,2 hPa 0,0 l/m 2,1 km/h (1 Bft) O 83 0 min 0,000 mm 0,0 UV-I 0 W/m 16,5 C 23,7 C 3,2 km/h (1 Bft) 100,00 %
29.07.2018 21:56 23,6 C 26,7 C 21,7 C 64 % 1012,2 hPa 0,0 l/m 1,7 km/h (1 Bft) O 83 0 min 0,000 mm 0,0 UV-I 0 W/m 16,4 C 23,6 C 3,2 km/h (1 Bft) 97,87 %
29.07.2018 21:58 23,6 C 26,7 C 21,7 C 65 % 1012,2 hPa 0,0 l/m 1,2 km/h (1 Bft) O 83 0 min 0,000 mm 0,0 UV-I 0 W/m 16,6 C 23,6 C 1,6 km/h (1 Bft) 100,00 %
29.07.2018 22:00 23,6 C 26,7 C 21,7 C 65 % 1012,2 hPa 0,0 l/m 1,0 km/h (0 Bft) O 83 0 min 0,000 mm 0,0 UV-I 0 W/m 16,6 C 23,6 C 1,6 km/h (1 Bft) 100,00 %
29.07.2018 22:02 23,6 C 26,7 C 21,7 C 63 % 1012,2 hPa 0,0 l/m 1,7 km/h (1 Bft) O 83 0 min 0,026 mm 0,0 UV-I 0 W/m 16,1 C 23,6 C 3,2 km/h (1 Bft) 97,87 %
29.07.2018 22:04 23,7 C 26,7 C 21,7 C 64 % 1012,3 hPa 0,0 l/m 1,5 km/h (1 Bft) O 83 0 min 0,000 mm 0,0 UV-I 0 W/m 16,5 C 23,7 C 3,2 km/h (1 Bft) 97,87 %
29.07.2018 22:06 23,8 C 26,7 C 21,7 C 64 % 1012,3 hPa 0,0 l/m 1,3 km/h (1 Bft) O 83 0 min 0,000 mm 0,0 UV-I 0 W/m 16,6 C 23,8 C 1,6 km/h (1 Bft) 98,00 %
29.07.2018 22:09 23,8 C 26,7 C 21,7 C 66 % 1012,3 hPa 0,0 l/m 1,0 km/h (0 Bft) O 83 0 min 0,000 mm 0,0 UV-I 0 W/m 17,1 C 23,8 C 1,6 km/h (1 Bft) 98,63 %
29.07.2018 22:10 23,8 C 26,7 C 21,7 C 67 % 1012,3 hPa 0,0 l/m 1,5 km/h (1 Bft) O 83 0 min 0,000 mm 0,0 UV-I 0 W/m 17,3 C 23,8 C 1,6 km/h (1 Bft) 100,00 %
29.07.2018 22:12 23,7 C 26,7 C 21,7 C 68 % 1012,3 hPa 0,0 l/m 1,2 km/h (1 Bft) O 83 0 min 0,000 mm 0,0 UV-I 0 W/m 17,4 C 23,7 C 1,6 km/h (1 Bft) 100,00 %
29.07.2018 22:14 23,7 C 26,7 C 21,7 C 68 % 1012,2 hPa 0,0 l/m 0,7 km/h (0 Bft) O 83 0 min 0,000 mm 0,0 UV-I 0 W/m 17,4 C 23,7 C 1,6 km/h (1 Bft) 100,00 %
29.07.2018 22:16 23,8 C 26,7 C 21,7 C 66 % 1012,3 hPa 0,0 l/m 1,6 km/h (1 Bft) O 83 0 min 0,000 mm 0,0 UV-I 0 W/m 17,1 C 23,8 C 3,2 km/h (1 Bft) 100,00 %
29.07.2018 22:19 23,7 C 26,7 C 21,7 C 67 % 1012,3 hPa 0,0 l/m 0,7 km/h (0 Bft) O 83 0 min 0,000 mm 0,0 UV-I 0 W/m 17,2 C 23,7 C 1,6 km/h (1 Bft) 100,00 %
29.07.2018 22:20 23,6 C 26,7 C 21,7 C 67 % 1012,3 hPa 0,0 l/m 1,6 km/h (1 Bft) O 83 0 min 0,000 mm 0,0 UV-I 0 W/m 17,1 C 23,6 C 3,2 km/h (1 Bft) 100,00 %
29.07.2018 22:22 23,2 C 26,7 C 21,7 C 68 % 1012,3 hPa 0,0 l/m 2,1 km/h (1 Bft) O 83 0 min 0,000 mm 0,0 UV-I 0 W/m 17,0 C 23,2 C 3,2 km/h (1 Bft) 97,87 %
29.07.2018 22:24 23,1 C 26,7 C 21,7 C 68 % 1012,3 hPa 0,0 l/m 1,8 km/h (1 Bft) O 83 0 min 0,000 mm 0,0 UV-I 0 W/m 16,9 C 23,1 C 3,2 km/h (1 Bft) 97,87 %
29.07.2018 22:26 23,1 C 26,7 C 21,7 C 67 % 1012,4 hPa 0,0 l/m 0,4 km/h (0 Bft) O 83 0 min 0,000 mm 0,0 UV-I 0 W/m 16,6 C 23,1 C 1,6 km/h (1 Bft) 95,74 %
29.07.2018 22:28 23,3 C 26,7 C 21,7 C 65 % 1012,4 hPa 0,0 l/m 0,0 km/h (0 Bft) O 83 0 min 0,000 mm 0,0 UV-I 0 W/m 16,3 C 23,3 C 0,0 km/h (0 Bft) 96,00 %
29.07.2018 22:30 23,5 C 26,7 C 21,7 C 64 % 1012,4 hPa 0,0 l/m 0,0 km/h (0 Bft) O 83 0 min 0,000 mm 0,0 UV-I 0 W/m 16,3 C 23,5 C 0,0 km/h (0 Bft) 97,87 %
29.07.2018 22:32 23,7 C 26,7 C 21,7 C 63 % 1012,4 hPa 0,0 l/m 0,0 km/h (0 Bft) O 83 0 min 0,000 mm 0,0 UV-I 0 W/m 16,2 C 23,7 C 0,0 km/h (0 Bft) 97,87 %
29.07.2018 22:34 23,8 C 26,7 C 21,7 C 63 % 1012,4 hPa 0,0 l/m 0,0 km/h (0 Bft) O 83 0 min 0,000 mm 0,0 UV-I 0 W/m 16,3 C 23,8 C 0,0 km/h (0 Bft) 97,92 %
29.07.2018 22:36 23,9 C 26,7 C 21,7 C 64 % 1012,4 hPa 0,0 l/m 0,0 km/h (0 Bft) O 83 0 min 0,000 mm 0,0 UV-I 0 W/m 16,7 C 23,9 C 0,0 km/h (0 Bft) 95,74 %
29.07.2018 22:38 23,9 C 26,7 C 21,1 C 65 % 1012,4 hPa 0,0 l/m 0,0 km/h (0 Bft) O 83 0 min 0,000 mm 0,0 UV-I 0 W/m 16,9 C 23,9 C 0,0 km/h (0 Bft) 95,74 %
29.07.2018 22:40 23,8 C 26,7 C 21,1 C 65 % 1012,4 hPa 0,0 l/m 0,0 km/h (0 Bft) O 83 0 min 0,000 mm 0,0 UV-I 0 W/m 16,8 C 23,8 C 0,0 km/h (0 Bft) 91,49 %
29.07.2018 22:42 23,7 C 26,7 C 21,1 C 66 % 1012,4 hPa 0,0 l/m 0,0 km/h (0 Bft) O 83 0 min 0,000 mm 0,0 UV-I 0 W/m 17,0 C 23,7 C 0,0 km/h (0 Bft) 94,29 %
29.07.2018 22:44 23,6 C 26,7 C 21,1 C 67 % 1012,5 hPa 0,0 l/m 0,0 km/h (0 Bft) O 83 0 min 0,000 mm 0,0 UV-I 0 W/m 17,1 C 23,6 C 0,0 km/h (0 Bft) 93,62 %
29.07.2018 22:46 23,4 C 26,7 C 21,1 C 68 % 1012,5 hPa 0,0 l/m 0,0 km/h (0 Bft) O 83 0 min 0,000 mm 0,0 UV-I 0 W/m 17,1 C 23,4 C 0,0 km/h (0 Bft) 94,00 %
29.07.2018 22:48 23,4 C 26,7 C 21,1 C 68 % 1012,5 hPa 0,0 l/m 0,0 km/h (0 Bft) O 83 0 min 0,000 mm 0,0 UV-I 0 W/m 17,1 C 23,4 C 0,0 km/h (0 Bft) 96,00 %
29.07.2018 22:50 23,4 C 26,7 C 21,1 C 68 % 1012,5 hPa 0,0 l/m 1,3 km/h (1 Bft) O 83 0 min 0,000 mm 0,0 UV-I 0 W/m 17,1 C 23,4 C 3,2 km/h (1 Bft) 96,00 %
29.07.2018 22:52 23,6 C 26,7 C 21,1 C 65 % 1012,5 hPa 0,0 l/m 1,9 km/h (1 Bft) O 83 0 min 0,000 mm 0,0 UV-I 0 W/m 16,6 C 23,6 C 3,2 km/h (1 Bft) 94,74 %
29.07.2018 22:54 23,8 C 26,7 C 21,1 C 64 % 1012,6 hPa 0,0 l/m 2,2 km/h (1 Bft) O 83 0 min 0,000 mm 0,0 UV-I 0 W/m 16,6 C 23,8 C 3,2 km/h (1 Bft) 91,49 %
29.07.2018 22:56 23,9 C 26,7 C 21,1 C 62 % 1012,6 hPa 0,0 l/m 2,0 km/h (1 Bft) O 83 0 min 0,000 mm 0,0 UV-I 0 W/m 16,2 C 23,9 C 3,2 km/h (1 Bft) 93,62 %
29.07.2018 22:58 23,9 C 26,7 C 21,7 C 63 % 1012,6 hPa 0,0 l/m 1,5 km/h (1 Bft) O 83 0 min 0,000 mm 0,0 UV-I 0 W/m 16,4 C 23,9 C 3,2 km/h (1 Bft) 95,74 %
29.07.2018 23:00 23,7 C 26,7 C 21,1 C 65 % 1012,6 hPa 0,0 l/m 2,2 km/h (1 Bft) O 83 0 min 0,000 mm 0,0 UV-I 0 W/m 16,7 C 23,7 C 3,2 km/h (1 Bft) 95,74 %
29.07.2018 23:02 23,4 C 26,7 C 21,7 C 66 % 1012,6 hPa 0,0 l/m 2,4 km/h (1 Bft) O 83 0 min 0,025 mm 0,0 UV-I 0 W/m 16,7 C 23,4 C 3,2 km/h (1 Bft) 94,00 %
29.07.2018 23:04 23,2 C 26,7 C 21,1 C 69 % 1012,6 hPa 0,0 l/m 1,8 km/h (1 Bft) O 83 0 min 0,000 mm 0,0 UV-I 0 W/m 17,2 C 23,2 C 3,2 km/h (1 Bft) 97,87 %
29.07.2018 23:06 23,1 C 26,7 C 21,1 C 67 % 1012,6 hPa 0,0 l/m 1,6 km/h (1 Bft) O 83 0 min 0,000 mm 0,0 UV-I 0 W/m 16,6 C 23,1 C 3,2 km/h (1 Bft) 100,00 %
29.07.2018 23:08 23,2 C 26,7 C 21,1 C 66 % 1012,6 hPa 0,0 l/m 2,7 km/h (1 Bft) O 83 0 min 0,000 mm 0,0 UV-I 0 W/m 16,5 C 23,2 C 3,2 km/h (1 Bft) 97,87 %
29.07.2018 23:10 23,3 C 26,7 C 21,1 C 66 % 1012,6 hPa 0,0 l/m 3,0 km/h (1 Bft) O 83 0 min 0,000 mm 0,0 UV-I 0 W/m 16,6 C 23,3 C 3,2 km/h (1 Bft) 93,75 %
29.07.2018 23:12 23,4 C 26,7 C 21,1 C 66 % 1012,6 hPa 0,0 l/m 2,6 km/h (1 Bft) O 83 0 min 0,000 mm 0,0 UV-I 0 W/m 16,7 C 23,4 C 3,2 km/h (1 Bft) 97,87 %
29.07.2018 23:14 23,4 C 26,7 C 21,1 C 66 % 1012,7 hPa 0,0 l/m 1,4 km/h (1 Bft) O 83 0 min 0,000 mm 0,0 UV-I 0 W/m 16,7 C 23,4 C 3,2 km/h (1 Bft) 95,74 %
29.07.2018 23:16 23,4 C 26,7 C 21,1 C 66 % 1012,6 hPa 0,0 l/m 0,8 km/h (0 Bft) O 83 0 min 0,000 mm 0,0 UV-I 0 W/m 16,7 C 23,4 C 1,6 km/h (1 Bft) 98,00 %
29.07.2018 23:18 23,5 C 26,7 C 21,1 C 66 % 1012,6 hPa 0,0 l/m 0,4 km/h (0 Bft) O 83 0 min 0,000 mm 0,0 UV-I 0 W/m 16,8 C 23,5 C 1,6 km/h (1 Bft) 93,62 %
29.07.2018 23:20 23,5 C 26,7 C 20,6 C 67 % 1012,6 hPa 0,0 l/m 0,0 km/h (0 Bft) O 83 0 min 0,000 mm 0,0 UV-I 0 W/m 17,0 C 23,5 C 0,0 km/h (0 Bft) 97,87 %
29.07.2018 23:22 23,4 C 26,7 C 20,6 C 67 % 1012,6 hPa 0,0 l/m 0,0 km/h (0 Bft) O 83 0 min 0,000 mm 0,0 UV-I 0 W/m 16,9 C 23,4 C 0,0 km/h (0 Bft) 97,87 %
29.07.2018 23:24 23,2 C 26,7 C 20,6 C 68 % 1012,7 hPa 0,0 l/m 0,0 km/h (0 Bft) O 83 0 min 0,000 mm 0,0 UV-I 0 W/m 17,0 C 23,2 C 0,0 km/h (0 Bft) 93,62 %
29.07.2018 23:26 23,1 C 26,7 C 20,6 C 68 % 1012,6 hPa 0,0 l/m 0,4 km/h (0 Bft) O 83 0 min 0,000 mm 0,0 UV-I 0 W/m 16,9 C 23,1 C 1,6 km/h (1 Bft) 97,87 %
29.07.2018 23:28 22,9 C 26,7 C 20,6 C 68 % 1012,7 hPa 0,0 l/m 0,0 km/h (0 Bft) O 83 0 min 0,000 mm 0,0 UV-I 0 W/m 16,7 C 22,9 C 0,0 km/h (0 Bft) 97,87 %
29.07.2018 23:30 22,8 C 26,7 C 20,6 C 69 % 1012,7 hPa 0,0 l/m 0,0 km/h (0 Bft) O 83 0 min 0,000 mm 0,0 UV-I 0 W/m 16,8 C 22,8 C 0,0 km/h (0 Bft) 97,87 %
29.07.2018 23:32 22,8 C 26,7 C 20,6 C 69 % 1012,7 hPa 0,0 l/m 0,0 km/h (0 Bft) O 83 0 min 0,000 mm 0,0 UV-I 0 W/m 16,8 C 22,8 C 0,0 km/h (0 Bft) 94,29 %
29.07.2018 23:34 22,8 C 26,7 C 20,6 C 69 % 1012,7 hPa 0,0 l/m 0,0 km/h (0 Bft) O 83 0 min 0,000 mm 0,0 UV-I 0 W/m 16,8 C 22,8 C 0,0 km/h (0 Bft) 98,08 %
29.07.2018 23:36 22,8 C 26,7 C 20,0 C 69 % 1012,8 hPa 0,0 l/m 0,0 km/h (0 Bft) O 83 0 min 0,000 mm 0,0 UV-I 0 W/m 16,8 C 22,8 C 0,0 km/h (0 Bft) 97,87 %
29.07.2018 23:38 22,8 C 26,7 C 20,0 C 70 % 1012,8 hPa 0,0 l/m 0,0 km/h (0 Bft) O 83 0 min 0,000 mm 0,0 UV-I 0 W/m 17,0 C 22,8 C 0,0 km/h (0 Bft) 98,00 %
29.07.2018 23:40 22,7 C 26,7 C 20,0 C 70 % 1012,8 hPa 0,0 l/m 0,0 km/h (0 Bft) O 83 0 min 0,000 mm 0,0 UV-I 0 W/m 16,9 C 22,7 C 0,0 km/h (0 Bft) 97,87 %
29.07.2018 23:42 22,6 C 26,7 C 20,6 C 71 % 1012,8 hPa 0,0 l/m 0,0 km/h (0 Bft) O 83 0 min 0,000 mm 0,0 UV-I 0 W/m 17,1 C 22,6 C 0,0 km/h (0 Bft) 94,44 %
29.07.2018 23:44 22,4 C 26,7 C 20,6 C 72 % 1012,8 hPa 0,0 l/m 0,2 km/h (0 Bft) SO 139 0 min 0,000 mm 0,0 UV-I 0 W/m 17,1 C 22,4 C 3,2 km/h (1 Bft) 96,30 %
29.07.2018 23:46 22,2 C 26,7 C 20,6 C 72 % 1012,8 hPa 0,0 l/m 3,5 km/h (1 Bft) SO 139 0 min 0,000 mm 0,0 UV-I 0 W/m 16,9 C 22,2 C 4,8 km/h (1 Bft) 98,00 %
29.07.2018 23:48 21,9 C 26,7 C 20,6 C 72 % 1012,8 hPa 0,0 l/m 3,7 km/h (1 Bft) SO 139 0 min 0,000 mm 0,0 UV-I 0 W/m 16,6 C 21,9 C 4,8 km/h (1 Bft) 97,92 %
29.07.2018 23:50 21,8 C 26,7 C 20,6 C 73 % 1012,8 hPa 0,0 l/m 3,3 km/h (1 Bft) SO 139 0 min 0,000 mm 0,0 UV-I 0 W/m 16,7 C 21,8 C 4,8 km/h (1 Bft) 97,87 %
29.07.2018 23:52 21,8 C 26,7 C 20,6 C 72 % 1012,8 hPa 0,0 l/m 3,2 km/h (1 Bft) SO 139 0 min 0,000 mm 0,0 UV-I 0 W/m 16,5 C 21,8 C 4,8 km/h (1 Bft) 97,87 %
29.07.2018 23:54 21,9 C 26,7 C 20,6 C 73 % 1012,8 hPa 0,0 l/m 3,9 km/h (1 Bft) SO 140 0 min 0,000 mm 0,0 UV-I 0 W/m 16,8 C 21,9 C 4,8 km/h (1 Bft) 92,68 %
29.07.2018 23:56 22,0 C 26,7 C 20,6 C 73 % 1012,8 hPa 0,0 l/m 4,7 km/h (1 Bft) S 178 0 min 0,000 mm 0,0 UV-I 0 W/m 16,9 C 22,0 C 6,4 km/h (2 Bft) 97,87 %
29.07.2018 23:59 21,9 C 26,7 C 20,6 C 73 % 1012,8 hPa 0,0 l/m 3,5 km/h (1 Bft) S-SW 198 0 min 0,000 mm 0,0 UV-I 0 W/m 16,8 C 21,9 C 8,0 km/h (2 Bft) 97,26 %
_ Min-Zeit 06:40 05:32 23:36 17:18 17:32 - 20:32 - - - - - - 18:42 06:30 20:32 00:02
Minimum _ 21,2 C 25,6 C 20,0 C 42 % 1011,1 hPa - 0,0 km/h (0 Bft) - - - - - - 14,7 C 19,1 C 0,0 km/h (0 Bft) 9,09 %
_ Max-Zeit 16:48 16:16 12:22 07:52 09:44 00:00 04:20 - - 13:09 13:02 12:32 12:32 14:14 17:32 04:20 00:00
Maximum _ 29,7 C 27,2 C 41,1 C 76 % 1014,7 hPa 0,0 l/m 18,6 km/h
W-SW (3 Bft)
- - 3 min 0,559 mm 6,3 UV-I 942 W/m 19,1 C 29,7 C 29,0 km/h
W-SW (5 Bft)
100,00 %
Durchschnitt _ 24,9 C 26,4 C 27,4 C 60 % 1012,7 hPa #0,0 l/m 7,4 km/h (2 Bft) W-SW - #9:55 h #4,902 mm 3,1 UV-I 365 W/m 16,5 C 24,3 C 11,7 km/h (2 Bft) 97,05 %